[[{"header":{"parameterUnit":"m.s-1","parameterCategory":1,"la1":30.6,"la2":29.2853,"lo1":-89.7004,"lo2":-87.6739,"dy":0.0162,"dx":0.0183,"nx":112,"ny":82,"refTime":"2023-05-28T06:00:00:Z","depth":0,"parameterNumber":2,"parameterNumberName":"U-component_of_WINDS"},"data":[0.0,0.0,0.0,0.0,0.0,0.0,0.0,0.0,0.0,0.0,0.0,0.0,0.0,0.0,0.0,0.0,0.0,0.0,0.0,0.0,0.0,0.0,0.0,0.0,0.0,0.0,0.0,0.0,0.0,0.0,0.0,0.0,0.0,0.0,0.0,0.0,0.0,0.0,0.0,0.0,0.0,0.0,0.0,0.0,0.0,0.0,0.0,0.0,0.0,0.0,0.0,0.0,0.0,0.0,0.0,0.0,0.0,0.0,0.0,0.0,0.0,0.0,0.0,0.0,0.0,0.0,0.0,0.0,0.0,0.0,0.0,0.0,0.0,0.0,0.0,0.0,0.0,0.0,0.0,0.0,0.0,0.0,0.0,0.0,0.0,0.0,0.0,0.0,0.0,0.0,0.5361,0.5246,0.5222,0.5059,0.4743,0.542,0.5747,0.5427,0.0,0.0,0.0,0.0,0.0,0.0,0.0,0.0,0.0,0.0,0.0,0.0,0.0,0.0,0.0,0.0,0.0,0.0,0.0,0.0,0.0,0.0,0.0,0.0,0.0,0.0,0.0,0.0,0.0,0.0,0.0,0.0,0.0,0.0,0.0,0.0,0.0,0.0,0.0,0.0,0.0,0.0,0.0,0.0,0.0,0.0,0.0,0.0,0.0,0.0,0.0,0.0,0.0,0.0,0.0,0.0,0.0,0.0,0.0,0.0,0.0,0.0,0.0,0.0,0.0,0.0,0.0,0.0,0.0,0.0,0.0,0.0,0.0,0.0,0.0,0.0,0.0,0.0,0.0,0.0,0.0,0.0,0.0,0.0,0.0,0.0,0.0,0.0,0.0,0.0,0.0,0.0,0.0,0.0,0.0,0.0,0.0,0.0,0.0,0.0,0.0,0.0,0.0,0.0,0.5657,0.5012,0.4813,0.4763,0.485,0.5148,0.534,0.54,0.0,0.0,0.0,0.0,0.0,0.0,0.0,0.0,0.0,0.0,0.0,0.0,0.0,0.0,0.0,0.0,0.0,0.0,0.0,0.0,0.0,0.0,0.0,0.0,0.0,0.0,0.0,0.0,0.0,0.0,0.0,0.0,0.0,0.0,0.0,0.0,0.0,0.0,0.0,0.0,0.0,0.0,0.0,0.0,0.0,0.0,0.0,0.0,0.0,0.0,0.0,0.0,0.0,0.0,0.0,0.0,0.0,0.0,0.0,0.0,0.0,0.0,0.0,0.0,0.0,0.0,0.0,0.0,0.0,0.0,0.0,0.0,0.0,0.0,0.0,0.0,0.0,0.0,0.0,0.0,0.0,0.0,0.0,0.0,0.0,0.0,0.0,0.0,0.0,0.0,0.0,0.0,0.0,0.0,0.0,0.0,0.0,0.0,0.0,0.0,0.0,0.0,0.0,0.5107,0.4791,0.4461,0.4381,0.4471,0.4667,0.4937,0.5151,0.5271,0.5908,0.0,0.0,0.0,0.0,0.0,0.0,0.0,0.0,0.0,0.0,0.0,0.0,0.0,0.0,0.0,0.0,0.0,0.0,0.0,0.0,0.0,0.0,0.0,0.0,0.0,0.0,0.0,0.0,0.0,0.0,0.0,0.0,0.0,0.0,0.0,0.0,0.0,0.0,0.0,0.0,0.0,0.0,0.0,0.0,0.0,0.0,0.0,0.0,0.0,0.0,0.0,0.0,0.0,0.0,0.0,0.0,0.0,0.0,0.0,0.0,0.0,0.0,0.0,0.0,0.0,0.0,0.0,0.0,0.0,0.0,0.0,0.0,0.0,0.0,0.0,0.0,0.0,0.0,0.0,0.0,0.0,0.0,0.0,0.0,0.0,0.0,0.0,0.0,0.0,0.0,0.0,0.0,0.0,0.0,0.0,0.0,0.0,0.0,0.0,0.0,0.0,0.0,0.4322,0.4026,0.4113,0.4204,0.4333,0.4523,0.4855,0.5081,0.5207,0.5608,0.0,0.0,0.0,0.0,0.0,0.0,0.0,0.0,0.0,0.0,0.0,0.0,0.0,0.0,0.0,0.0,0.0,0.0,0.0,0.0,0.0,0.0,0.0,0.0,0.0,0.0,0.0,0.0,0.0,0.0,0.0,0.0,0.0,0.0,0.0,0.0,0.0,0.0,0.0,0.0,0.0,0.0,0.0,0.0,0.0,0.0,0.0,0.0,0.0,0.0,0.0,0.0,0.0,0.0,0.0,0.0,0.0,0.0,0.0,0.0,0.0,0.0,0.0,0.0,0.0,0.0,0.0,0.0,0.0,0.0,0.0,0.0,0.0,0.0,0.0,0.0,0.0,0.0,0.0,0.0,0.0,0.0,0.0,0.0,0.0,0.0,0.0,0.0,0.0,0.0,0.0,0.0,0.0,0.0,0.0,0.0,0.0,0.0,0.0,0.0,0.0,0.0,0.4439,0.4109,0.4439,0.4421,0.4457,0.4682,0.4988,0.52,0.5184,0.5529,0.0,0.0,0.0,0.0,0.0,0.0,0.0,0.0,0.0,0.0,0.0,0.0,0.0,0.0,0.0,0.0,0.0,0.0,0.0,0.0,0.0,0.0,0.0,0.0,0.0,0.0,0.0,0.0,0.0,0.0,0.0,0.0,0.0,0.0,0.0,0.0,0.0,0.0,0.0,0.0,0.0,0.0,0.0,0.0,0.0,0.0,0.0,0.0,0.0,0.0,0.0,0.0,0.0,0.0,0.0,0.0,0.0,0.0,0.0,0.0,0.0,0.0,0.0,0.0,0.0,0.0,0.0,0.0,0.0,0.0,0.0,0.0,0.0,0.0,0.0,0.0,0.0,0.0,0.0,0.0,0.0,0.0,0.0,0.0,0.0,0.0,0.0,0.0,0.0,0.0,0.0,0.0,0.0,0.0,0.0,0.0,0.0,0.0,0.0,0.0,0.0,0.0,0.375,0.3375,0.3883,0.3739,0.3621,0.371,0.3995,0.4196,0.4196,0.0,0.0,0.0,0.0,0.0,0.0,0.0,0.0,0.0,0.0,0.0,0.0,0.0,0.0,0.0,0.0,0.0,0.0,0.0,0.0,0.0,0.0,0.0,0.0,0.0,0.0,0.0,0.0,0.0,0.0,0.0,0.0,0.0,0.0,0.0,0.0,0.0,0.0,0.0,0.0,0.0,0.0,0.0,0.0,0.0,0.0,0.0,0.0,0.0,0.0,0.0,0.0,0.0,0.0,0.0,0.0,0.0,0.0,0.0,0.0,0.0,0.0,0.0,0.0,0.0,0.0,0.0,0.0,0.0,0.0,0.0,0.0,0.0,0.0,0.0,0.0,0.0,0.0,0.0,0.0,0.0,0.0,0.0,0.0,0.0,0.0,0.0,0.0,0.0,0.0,0.0,0.0,0.0,0.0,0.0,0.0,0.0,0.0,0.0,0.0,0.0,0.0,0.3685,0.2956,0.2571,0.2993,0.2852,0.274,0.274,0.307,0.332,0.3486,0.0,0.0,0.0,0.0,0.0,0.0,0.0,0.0,0.0,0.0,0.0,0.0,0.0,0.0,0.0,0.0,0.0,0.0,0.0,0.0,0.0,0.0,0.0,0.0,0.0,0.0,0.0,0.0,0.0,0.0,0.0,0.0,0.0,0.0,0.0,0.0,0.0,0.0,0.0,0.0,0.0,0.0,0.0,0.0,0.0,0.0,0.0,0.0,0.0,0.0,0.0,0.0,0.0,0.0,0.0,0.0,0.0,0.0,0.0,0.0,0.0,0.0,0.0,0.0,0.0,0.0,0.0,0.0,0.0,0.0,0.0,0.0,0.0,0.0,0.0,0.0,0.0,0.0,0.0,0.0,0.0,0.0,0.0,0.0,0.0,0.0,0.0,0.0,0.0,0.0,0.0,0.0,0.0,0.0,0.0,0.0,0.0,0.0,0.0,0.0,0.0,0.0,0.2721,0.2179,0.179,0.179,0.1902,0.1987,0.1987,0.2291,0.2704,0.0,0.0,0.0,0.0,0.0,0.0,0.0,0.0,0.0,0.0,0.0,0.0,0.0,0.0,0.0,0.0,0.0,0.0,0.0,0.0,0.0,0.0,0.0,0.0,0.0,0.0,0.0,0.0,0.0,0.0,0.0,0.0,0.0,0.0,0.0,0.0,0.0,0.0,0.0,0.0,0.0,0.0,0.0,0.0,0.0,0.0,0.0,0.0,0.0,0.0,0.0,0.0,0.0,0.0,0.0,0.0,0.0,0.0,0.0,0.0,0.0,0.0,0.0,0.0,0.0,0.0,0.0,0.0,0.0,0.0,0.0,0.0,0.0,0.0,0.0,0.0,0.0,0.0,0.0,0.0,0.0,0.0,0.0,0.0,0.0,0.0,0.0,0.0,0.0,0.0,0.0,0.0,0.0,0.0,0.0,0.0,0.0,0.0,0.0,0.0,0.0,0.0,0.0,0.271,0.179,0.1316,0.1762,0.1538,0.1371,0.1373,0.1539,0.1955,0.2676,0.0,0.0,0.0,0.0,0.0,0.0,0.0,0.0,0.0,0.0,0.0,0.0,0.0,0.0,0.0,0.0,0.0,0.0,0.0,0.0,0.0,0.0,0.0,0.0,0.0,0.0,0.0,0.0,0.0,0.0,0.0,0.0,0.0,0.0,0.0,0.0,0.0,0.0,0.0,0.0,0.0,0.0,0.0,0.0,0.0,0.0,0.0,0.0,0.0,0.0,0.0,0.0,0.0,0.0,0.0,0.0,0.0,0.0,0.0,0.0,0.0,0.0,0.0,0.0,0.0,0.0,0.0,0.0,0.0,0.0,0.0,0.0,0.0,0.0,0.0,0.0,0.0,0.0,0.0,0.0,0.0,0.0,0.0,0.0,0.0,0.0,0.0,0.0,0.0,0.0,0.0,0.0,0.0,0.0,0.0,0.0,0.0,0.0,0.0,0.0,0.0,0.0,0.215,0.1203,0.0672,0.1036,0.0839,0.0672,0.0673,0.0784,0.1202,0.1983,0.0,0.0,0.0,0.0,0.0,0.0,0.0,0.0,0.0,0.0,0.0,0.0,0.0,0.0,0.0,0.0,0.0,0.0,0.0,0.0,0.0,0.0,0.0,0.0,0.0,0.0,0.0,0.0,0.0,0.0,0.0,0.0,0.0,0.0,0.0,0.0,0.0,0.0,0.0,0.0,0.0,0.0,0.0,0.0,0.0,0.0,0.0,0.0,0.0,0.0,0.0,0.0,0.0,0.0,0.0,0.0,0.0,0.0,0.0,0.0,0.0,0.0,0.0,0.0,0.0,0.0,0.0,0.0,0.0,0.0,0.0,0.0,0.0,0.0,0.0,0.0,0.0,0.0,0.0,0.0,0.0,0.0,0.0,0.0,0.0,0.0,0.0,0.0,0.0,0.0,0.0,0.0,0.0,0.0,0.0,0.0,0.0,0.0,0.0,0.0,0.0,0.0,0.1242,0.0508,-0.0028,0.0,0.0,0.0,0.0,0.0112,0.0504,0.1229,0.0,0.0,0.0,0.0,0.0,0.0,0.0,0.0,0.0,0.0,0.0,0.0,0.0,0.0,0.0,0.0,0.0,0.0,0.0,0.0,0.0,0.0,0.0,0.0,0.0,0.0,0.0,0.0,0.0,0.0,0.0,0.0,0.0,0.0,0.0,0.0,0.0,0.0,0.0,0.0,0.0,0.0,0.0,0.0,0.0,0.0,0.0,0.0,0.0,0.0,0.0,0.0,0.0,0.0,0.0,0.0,0.0,0.0,0.0,0.0,-0.2229,-0.1417,0.0,0.0,0.0,0.0,0.0,0.0,0.0,0.0,0.0,0.0,0.0,0.0,0.0,0.0,0.0,0.0,0.0,0.0,0.0,0.0,0.0,0.0,0.0,0.0,0.0,0.0,0.0,0.0,0.0,0.0,0.0,0.0,0.0,0.0,0.0,0.0,0.0,0.0,0.0,0.0,0.0784,0.0181,-0.0182,-0.003,0.0,0.0,0.0,0.0028,0.0364,0.109,0.1285,0.0,0.0,0.0,0.0,0.0,0.0,0.0,0.0,0.0,0.0,0.0,0.0,0.0,0.0,0.0,0.0,0.0,0.0,0.0,0.0,0.0,0.0,0.0,0.0,0.0,0.0,0.0,0.0,0.0,0.0,0.0,0.0,0.0,0.0,0.0,0.0,0.0,0.0,0.0,0.0,0.0,0.0,0.0,0.0,0.0,0.0,0.0,0.0,0.0,0.0,0.0,0.0,0.0,0.0,0.0,0.0,0.0,0.0,0.0,-0.2741,-0.2059,0.0,0.0,0.0,0.0,0.0,0.0,0.0,0.0,0.0,0.0,0.0,0.0,0.0,0.0,0.0,0.0,0.0,0.0,0.0,0.0,0.0,0.0,0.0,0.0,0.0,0.0,0.0,0.0,0.0,0.0,0.0,0.0,0.0,0.0,0.0,0.0,0.0,0.0,0.0,0.0,0.0432,0.0,-0.0216,-0.0031,0.0,0.0,0.0,0.0,0.0201,0.063,0.0734,0.0,0.0,0.0,0.0,0.0,0.0,0.0,0.0,0.0,0.0,0.0,0.0,0.0,0.0,0.0,0.0,0.0,0.0,0.0,0.0,0.0,0.0,0.0,0.0,0.0,0.0,0.0,0.0,0.0,0.0,0.0,0.0,0.0,0.0,0.0,0.0,0.0,0.0,0.0,0.0,0.0,0.0,0.0,0.0,0.0,0.0,0.0,0.0,0.0,0.0,0.0,0.0,0.0,-0.5342,-0.528,-0.5274,-0.5034,-0.4846,-0.4659,-0.3203,-0.2743,-0.2999,-0.2497,0.0,0.0,0.0,0.0,0.0,0.0,0.0,0.0,0.0,0.0,0.0,0.0,0.0,0.0,0.0,0.0,0.0,0.0,0.0,0.0,0.0,0.0,-0.2777,-0.262,-0.2777,-0.2649,-0.1428,0.0,0.0,0.0,0.0,0.0,0.0,0.0,0.0,0.0,0.0,0.0,0.0,-0.022,-0.0314,-0.0063,-0.0062,-0.0031,0.0,0.0,0.0059,0.0148,0.0173,0.0311,0.0,0.0,0.0,0.0,0.0,0.0,0.0,0.0,0.0,0.0,0.0,0.0,0.0,0.0,0.0,0.0,0.0,0.0,0.0,0.0,0.0,0.0,0.0,0.0,0.0,0.0,0.0,0.0,0.0,0.0,0.0,0.0,-0.6789,-0.6931,0.0,0.0,0.0,0.0,0.0,0.0,0.0,0.0,0.0,0.0,0.0,0.0,0.0,-0.7762,-0.7737,-0.7653,-0.7553,-0.7433,-0.7252,-0.7163,-0.7118,-0.6158,-0.5721,-0.5662,-0.4752,0.0,-0.3181,-0.3082,0.0,0.0,0.0,0.0,0.0,0.0,0.0,0.0,0.0,0.0,0.0,0.0,0.0,0.0,0.0,0.0,0.0,0.0,0.0,0.0,0.0,0.0,-0.4476,-0.4443,-0.4476,-0.4443,-0.4273,-0.3441,-0.2736,-0.2644,-0.2392,-0.1915,0.0,0.0,0.0,0.0,0.0,0.0,-0.0633,-0.07,-0.06,-0.03,-0.0261,-0.0193,0.0,0.0,0.0,0.0031,0.0149,0.0234,0.0263,0.0541,0.0,0.0,0.0,0.0,0.0,0.0,0.0,0.0,0.0,0.0,0.0,0.0,0.0,0.0,0.0,0.0,0.0,0.0,0.0,0.0,0.0,0.0,0.0,0.0,0.0,0.0,0.0,0.0,0.0,-0.6033,-0.6663,-0.6865,-0.7003,-0.7145,0.0,0.0,0.0,0.0,0.0,0.0,0.0,0.0,0.0,-0.8855,-0.881,-0.8805,-0.8805,-0.8733,-0.8453,-0.8007,-0.8042,-0.8078,-0.8034,-0.7725,-0.7553,-0.7454,-0.7109,-0.6596,-0.5895,-0.4575,-0.3897,-0.3683,0.0,0.0,0.0,0.0,-0.3405,-0.3197,-0.3441,-0.3228,-0.2874,-0.2874,0.0,0.0,0.0,0.0,0.0,0.0,0.0,-0.4112,-0.3951,-0.4452,-0.4924,-0.4831,-0.4894,-0.4957,-0.4957,-0.4668,-0.4231,-0.3719,-0.3457,-0.3012,-0.1937,-0.1907,0.0,0.0,0.0,-0.1945,-0.1981,-0.1545,-0.1143,-0.0873,-0.0798,-0.0726,-0.0627,-0.0964,-0.1168,-0.1168,-0.1135,-0.1055,-0.0995,-0.0761,-0.0604,0.0,0.0,0.0,0.0,0.0,0.0,0.0,0.0,0.0,0.0,0.0,0.0,0.0,0.0,0.0,0.0,0.0,0.0,0.0,0.0,0.0,0.0,0.0,0.0,0.0,0.0,0.0,0.0,-0.657,-0.7419,-0.7585,-0.7961,-0.8301,0.0,0.0,0.0,0.0,0.0,0.0,-0.8895,-0.8949,-0.9266,-0.9888,-0.997,-0.997,-0.9888,-0.9939,-0.969,-0.91,-0.9124,-0.9178,-0.922,-0.9123,-0.9052,-0.8944,-0.8825,-0.8589,-0.8121,-0.6249,-0.5386,-0.5207,-0.5062,-0.5048,-0.5108,-0.4871,-0.4585,-0.4391,-0.4685,-0.4416,-0.3971,-0.3971,-0.4348,-0.462,-0.3796,0.0,0.0,0.0,0.0,-0.4654,-0.4487,-0.4857,-0.523,-0.5101,-0.5166,-0.5264,-0.5264,-0.5376,-0.5242,-0.45,-0.4361,-0.3992,-0.285,-0.3115,0.0,-0.248,-0.2848,-0.3149,-0.298,-0.2412,-0.1942,-0.1742,-0.1576,-0.1478,-0.1444,-0.1843,-0.2111,-0.2111,-0.2085,-0.205,-0.1957,-0.1811,-0.1688,-0.1557,0.0,0.0,0.0,0.0,0.0,0.0,0.0,0.0,0.0,0.0,0.0,0.0,0.0,0.0,0.0,0.0,0.0,0.0,0.0,0.0,0.0,0.0,0.0,0.0,0.0,0.0,0.0,0.0,0.0,-1.0409,-0.9746,0.0,0.0,0.0,0.0,-0.9349,-1.029,-1.0877,-1.0877,-1.1059,-1.1139,-1.1182,-1.1445,-1.1445,-1.1225,-1.1445,-1.1574,-1.1531,-1.1079,-1.0961,-1.1117,-1.0136,-0.966,-0.9609,-0.9122,-0.8751,-0.8455,-0.7887,-0.7036,-0.6104,-0.593,-0.5483,-0.502,-0.4976,-0.5078,-0.5251,-0.5245,-0.5245,-0.5206,-0.5206,-0.5245,-0.5281,-0.5356,-0.5392,0.0,0.0,-0.5704,-0.5708,-0.5708,-0.5743,-0.5779,-0.5743,-0.5743,-0.5779,-0.5779,-0.5674,-0.5535,-0.5356,-0.5329,-0.5093,-0.432,0.0,-0.3984,-0.3249,-0.3182,-0.3182,-0.3182,-0.3149,-0.3049,-0.2846,-0.2683,-0.2552,-0.235,-0.2178,-0.2108,-0.2108,-0.2086,-0.2084,-0.2084,-0.1962,-0.1814,-0.1705,-0.1555,0.0,0.0,0.0,0.0,0.0,0.0,0.0,0.0,0.0,0.0,0.0,0.0,0.0,0.0,0.0,0.0,0.0,0.0,0.0,0.0,0.0,0.0,0.0,0.0,0.0,0.0,0.0,0.0,-1.0051,-1.0269,0.0,-1.0605,-1.0625,-1.0625,-1.062,-1.0995,-1.1177,-1.1177,-1.1402,-1.1619,-1.18,-1.2032,-1.2204,-1.2249,-1.2338,-1.2428,-1.2383,-1.2041,-1.201,-1.2264,-1.1691,-1.1525,-1.1615,-1.1441,-1.1231,-1.0989,-1.0627,-0.9374,-0.7707,-0.7799,-0.7778,-0.7692,-0.7419,-0.7378,-0.7377,-0.711,-0.6961,-0.6833,-0.6861,-0.6999,-0.7145,-0.7114,-0.7185,-0.7252,-0.7323,-0.7354,-0.7354,-0.7354,-0.7354,-0.7216,-0.6686,-0.6579,-0.6437,-0.5907,-0.5762,-0.5708,-0.5654,-0.5525,-0.516,-0.442,-0.4688,-0.4755,-0.402,-0.432,-0.4622,-0.4622,-0.4084,-0.3649,-0.3487,-0.332,-0.3119,-0.2917,-0.3288,-0.3525,-0.3525,-0.3524,-0.3504,-0.3504,-0.3375,-0.3306,-0.3241,-0.3023,-0.2411,0.0,0.0,0.0,0.0,0.0,0.0,0.0,0.0,0.0,0.0,0.0,0.0,0.0,0.0,0.0,0.0,0.0,0.0,0.0,0.0,0.0,0.0,0.0,0.0,0.0,-0.9478,-1.0126,-1.0281,-1.0878,-1.1289,-1.1407,-1.1581,-1.1629,-1.1585,-1.1629,-1.1629,-1.1585,-1.182,-1.2041,-1.2182,-1.2513,-1.2689,-1.278,-1.2877,-1.2922,-1.2917,-1.2659,-1.2674,-1.2942,-1.2759,-1.2758,-1.2883,-1.2842,-1.272,-1.2524,-1.2301,-1.1286,-0.9788,-0.9437,-0.9268,-0.9181,-0.8917,-0.8862,-0.8883,-0.8588,-0.8421,-0.8305,-0.8296,-0.8444,-0.862,-0.8411,-0.8424,-0.8478,-0.8406,-0.8387,-0.8387,-0.8387,-0.8387,-0.8242,-0.7698,-0.7588,-0.7443,-0.6903,-0.6747,-0.6632,-0.6342,-0.5888,-0.5372,-0.4888,-0.5198,-0.5372,-0.4888,-0.5232,-0.5528,-0.5477,-0.4925,-0.4501,-0.4361,-0.409,-0.3889,-0.3754,-0.4095,-0.43,-0.43,-0.43,-0.43,-0.43,-0.4224,-0.4159,-0.4086,-0.3838,-0.3134,-0.1939,0.0,0.0,0.0,0.0,0.0,0.0,0.0,0.0,0.0,0.0,0.0,0.0,0.0,0.0,0.0,0.0,0.0,0.0,0.0,0.0,0.0,0.0,0.0,-0.9978,-1.0696,-1.1321,-1.1327,-1.1569,-1.1709,-1.1709,-1.214,-1.2318,-1.2094,-1.2272,-1.2318,-1.2094,-1.2283,-1.242,-1.242,-1.294,-1.3082,-1.2848,-1.3082,-1.3219,-1.3219,-1.2979,-1.2979,-1.3207,-1.3201,-1.3195,-1.3229,-1.3159,-1.3001,-1.2806,-1.2757,-1.2601,-1.2291,-1.0769,-0.9816,-0.9296,-0.9296,-0.9414,-0.9567,-0.9557,-0.9557,-0.9557,-0.9557,-0.9557,-0.9519,-0.9275,-0.9173,-0.9135,-0.8856,-0.8799,-0.8794,-0.8789,-0.8789,-0.8784,-0.8742,-0.8742,-0.8737,-0.8703,-0.8618,-0.8245,-0.7397,-0.6496,-0.5885,-0.5803,-0.58,-0.58,-0.58,-0.58,0.0,-0.5613,-0.5596,-0.5538,-0.5426,-0.5043,-0.4806,-0.4803,-0.4506,-0.4306,-0.43,-0.43,-0.43,-0.43,-0.43,-0.4243,-0.4094,-0.3815,-0.3385,-0.2803,0.0,0.0,0.0,0.0,0.0,0.0,0.0,0.0,0.0,0.0,0.0,0.0,0.0,0.0,0.0,0.0,0.0,0.0,0.0,0.0,0.0,-1.0975,-1.086,-1.1136,-1.1426,-1.1666,-1.1883,-1.1959,-1.1997,-1.1997,-1.2102,-1.214,-1.2094,-1.214,-1.214,-1.2094,-1.2308,-1.2499,-1.2686,-1.3148,-1.3476,-1.3619,-1.385,-1.3986,-1.3986,-1.3561,-1.3519,-1.3698,-1.3375,-1.3286,-1.3417,-1.339,-1.336,-1.3315,-1.3282,-1.3245,-1.3102,-1.2308,-1.1888,-1.1719,-1.1556,-1.1439,-1.1265,-1.1092,-1.1111,-1.1226,-1.1226,-1.1226,-1.1215,-1.1147,-1.113,-1.1113,-1.1044,-1.1027,-1.0982,-1.0767,-1.0721,-1.0517,-0.977,-0.9576,-0.9425,-0.8818,-0.8656,-0.8576,-0.835,-0.8078,-0.7467,-0.6053,-0.58,-0.58,-0.58,-0.58,-0.5786,-0.5749,-0.5742,-0.5657,-0.548,-0.5259,-0.5008,-0.4812,-0.4597,-0.4387,-0.4306,-0.43,-0.43,-0.43,-0.43,-0.4284,-0.4251,-0.3549,-0.305,0.0,0.0,0.0,0.0,0.0,0.0,0.0,0.0,0.0,0.0,0.0,0.0,0.0,0.0,0.0,0.0,0.0,0.0,0.0,0.0,0.0,0.0,-1.1579,-1.1522,-1.2099,-1.2059,-1.2048,-1.2235,-1.2418,-1.2537,-1.2537,-1.273,-1.2838,-1.2827,-1.2977,-1.3025,-1.3025,-1.326,-1.3442,-1.3593,-1.3976,-1.4254,-1.4402,-1.4436,-1.4473,-1.4473,-1.4058,-1.3927,-1.4063,-1.3772,-1.37,-1.3839,-1.3725,-1.3676,-1.367,-1.3562,-1.3513,-1.3483,0.0,0.0,0.0,0.0,-1.2439,-1.229,-1.21,-1.2129,-1.2252,-1.2252,-1.2252,-1.2228,-1.2119,-1.2083,-1.2024,-1.191,-1.188,-1.1844,-1.1694,-1.1657,-1.1498,-1.0873,-1.0643,-1.0455,-0.9991,-0.9791,-0.9604,-0.9268,-0.9198,0.0,-0.7274,-0.6725,-0.6504,-0.6504,-0.6215,-0.5969,-0.5905,-0.5895,-0.5801,-0.5633,-0.5444,-0.5269,-0.5121,-0.4816,0.0,0.0,0.0,-0.43,-0.43,-0.43,0.0,0.0,0.0,-0.3472,-0.3375,-0.2735,0.0,0.0,-0.1721,-0.1398,0.0,0.0,0.0,0.0,0.0,0.0,0.0,0.0,0.0,0.0,0.0,0.0,0.0,0.0,0.0,0.0,-1.2355,-1.2608,-1.2862,-1.2689,-1.2565,-1.2538,-1.2899,-1.3147,-1.3147,-1.3605,-1.3833,-1.3868,-1.4078,-1.4231,-1.4231,-1.444,0.0,0.0,0.0,-1.4955,-1.5005,-1.4778,-1.4713,-1.4757,-1.4479,-1.4346,-1.434,-1.431,-1.4298,-1.4286,-1.4051,-1.3954,-1.393,-1.3701,-1.3604,-1.3598,-1.3538,-1.3369,-1.3139,-1.2886,-1.2795,-1.2795,-1.2795,0.0,0.0,-1.2753,-1.2729,-1.2662,-1.2427,-1.2361,-1.2312,-1.2077,-1.2011,-1.1964,-1.1934,-1.1968,-1.1956,-1.1926,-1.1706,-1.1537,-1.1537,-1.1321,-1.0935,-1.0224,-1.0051,-0.9803,-0.9079,-0.8241,-0.7638,-0.7638,-0.7026,-0.6475,-0.6221,-0.6166,-0.6077,-0.5867,-0.5676,0.0,-0.5512,-0.5074,-0.4824,-0.4775,-0.4487,-0.4314,-0.43,-0.43,-0.43,-0.43,-0.43,-0.43,-0.4267,-0.4026,-0.3816,-0.3588,-0.1976,-0.1536,0.0,0.0,0.0,0.0,0.0,0.0,0.0,0.0,0.0,0.0,0.0,0.0,0.0,0.0,0.0,-1.2624,-1.299,-1.3292,-1.3386,-1.3459,-1.348,-1.3297,-1.3351,-1.3405,-1.3405,-1.3505,-1.3583,-1.3577,-1.3629,-1.3629,-1.3629,-1.368,-1.3731,-1.3731,-1.3992,-1.4242,-1.4434,-1.4642,-1.4826,-1.5028,-1.4763,0.0,-1.463,-1.4401,-1.4298,-1.4292,-1.4244,-1.422,-1.422,-1.4165,-1.4147,-1.4105,-1.3682,-1.3483,-1.3435,-1.3381,-1.3363,-1.3363,-1.3363,-1.3218,-1.2999,-1.2999,-1.2886,-1.2693,-1.2644,-1.2626,0.0,-1.2566,-1.2554,-1.2506,-1.2294,-1.224,-1.2186,-1.1928,-1.1844,-1.1808,-1.1808,-1.1597,-1.1372,-1.1218,-1.1003,-1.0812,-1.0657,-0.9415,-0.8475,-0.8475,-0.8322,-0.8003,-0.7283,-0.7202,-0.6962,-0.6291,-0.5975,-0.5736,-0.5517,-0.522,-0.4938,-0.4731,-0.4574,-0.4395,-0.4306,-0.43,-0.43,-0.43,-0.43,-0.4233,-0.4061,-0.4005,-0.3895,-0.3758,-0.3074,-0.2776,0.0,0.0,0.0,0.0,0.0,0.0,0.0,0.0,0.0,0.0,0.0,-1.1904,-1.2507,0.0,-1.317,-1.317,-1.3416,-1.3647,-1.3647,-1.3857,-1.3916,-1.368,-1.376,-1.3836,-1.3836,-1.3836,-1.3888,-1.4035,-1.4035,-1.4088,-1.4245,-1.4251,-1.4251,-1.4251,-1.4356,-1.4618,-1.4873,-1.4901,-1.5043,-1.53,-1.5034,-1.4914,-1.4902,-1.463,-1.4509,-1.4497,-1.4358,-1.4298,-1.4298,-1.4298,-1.4298,-1.4268,-1.4008,-1.3827,-1.3694,-1.3562,-1.3513,-1.3513,-1.3513,-1.3429,-1.332,-1.332,-1.3224,-1.3109,-1.3109,-1.3109,-1.3085,-1.2952,-1.2916,-1.285,-1.2578,-1.2506,-1.2475,-1.2343,-1.221,-1.2119,-1.2119,-1.1874,-1.1645,-1.1519,-1.1381,-1.1274,-1.1135,-1.0432,-0.9642,-0.8813,-0.8016,-0.7369,-0.6949,-0.6911,-0.676,-0.6338,-0.618,-0.6034,-0.5924,-0.5544,-0.5112,-0.4731,-0.4629,-0.4542,-0.439,-0.4384,-0.4357,-0.4303,-0.43,-0.4267,-0.4164,-0.4164,-0.4061,-0.3889,-0.3684,-0.3448,0.0,0.0,0.0,0.0,0.0,0.0,0.0,0.0,-1.237,-1.2571,-1.277,-1.3007,-1.3141,-1.3378,-1.3545,-1.3545,-1.3739,-1.389,-1.389,-1.4067,-1.4121,-1.3916,-1.4073,-1.4196,-1.4196,-1.4196,-1.4299,-1.4504,-1.4498,-1.4611,-1.4826,-1.4826,-1.4826,-1.4826,-1.4826,-1.4987,-1.5315,-1.51,-1.5153,-1.5415,-1.5203,-1.5077,-1.5071,-1.4864,-1.4793,-1.4781,-1.4497,-1.4346,-1.4298,-1.4298,-1.425,-1.4256,-1.4298,-1.4124,-1.3866,-1.3697,-1.367,-1.367,-1.367,-1.3634,-1.3592,-1.3592,-1.3556,-1.3513,-1.3513,-1.3513,-1.3471,-1.326,-1.32,-1.3145,-1.2922,-1.2862,-1.285,-1.2795,-1.2626,-1.2457,-1.2403,-1.2186,-1.1892,-1.1682,-1.1561,-1.1423,-1.1194,-1.0998,-1.0475,-0.9339,-0.805,-0.7176,-0.7026,-0.6872,-0.6721,-0.6567,-0.6335,-0.6183,-0.6103,-0.5689,-0.519,-0.4731,-0.4725,-0.4668,-0.4545,-0.4539,-0.4487,-0.4336,-0.4333,-0.4322,-0.43,-0.43,-0.4233,-0.4061,-0.4061,-0.3848,-0.8995,-1.002,-1.091,-1.1119,-1.1315,-1.1699,0.0,0.0,-1.3055,-1.3308,-1.3383,-1.3405,-1.3432,-1.3626,-1.3782,-1.3782,-1.3992,-1.4153,-1.4153,-1.4175,-1.4186,-1.4159,-1.4175,-1.4196,-1.4196,-1.4196,-1.4191,-1.4245,-1.4245,-1.4245,-1.4299,-1.4299,-1.4299,-1.4299,-1.4299,-1.4401,-1.4713,-1.4685,-1.4776,-1.5049,-1.5106,-1.5081,-1.5075,-1.5077,-1.5065,-1.5046,-1.4787,-1.4527,-1.4298,-1.4298,-1.416,-1.3979,-1.4208,-1.4142,-1.3932,-1.413,-1.4208,-1.4208,-1.4208,-1.4057,-1.3863,-1.3863,-1.3707,-1.3513,-1.3513,-1.3513,-1.3507,-1.3477,-1.3471,-1.3465,-1.3435,-1.3423,-1.3363,-1.3133,-1.3011,-1.2964,-1.2711,-1.2451,-1.2264,-1.2234,-1.1814,-1.1483,-1.1453,-1.0673,-1.0218,-1.0738,-1.0694,-1.0282,-0.9576,-0.8856,-0.8169,-0.7446,-0.6518,-0.5786,-0.5437,-0.5196,-0.4983,-0.4785,-0.4777,-0.476,-0.4673,-0.4668,-0.461,-0.4487,-0.4487,-0.4435,-0.43,-0.43,-0.43,-0.4267,-0.4267,-0.409,-1.0028,-1.0872,-1.1545,-1.1836,-1.2105,-1.2448,-1.3052,-1.3254,-1.3351,-1.3453,-1.3583,-1.368,-1.368,-1.3873,-1.404,0.0,-1.4126,-1.4196,-1.4196,-1.4196,-1.4196,-1.4196,-1.4196,-1.4196,-1.4196,-1.4196,-1.4196,-1.4196,-1.4196,-1.4196,-1.4196,-1.4196,-1.4196,-1.4196,-1.4196,-1.4353,-1.4606,-1.4606,-1.4713,-1.4987,-1.5033,-1.5035,-1.5029,-1.5087,-1.5098,-1.5101,-1.4992,-1.4877,-1.4757,-1.4606,-1.4448,-1.4338,-1.4316,-1.416,-1.3931,-1.4208,-1.4298,-1.4298,-1.4298,-1.4226,-1.4135,-1.4135,-1.4057,-1.3972,-1.3972,-1.3972,-1.3936,-1.3785,-1.3743,-1.3707,-1.3556,-1.3513,-1.3489,-1.3381,-1.335,-1.332,-1.32,-1.297,-1.2735,-1.2572,-1.224,-1.1938,-1.1748,-1.1347,-1.1146,-1.13,-1.042,-0.9571,-0.9236,-0.8894,-0.8508,-0.8084,-0.7621,-0.7199,-0.678,-0.6668,-0.6563,-0.6377,-0.6373,-0.6341,-0.6229,-0.6222,-0.6147,-0.6018,-0.6018,-0.5943,-0.5759,-0.5318,-0.5036,-0.4888,-0.4888,-0.4818,-1.1005,-1.1658,-1.2092,-1.2345,-1.2628,-1.3029,-1.3504,-1.3572,-1.3593,-1.3663,-1.3809,-1.3922,-1.3922,-1.4073,-1.4196,-1.4196,-1.4196,-1.4196,-1.4196,-1.4196,-1.4196,-1.4196,-1.4196,-1.4196,-1.4196,-1.4196,-1.4196,-1.4196,-1.4196,-1.4196,-1.4196,-1.4196,-1.4196,-1.4196,-1.4196,-1.4293,-1.4504,-1.4504,-1.4611,-1.4773,-1.4826,-1.4874,-1.4869,-1.5006,-1.5093,-1.5113,-1.5113,-1.5122,-1.5089,-1.4902,-1.4773,-1.47,-1.4551,-1.4333,-1.4037,-1.4316,-1.4316,-1.4208,-1.425,-1.4298,-1.4298,-1.4298,-1.4298,-1.4298,-1.4298,-1.4298,-1.4256,-1.4063,-1.4014,-1.3972,-1.3779,-1.3731,-1.3713,-1.364,-1.3622,-1.3604,-1.3532,-1.3363,-1.3169,-1.2964,-1.2656,-1.2361,-1.2168,-1.2017,-1.182,-1.1627,-1.0456,-0.9525,-0.9397,-0.9155,-0.8851,-0.8385,-0.8304,-0.8152,-0.774,-0.7702,-0.7659,-0.7502,-0.7502,-0.7445,-0.736,-0.7356,-0.7306,-0.7161,-0.7157,-0.7066,-0.6887,-0.6333,-0.5967,-0.5707,-0.5707,-0.5682,-1.2189,-1.277,-1.331,-1.274,-1.3054,-1.3534,-1.376,-1.3809,-1.3879,-1.4121,-1.4175,-1.4186,-1.4186,-1.4186,-1.4196,-1.4196,-1.4196,-1.4196,-1.4196,-1.4196,-1.4196,-1.4196,-1.4196,-1.4196,0.0,-1.4196,-1.4196,-1.4196,-1.4196,-1.4196,-1.4196,-1.4196,-1.4196,-1.4196,-1.4196,-1.4196,-1.4191,-1.4191,-1.4191,-1.425,-1.4504,-1.4606,-1.46,-1.4869,-1.5046,-1.5117,-1.5117,-1.5078,-1.5107,-1.5101,-1.4943,-1.4734,-1.4981,-1.4775,-1.4301,-1.4604,-1.4344,-1.3931,-1.4208,-1.4298,-1.4298,-1.4298,-1.4298,-1.4298,-1.4298,-1.4298,-1.4292,-1.4286,-1.4286,-1.4286,-1.4274,-1.4274,-1.4208,-1.3954,-1.3894,-1.3827,-1.3568,-1.3507,-1.3501,-1.3495,-1.3055,-1.2693,-1.2681,-1.2258,-1.192,-1.1874,-1.1822,-1.163,-1.1103,-1.0368,-0.942,-0.8232,-0.8118,-0.7965,-0.754,-0.7502,-0.7502,-0.7502,-0.7502,-0.7498,-0.7494,-0.7494,-0.745,-0.7278,-0.7311,-0.722,-0.7105,-0.707,-0.6948,-0.674,-0.674,-0.6604,-1.2908,-1.3111,-1.3179,-1.3388,-1.3667,-1.3976,-1.4051,-1.4067,-1.4094,-1.4175,-1.4196,-1.4196,-1.4196,-1.4196,-1.4196,-1.4196,-1.4196,-1.4196,-1.4196,-1.4196,-1.4196,-1.4196,-1.4196,0.0,0.0,0.0,0.0,-1.4196,-1.4196,-1.4196,-1.4196,-1.4196,-1.4196,-1.4196,-1.4196,-1.4196,-1.4196,-1.4196,-1.4196,-1.4196,-1.4293,-1.445,-1.4606,-1.4713,-1.4829,-1.5016,-1.5016,-1.5188,-1.5363,-1.5179,-1.5051,-1.4981,-1.5071,-1.4794,-1.4358,-1.4823,-1.4719,-1.4389,-1.414,-1.4022,-1.4022,-1.4022,-1.416,-1.4298,-1.4298,-1.4298,-1.4298,-1.4298,-1.4298,-1.4298,-1.4298,-1.4298,-1.4274,-1.4183,-1.4165,-1.4141,-1.4051,-1.3894,-1.3773,-1.3773,-1.3489,-1.3242,-1.3242,-1.3097,-1.2856,-1.2493,-1.1878,-1.1405,-1.1375,-1.0854,-1.0288,-0.9755,-0.9679,-0.9528,-0.9112,-0.9074,-0.9074,-0.9074,-0.9074,-0.9074,-0.9074,-0.9074,-0.9077,-0.9008,-0.9008,-0.8941,-0.8763,-0.8283,-0.7924,-0.7731,-0.7731,-0.7695,-1.3194,-1.3351,-1.347,-1.3577,-1.3912,-1.4196,-1.4196,-1.4196,-1.4196,-1.4196,-1.4196,-1.4196,-1.4196,-1.4196,-1.4196,-1.4196,-1.4196,-1.4196,-1.4196,-1.4196,-1.4196,-1.4196,-1.4196,-1.4196,0.0,0.0,0.0,-1.4196,-1.4196,-1.4196,-1.4196,-1.4196,-1.4196,-1.4196,-1.4196,-1.4196,-1.4196,-1.4196,-1.4196,-1.4196,-1.4196,-1.4293,-1.445,-1.445,-1.4611,-1.4874,-1.4874,-1.5041,-1.5303,-1.5129,-1.5053,-1.5094,-1.5197,-1.4918,-1.447,-1.4932,-1.4879,-1.4529,-1.4262,-1.4169,-1.4152,-1.4051,-1.416,-1.4298,-1.4298,-1.4298,-1.4298,-1.4298,-1.4298,-1.4298,-1.4298,-1.4298,-1.4298,-1.4298,-1.4298,-1.4298,-1.4298,-1.4165,-1.4045,-1.4045,-1.3833,-1.3652,-1.3652,-1.3574,-1.3393,-1.3049,-1.2147,-1.1524,-1.154,-1.1201,-1.0883,-1.0656,-1.05,-1.0293,-1.003,-0.996,-0.9884,-0.9884,-0.9884,-0.9884,-0.9884,-0.9884,-0.9884,-0.9884,-0.9884,-0.9846,-0.9701,-0.9247,-0.891,-0.8699,-0.8699,-0.8654,-1.3198,-1.3581,-1.4029,-1.3483,-1.3753,-1.4196,-1.4196,-1.4196,-1.4196,-1.4196,-1.4196,-1.4196,-1.4196,0.0,-1.4196,-1.4196,-1.4196,-1.4196,-1.4196,-1.4196,-1.4196,0.0,0.0,0.0,0.0,0.0,0.0,-1.4196,-1.4196,-1.4196,-1.4196,-1.4196,-1.4196,-1.4196,-1.4196,-1.4196,-1.4196,-1.4196,-1.4196,-1.4196,-1.4196,-1.4196,-1.4196,-1.4196,-1.4347,-1.4606,-1.4606,-1.4713,-1.4987,-1.4982,-1.4982,-1.5035,-1.5369,-1.5117,-1.4635,-1.4995,-1.478,-1.4389,-1.4642,-1.4695,-1.4641,-1.4358,-1.4268,-1.4316,-1.4298,-1.4298,-1.4298,-1.4298,-1.4298,-1.4298,-1.4298,-1.4298,-1.4298,-1.4298,-1.4298,-1.4298,-1.4298,-1.4298,-1.4298,-1.4298,-1.4093,-1.3924,-1.3924,-1.3707,-1.3538,-1.3538,-1.2733,-1.201,-1.1705,-1.1366,-1.1124,-1.093,-1.0505,-1.024,-1.0202,-1.0003,-0.9884,-0.9884,-0.9884,-0.9884,-0.9884,-0.9884,-0.9884,-0.9884,-0.9884,-0.9884,-0.9884,-0.9884,-0.9809,-0.963,-0.963,-0.947,-1.3671,-1.3706,-1.3591,-1.3921,-1.4088,-1.4196,-1.4196,-1.4196,-1.4196,-1.4196,-1.4196,-1.4196,-1.4196,-1.4196,0.0,-1.4196,-1.4196,0.0,-1.4196,-1.4196,0.0,-1.4196,0.0,-1.4196,-1.4196,-1.4196,0.0,0.0,-1.4196,-1.4196,-1.4196,-1.4196,-1.4196,-1.4196,-1.4196,-1.4196,-1.4196,-1.4196,-1.4196,-1.4196,-1.4196,-1.4196,-1.4196,-1.4196,-1.4245,-1.4299,-1.4299,-1.4563,-1.4982,-1.4767,-1.4821,-1.4987,-1.5095,-1.4894,-1.4672,-1.5216,-1.5282,-1.5188,-1.5028,-1.4861,-1.4604,-1.4141,-1.4158,-1.427,-1.4081,-1.4022,-1.4022,-1.4022,-1.416,-1.425,-1.407,-1.416,-1.4298,-1.4298,-1.4298,-1.4298,-1.4298,-1.4298,-1.4298,-1.4298,-1.4244,-1.4195,-1.4195,-1.3978,-1.3803,-1.3803,-1.3247,-1.2756,-1.2451,-1.1572,-1.1027,-1.1187,-1.0768,-1.0429,-1.0274,-1.0024,-0.9884,-0.9884,-0.9884,-0.9884,-0.9884,-0.9884,-0.9884,-0.9884,-0.9884,-0.9884,-0.9884,-0.9884,-0.989,-0.983,-0.983,-0.9798,-1.3668,-1.3753,-1.3753,-1.4137,-1.4196,-1.4196,-1.4196,-1.4196,-1.4196,-1.4196,-1.4196,0.0,-1.4196,-1.4196,-1.4196,0.0,0.0,0.0,-1.4196,-1.4196,-1.4196,0.0,-1.4283,0.0,-1.4347,-1.4439,-1.4498,0.0,-1.4309,-1.4196,-1.4196,-1.4196,-1.4196,-1.4196,-1.4196,-1.4196,-1.4196,-1.4196,-1.4196,-1.4196,-1.4196,-1.4196,-1.4196,-1.4196,-1.4196,-1.4196,-1.4196,-1.4353,-1.4617,-1.4504,-1.4509,-1.4671,-1.4773,-1.4659,-1.4504,-1.4939,-1.5101,-1.5078,-1.4929,-1.4838,-1.4763,-1.4398,-1.4427,-1.4586,-1.4178,-1.415,-1.4175,-1.3966,-1.4027,-1.4112,-1.407,-1.4118,-1.4112,-1.4112,-1.4112,-1.4112,-1.4112,-1.4016,-1.3968,-1.4112,-1.4112,-1.416,-1.4298,-1.4177,-1.4033,-1.3897,-1.3479,-1.3066,-1.2909,-1.1901,-1.1283,-1.1408,-1.0926,-1.0597,-1.0563,-1.0354,-1.0152,-1.0089,-1.0083,-1.0035,-0.9889,-0.9884,-0.9884,-0.9884,-0.9884,-0.9884,-0.9884,-0.9884,-0.9884,-0.9884,-0.9884,-0.9884,-1.3428,-1.3753,-1.4196,-1.4196,-1.4196,-1.4196,-1.4196,-1.4196,-1.4196,-1.4196,0.0,-1.4196,-1.4196,-1.4196,-1.4196,-1.4196,0.0,-1.4196,-1.4196,-1.4196,-1.4196,-1.4196,-1.4396,-1.448,-1.448,-1.4745,-1.4885,-1.4885,-1.4514,-1.4288,-1.4288,-1.4256,-1.4223,-1.4196,-1.4196,-1.4196,-1.4196,-1.4196,-1.4196,-1.4196,-1.4196,-1.4196,-1.4196,-1.4196,-1.4196,-1.4196,-1.4196,-1.4191,-1.4245,-1.4191,-1.4191,-1.4245,-1.445,-1.4401,-1.4245,-1.4504,-1.4606,-1.4606,-1.4606,-1.4767,-1.4961,-1.4751,-1.4855,-1.4961,-1.4492,-1.4491,-1.4518,-1.4043,-1.3864,-1.3883,-1.4106,-1.4022,-1.3883,-1.3883,-1.3883,-1.3883,-1.3835,-1.3642,-1.3588,-1.3786,-1.3883,-1.3979,-1.416,-1.425,-1.4208,-1.3931,-1.3512,-1.3198,-1.3098,-1.2333,-1.175,-1.1701,-1.1098,-1.077,-1.0933,-1.0751,-1.0512,-1.0353,-1.0342,-1.0229,-0.9981,-0.997,-0.9954,-0.9922,-0.9884,-0.9884,-0.9884,-0.9884,-0.9884,-0.9884,-0.9884,-0.9884,-1.3315,-1.3753,-1.4196,-1.4196,-1.4196,-1.4196,-1.4196,-1.4196,0.0,0.0,-1.4196,-1.4196,-1.4196,-1.4196,-1.4196,-1.4196,-1.4196,-1.4196,-1.4196,-1.4196,-1.4196,0.0,-1.4396,-1.448,-1.448,-1.4745,0.0,0.0,-1.481,-1.4762,-1.4762,-1.4579,-1.439,-1.4202,-1.4196,-1.4196,-1.4196,-1.4196,-1.4196,-1.4196,-1.4196,-1.4196,-1.4196,-1.4196,-1.4196,-1.4196,-1.4196,-1.4353,-1.4498,-1.4293,-1.4347,-1.4498,-1.4347,-1.4245,-1.4245,-1.4504,-1.4606,-1.4606,-1.4606,-1.4767,-1.499,-1.4757,-1.4711,-1.4769,-1.4661,-1.4327,-1.4004,-1.3909,-1.3748,-1.3539,-1.334,-1.3588,-1.3835,-1.3636,-1.3738,-1.3835,-1.3636,-1.3539,-1.3491,-1.3539,-1.3738,-1.3835,-1.3684,-1.4016,-1.4208,-1.3931,-1.3512,-1.3198,-1.3198,-1.2492,-1.2111,-1.2242,-1.1592,-1.1182,-1.1225,-1.0823,-1.0576,-1.0538,-1.0533,-1.0431,-1.0239,-1.0229,-1.0132,-0.9922,-0.9884,-0.9884,-0.9884,-0.9884,-0.9884,-0.9884,-0.9884,-0.9884,-1.2659,-1.3266,-1.4137,-1.3813,-1.3975,-1.4196,-1.4196,0.0,0.0,0.0,-1.4196,-1.4196,-1.4196,-1.4196,0.0,-1.4196,-1.4196,-1.4196,-1.4196,-1.4196,0.0,-1.4196,0.0,-1.4713,0.0,-1.5042,-1.5257,-1.5257,-1.5257,-1.5149,-1.4896,-1.4665,-1.4428,-1.4202,-1.4196,-1.4196,-1.4196,-1.4196,-1.4196,-1.4196,-1.4196,-1.4196,-1.4196,-1.4196,-1.4196,-1.4196,-1.4196,-1.4245,-1.4401,-1.4245,-1.4299,-1.4401,-1.4245,-1.4196,-1.4191,-1.4347,-1.4396,-1.4396,-1.4396,-1.4455,-1.4595,-1.4632,-1.4758,-1.4818,-1.4723,-1.4504,-1.4225,-1.4139,-1.3823,-1.3483,-1.3532,-1.349,-1.3443,-1.334,-1.3394,-1.3443,-1.3201,-1.3201,-1.3292,-1.3292,-1.3394,-1.3491,-1.3491,-1.3727,-1.3782,-1.3368,-1.3148,-1.2877,-1.265,-1.2303,-1.214,-1.2232,-1.1781,-1.1532,-1.1532,-1.1278,-1.1079,-1.0832,-1.0816,-1.0713,-1.0482,-1.0471,-1.0417,-1.0254,-1.0175,-1.0116,-1.0116,-0.9981,-0.9884,-0.9884,-0.9884,-0.9884,-1.2332,-1.2935,-1.3921,-1.3591,-1.3753,-1.4029,-1.4196,-1.4196,0.0,-1.4196,-1.4196,-1.4196,-1.4196,-1.4196,-1.4196,0.0,-1.4196,-1.4196,-1.4196,-1.4196,-1.4196,0.0,0.0,0.0,-1.4885,-1.5316,0.0,-1.5601,-1.5601,-1.5413,-1.4988,-1.4735,-1.4503,-1.4272,-1.4218,-1.4196,-1.4196,-1.4196,-1.4196,-1.4196,-1.4196,-1.4196,-1.4196,-1.4196,-1.4196,-1.4196,-1.4196,-1.4196,-1.4196,-1.4196,-1.4196,-1.4196,-1.4196,-1.4196,-1.4196,-1.4196,-1.4196,-1.4196,-1.4196,-1.4196,-1.4245,-1.445,-1.4713,-1.4894,-1.4813,-1.4663,-1.452,-1.4316,-1.3931,-1.3524,-1.3673,-1.3467,-1.3159,-1.3109,-1.305,-1.3007,-1.2813,-1.291,-1.305,-1.305,-1.305,-1.3147,-1.3298,-1.3443,-1.338,-1.2945,-1.2781,-1.2595,-1.2208,-1.2053,-1.1964,-1.2013,-1.1811,-1.1698,-1.1698,-1.1698,-1.1515,-1.109,-1.1112,-1.1009,-1.0683,-1.0672,-1.0646,-1.0597,-1.046,-1.0369,-1.0369,-1.0169,-1.0051,-1.0003,-1.0003,-0.997,-1.3207,-1.3261,-1.3483,-1.3975,-1.3753,-1.3537,-1.4083,0.0,-1.4196,-1.4196,-1.4196,-1.4196,-1.4196,-1.4196,-1.4196,0.0,0.0,-1.4196,-1.4196,-1.4196,-1.4196,0.0,0.0,0.0,-1.4885,-1.5316,-1.5601,-1.5601,-1.5601,-1.5488,-1.5172,-1.4982,-1.4745,-1.4459,-1.4304,-1.4196,-1.4196,-1.4196,-1.4196,-1.4196,-1.4196,-1.4196,-1.4196,-1.4196,-1.4196,-1.4196,-1.4196,-1.4196,-1.4196,-1.4196,-1.4196,-1.4196,-1.4196,-1.4196,-1.4196,-1.4196,-1.4196,-1.4196,-1.4196,-1.4196,-1.4196,-1.425,-1.4401,-1.4654,-1.4905,-1.4688,-1.4298,-1.4328,-1.3885,-1.3445,-1.3213,-1.3342,-1.3419,-1.3148,-1.2958,-1.2813,-1.2813,-1.2813,-1.2813,-1.2813,-1.3001,-1.305,-1.291,-1.3201,-1.3389,-1.3119,-1.2731,-1.2437,-1.2369,-1.181,-1.145,-1.1709,-1.1709,-1.1698,-1.1698,-1.1698,-1.1591,-1.1289,-1.1515,-1.1429,-1.0972,-1.095,-1.0853,-1.0597,-1.0576,-1.0565,-1.0565,-1.0538,-1.042,-1.0261,-1.0261,-1.0137,-1.255,-1.2767,-1.3261,-1.3152,-1.3207,-1.3369,-1.3591,0.0,-1.4196,-1.4196,-1.4196,-1.4196,-1.4196,-1.4196,-1.4083,0.0,0.0,0.0,-1.3699,-1.3975,-1.4196,-1.4196,-1.46,0.0,0.0,0.0,-1.5601,-1.5601,-1.5601,-1.5558,-1.5467,-1.5235,-1.4872,-1.4491,-1.4449,-1.4331,-1.4196,-1.4196,-1.4196,-1.4196,-1.4196,-1.4196,-1.4196,-1.4196,-1.4196,-1.4196,-1.4196,-1.4196,-1.4196,-1.4196,-1.4196,-1.4196,-1.4196,-1.4196,-1.4196,-1.4196,-1.4196,-1.4196,-1.4196,-1.4196,-1.4196,-1.4196,-1.4245,-1.4401,-1.4659,-1.4545,-1.4265,-1.4414,-1.4079,-1.3658,-1.3561,-1.3375,-1.3199,-1.2964,-1.2861,-1.2813,-1.2813,-1.2813,-1.2813,-1.2813,-1.2861,-1.291,-1.2813,-1.2958,-1.3006,-1.2719,-1.2529,-1.23,-1.2012,-1.1721,-1.1498,-1.145,-1.1612,-1.1698,-1.1698,-1.1698,-1.1661,-1.1564,-1.1645,-1.1677,-1.1667,-1.1667,-1.1624,-1.1488,-1.1348,-1.1278,-1.1278,-1.1091,-1.0978,-1.0887,-1.0887,-1.0799,-1.2609,-1.2604,-1.2767,-1.2713,-1.2822,-1.3098,0.0,0.0,-1.3975,-1.4142,-1.4083,-1.3975,-1.4196,-1.4029,-1.3807,-1.3369,0.0,-1.3807,-1.3369,-1.3807,-1.4196,0.0,0.0,-1.4885,-1.4885,-1.5316,-1.5601,-1.5601,-1.5601,-1.5601,-1.5601,-1.544,-1.5076,-1.4654,-1.4512,-1.4422,-1.4196,-1.4196,-1.4196,-1.4196,-1.4196,-1.4196,-1.4196,-1.4196,-1.4196,-1.4196,-1.4196,-1.4196,-1.4196,-1.4196,-1.4196,-1.4196,-1.4196,-1.4196,-1.4196,-1.4196,-1.4196,-1.4196,-1.4196,-1.4196,-1.4196,-1.4196,-1.4196,-1.4245,-1.4396,-1.4347,-1.4245,-1.445,-1.4162,-1.382,-1.382,-1.3464,-1.3066,-1.2904,-1.2862,-1.2813,-1.2813,-1.2813,-1.2813,-1.2813,-1.2813,-1.2813,-1.2813,-1.2813,-1.2759,-1.2544,-1.2457,-1.2291,-1.1951,-1.1849,-1.1715,-1.1434,-1.1602,-1.1671,-1.1602,-1.1661,-1.1671,-1.1602,-1.1725,-1.1889,-1.1986,-1.2056,-1.2094,-1.2094,-1.1932,-1.1801,-1.1801,-1.1639,-1.1477,-1.1407,-1.1407,-1.1284,-1.3867,-1.2935,-1.1896,-1.2989,-1.2822,-1.255,0.0,0.0,-1.3483,-1.4083,-1.3759,-1.3483,-1.4083,-1.3699,-1.3315,-1.3315,-1.3315,0.0,-1.3315,-1.3807,-1.4196,0.0,-1.46,-1.4885,-1.4885,-1.5316,-1.5601,-1.5601,-1.5601,-1.5601,-1.5601,-1.5596,-1.5375,-1.4896,-1.4659,-1.4422,-1.4196,-1.4196,-1.4196,-1.4196,-1.4196,-1.4196,-1.4196,-1.4196,-1.4196,-1.4196,-1.4196,-1.4196,-1.4196,-1.4196,-1.4196,-1.4196,-1.4196,-1.4196,-1.4196,-1.4196,-1.4196,-1.4196,-1.4196,-1.4196,-1.4196,-1.4196,-1.4196,-1.4196,-1.4196,-1.4196,-1.4196,-1.4196,-1.4013,-1.382,-1.382,-1.3464,-1.3104,-1.3104,-1.2926,-1.2813,-1.2813,-1.2813,-1.2813,-1.2813,-1.2813,-1.2813,-1.2813,-1.2813,-1.2813,-1.2807,-1.2565,-1.2414,-1.2409,-1.224,-1.2002,-1.172,-1.1698,-1.1607,-1.1332,-1.1564,-1.1602,-1.1327,-1.179,-1.1986,-1.1715,-1.197,-1.2094,-1.2094,-1.2089,-1.2089,-1.2089,-1.2089,-1.197,-1.1698,-1.1698,-1.1569,-1.2663,-1.2278,-1.2219,-1.2604,-1.255,-1.255,-1.3152,-1.3315,-1.3369,-1.3537,-1.3423,-1.3207,-1.2985,-1.3152,-1.3044,-1.2278,-1.2772,0.0,0.0,0.0,0.0,-1.3645,-1.4378,-1.5015,-1.5343,-1.551,-1.5601,-1.5601,-1.5601,-1.5601,-1.5601,-1.5601,-1.5381,-1.4896,-1.481,-1.4589,-1.4196,-1.4196,-1.4196,-1.4196,-1.4196,-1.4196,-1.4196,-1.4196,-1.4196,-1.4196,-1.4196,-1.4196,-1.4196,-1.4196,-1.4196,-1.4196,-1.4196,-1.4196,-1.4196,-1.4196,-1.4196,-1.4196,-1.4196,-1.4196,-1.4196,-1.4196,-1.4196,-1.4196,-1.4196,-1.4196,-1.4196,-1.4196,-1.4137,-1.4035,-1.3863,-1.3706,-1.3513,-1.3179,-1.305,-1.2953,-1.2845,-1.2813,-1.2813,-1.2813,-1.2813,-1.2813,-1.2813,-1.2813,-1.2813,-1.2813,-1.2748,-1.2597,-1.2436,-1.2344,-1.2204,-1.2008,-1.1981,-1.1779,-1.1343,-1.1375,-1.1455,-1.1585,-1.1921,-1.2137,-1.2183,-1.2462,-1.2586,-1.2586,-1.2586,-1.2586,-1.2586,-1.2586,-1.2548,-1.2472,-1.2264,-1.2059,0.0,-1.2169,-1.2169,-1.2327,-1.2278,0.0,0.0,-1.2659,-1.2718,-1.2935,-1.2827,-1.2604,-1.2436,-1.255,-1.2441,-1.1732,-1.2223,-1.2387,0.0,0.0,-1.3767,-1.3548,-1.4316,-1.4902,-1.4896,-1.5299,-1.5477,-1.5235,-1.5477,-1.5601,-1.5601,-1.5601,-1.5418,-1.5036,-1.4934,-1.4702,-1.4326,-1.4239,-1.4196,-1.4196,-1.4196,-1.4196,-1.4196,-1.4196,-1.4196,-1.4196,-1.4196,-1.4196,0.0,-1.4196,-1.4196,-1.4196,-1.4196,-1.4196,-1.4196,-1.4196,-1.4196,-1.4196,-1.4196,-1.4196,-1.4196,-1.4196,-1.4196,-1.4196,-1.4196,-1.4196,-1.4196,-1.4196,-1.4196,-1.4159,-1.4003,-1.389,-1.3744,-1.3443,-1.3238,-1.3066,-1.292,-1.2872,-1.2813,-1.2813,-1.2813,-1.2813,-1.2813,-1.2813,-1.2813,-1.2813,-1.2813,-1.2759,-1.2565,-1.2544,-1.2452,-1.2256,-1.2235,-1.2032,-1.1645,-1.1488,-1.1585,-1.1817,-1.2013,-1.2202,-1.2404,-1.2641,-1.2813,-1.2813,-1.2813,-1.2813,-1.2813,-1.2813,-1.2813,-1.2807,-1.2614,-1.2463,0.0,-1.2387,-1.1732,-1.2273,0.0,0.0,0.0,0.0,0.0,-1.2223,-1.1951,-1.1732,-1.2223,-1.1896,-1.1568,-1.1514,-1.1568,-1.1568,-1.1514,-1.251,-1.3332,-1.3813,-1.4391,-1.451,-1.377,-1.4764,-1.524,-1.457,-1.5175,-1.5537,-1.5537,-1.5601,-1.544,-1.5162,-1.4963,-1.4716,-1.448,-1.4309,-1.4196,-1.4196,-1.4196,-1.4196,-1.4196,-1.4196,-1.4196,-1.4196,-1.4196,-1.4196,-1.4196,-1.4196,-1.4196,-1.4196,-1.4196,-1.4196,-1.4196,-1.4196,-1.4196,-1.4196,-1.4196,-1.4196,-1.4196,-1.4196,-1.4196,-1.4196,-1.4196,-1.4196,-1.4196,-1.4196,-1.4196,-1.4196,-1.4196,-1.4024,-1.3841,-1.382,-1.348,-1.3147,-1.3114,-1.2937,-1.2835,-1.2813,-1.2813,-1.2813,-1.2813,-1.2813,-1.2813,-1.2813,-1.2813,-1.2813,-1.2813,-1.2813,-1.2678,-1.2463,-1.2441,-1.235,-1.2164,-1.191,-1.1817,-1.2078,-1.211,-1.2224,-1.2404,-1.2641,-1.2813,-1.2813,-1.2813,-1.2813,-1.2813,-1.2813,-1.2813,-1.2813,-1.2813,-1.2813,-1.1951,0.0,-1.1732,-1.2273,-1.2005,-1.1732,0.0,0.0,0.0,0.0,0.0,-1.1514,-1.1181,-1.135,-1.1459,-1.0966,-1.1295,-1.1459,-1.0966,-1.164,-1.2445,-1.3207,-1.3543,-1.3688,-1.3725,-1.3988,-1.4107,-1.3923,-1.4515,-1.4808,-1.4808,-1.5299,-1.5332,-1.4736,-1.4405,-1.4312,-1.448,-1.4309,-1.4196,-1.4196,-1.4196,-1.4196,-1.4196,-1.4196,-1.4196,-1.4196,-1.4196,-1.4196,-1.4196,-1.4196,-1.4196,-1.4196,-1.4196,-1.4196,-1.4196,-1.4196,-1.4196,-1.4196,-1.4196,-1.4196,-1.4196,-1.4196,-1.4196,-1.4196,-1.4196,-1.4196,-1.4196,-1.4196,-1.4196,-1.4196,-1.4196,-1.4153,-1.4056,-1.3868,-1.3733,-1.355,-1.3184,-1.306,-1.2974,-1.2845,-1.2813,-1.2813,-1.2813,-1.2813,-1.2813,-1.2813,-1.2813,-1.2813,-1.2813,-1.2813,-1.2791,-1.2689,-1.2732,-1.271,-1.2645,-1.2256,-1.2035,-1.2089,-1.2226,-1.2355,-1.2414,-1.2641,-1.2813,-1.2813,-1.2813,-1.2813,-1.2813,-1.2813,-1.2813,-1.2813,-1.2813,-1.2813,-1.1514,-1.1623,-1.1678,-1.1951,-1.1623,-1.124,-1.1564,0.0,0.0,0.0,0.0,-1.1076,-1.0747,-1.0966,-1.1076,-1.0747,-1.0966,-1.1185,-1.1131,-1.1518,-1.1989,-1.258,-1.3008,-1.3153,-1.2831,-1.3329,-1.3569,-1.3264,-1.3858,-1.4217,-1.4217,-1.452,-1.458,-1.4217,-1.3799,-1.3798,-1.4193,-1.3641,-1.3645,-1.4196,-1.3921,-1.3921,-1.4196,-1.4196,-1.4196,-1.4196,-1.4196,-1.4196,-1.4196,-1.4196,-1.4196,-1.4196,-1.4196,-1.4196,-1.4196,-1.4196,-1.4196,-1.4196,-1.4196,-1.4196,-1.4196,-1.4196,-1.4196,-1.4196,-1.4196,-1.4196,-1.4196,-1.4196,-1.4196,-1.4196,-1.4196,-1.4196,-1.4159,-1.4024,-1.3906,-1.375,-1.3486,-1.326,-1.3066,-1.2947,-1.2883,-1.2845,-1.2904,-1.292,-1.2958,-1.3126,-1.3143,-1.3143,-1.3143,-1.299,-1.292,-1.292,-1.2872,-1.2813,-1.2813,-1.2575,-1.2424,-1.2424,-1.2398,-1.2463,-1.2571,-1.2694,-1.2813,-1.2813,-1.2813,-1.2813,-1.2813,-1.2813,-1.2813,-1.2813,-1.2813,-1.2813,-1.1295,-1.1459,-1.1459,-1.1568,-1.1131,-1.0692,-1.0692,0.0,0.0,0.0,0.0,-1.0692,-1.0692,-1.0692,-1.0692,-1.0692,-1.0692,-1.0869,-1.1448,-1.1616,-1.1807,-1.1993,-1.2646,-1.2721,-1.1881,-1.2793,-1.3149,-1.2603,-1.3144,-1.3569,-1.3569,-1.3629,-1.3614,-1.3522,-1.3152,-1.3165,-1.3591,-1.28,-1.2935,-1.3921,-1.3483,-1.3591,-1.4083,-1.4142,-1.4196,-1.4196,-1.4196,-1.4196,-1.4196,-1.4196,-1.4196,-1.4196,-1.4196,-1.4196,-1.4196,-1.4196,-1.4196,-1.4196,-1.4196,-1.4196,-1.4196,-1.4196,-1.4196,-1.4196,-1.4196,-1.4196,-1.4196,-1.4196,-1.4196,-1.4196,-1.4196,-1.4196,-1.4196,-1.4196,-1.4035,-1.3868,-1.383,-1.3497,-1.3206,-1.3168,-1.3007,-1.2986,-1.3125,-1.3163,-1.3233,-1.3448,-1.348,-1.348,-1.348,-1.3292,-1.3163,-1.3163,-1.299,-1.2921,-1.2921,-1.2921,-1.2905,-1.2867,-1.2597,-1.2554,-1.2802,-1.2813,-1.2813,-1.2813,-1.2813,-1.2813,-1.2813,-1.2813,-1.2813,-1.2813,-1.2813,-1.2813,-1.0802,-1.0857,-1.0966,-1.1459,-1.1131,-1.0692,-1.0692,0.0,0.0,0.0,0.0,0.0,0.0,-1.0692,-1.0692,-1.0692,-1.0692,-1.08,-1.1071,-1.1187,-1.1364,-1.1552,-1.1856,-1.1985,-1.1833,-1.1957,-1.2074,-1.1953,-1.2487,-1.284,-1.284,-1.3384,-1.337,-1.2731,-1.2441,-1.2297,-1.2131,-1.2284,-1.2495,-1.2659,-1.3098,-1.3369,-1.3483,-1.3975,-1.4196,-1.4196,-1.4196,-1.4196,-1.4196,-1.4196,-1.4196,-1.4196,-1.4196,-1.4196,-1.4196,-1.4196,-1.4196,-1.4196,-1.4196,-1.4196,-1.4196,-1.4196,-1.4196,-1.4196,-1.4196,-1.4196,-1.4196,-1.4196,-1.4196,-1.4196,-1.4196,-1.4196,-1.4196,-1.4196,-1.4164,-1.4078,-1.3868,-1.376,-1.3653,-1.3459,-1.3394,-1.3383,-1.3416,-1.3421,-1.3437,-1.3475,-1.348,-1.348,-1.348,-1.3443,-1.3421,-1.3421,-1.3389,-1.3367,-1.3367,-1.3367,-1.3276,-1.3066,-1.2834,-1.2775,-1.2807,-1.2813,-1.2813,-1.2813,-1.2813,-1.2813,-1.2813,-1.2813,-1.2813,-1.2813,-1.2813,-1.2813,-1.0692,-1.0692,-1.0747,-1.1021,-1.0911,-1.0692,-1.0692,0.0,0.0,0.0,0.0,0.0,0.0,-1.0692,-1.0692,-1.0692,-1.0692,-1.0757,-1.0944,-1.1114,-1.1289,-1.148,-1.1663,-1.1776,-1.1776,-1.1776,-1.1776,-1.1776,-1.207,-1.2191,-1.2191,-1.2492,-1.2465,-1.1976,-1.1786,-1.16,-1.1362,-1.1444,-1.1782,-1.2387,-1.2387,-1.255,-1.2822,-1.3098,-1.3207,-1.3207,-1.3207,-1.3428,-1.3699,-1.3699,-1.3921,-1.4196,-1.4196,-1.4196,-1.4196,-1.4196,-1.4196,-1.4196,-1.4196,-1.4196,-1.4196,-1.4196,-1.4196,-1.4196,-1.4196,-1.4196,-1.4196,-1.4196,-1.4196,-1.4196,-1.4196,-1.4196,-1.4196,-1.4196,-1.4196,-1.4164,-1.4046,-1.3916,-1.3787,-1.3685,-1.3561,-1.3518,-1.3642,-1.3663,-1.3712,-1.3846,-1.3868,-1.3868,-1.3868,-1.3744,-1.3663,-1.3663,-1.355,-1.348,-1.348,-1.348,-1.3373,-1.312,-1.2888,-1.2813,-1.2813,-1.2813,-1.2813,-1.2813,-1.2813,-1.2813,-1.2813,-1.2813,-1.2813,-1.2813,-1.2813,-1.2813,-1.0692,-1.0692,-1.0692,-1.0692,-1.0692,-1.0692,-1.0692,-1.0692,-1.0692,0.0,0.0,0.0,-1.0692,-1.0692,-1.0692,-1.0692,-1.0729,-1.0822,-1.1005,-1.1179,-1.1358,-1.1541,-1.1691,-1.1776,-1.1776,-1.1776,-1.1776,-1.1776,-1.1776,-1.1756,-1.1715,-1.1711,-1.161,-1.1382,-1.1236,-1.1082,-1.0907,-1.0761,-1.1131,-1.2001,-1.1732,-1.1841,-1.2223,-1.2327,-1.2387,-1.2387,-1.2387,-1.2659,-1.3098,-1.3098,-1.3369,-1.3753,-1.3753,-1.3753,-1.3753,-1.3753,-1.3753,-1.3807,-1.3921,-1.3975,-1.4029,-1.4137,-1.4083,-1.4029,-1.4142,-1.4083,-1.4029,-1.4142,-1.4196,-1.4196,-1.4196,-1.4196,-1.4196,-1.4196,-1.4196,-1.4196,-1.4196,-1.4046,-1.3906,-1.3906,-1.3766,-1.3701,-1.3879,-1.3906,-1.397,-1.4164,-1.4196,-1.4196,-1.4196,-1.4029,-1.3906,-1.3906,-1.375,-1.3647,-1.3647,-1.3593,-1.3475,-1.3287,-1.3055,-1.2953,-1.2894,-1.2894,-1.2867,-1.2813,-1.2813,-1.2813,-1.2813,-1.2813,-1.2813,-1.2813,-1.2813,-1.2813,-1.0692,-1.0692,-1.0692,-1.0692,-1.0692,-1.0692,-1.0692,-1.0692,-1.0692,-1.0692,0.0,0.0,-1.0692,-1.0692,-1.0692,-1.0692,-1.0838,-1.1009,-1.1179,-1.1362,-1.1549,-1.1736,-1.1768,-1.1776,-1.1776,-1.1776,-1.1776,-1.1776,-1.1776,-1.1703,-1.1529,-1.152,-1.1362,-1.1073,-1.0997,-1.0899,-1.0712,-1.07,-1.0747,-1.0857,-1.135,-1.1623,-1.1678,-1.2169,-1.2387,-1.2387,-1.2387,-1.2436,-1.2441,-1.2441,-1.2495,-1.255,-1.255,-1.255,-1.255,-1.255,-1.255,-1.2604,-1.3152,-1.3369,-1.3483,-1.4029,-1.3807,-1.3478,-1.4029,-1.3813,-1.3483,-1.4029,-1.4196,-1.4196,-1.4196,-1.4196,-1.4196,-1.4196,-1.4196,-1.4196,-1.4196,-1.418,-1.4169,-1.4169,-1.4153,-1.4148,-1.4164,-1.4169,-1.4175,-1.4191,-1.4196,-1.4196,-1.4196,-1.418,-1.4169,-1.4169,-1.4153,-1.4143,-1.4143,-1.3927,-1.3787,-1.3766,-1.3556,-1.3324,-1.3087,-1.3077,-1.298,-1.2813,-1.2813,-1.2813,-1.2813,-1.2813,-1.2813,-1.2813,-1.2813,-1.2813,-1.0692,-1.0692,-1.0692,-1.0692,-1.0692,-1.0692,-1.0692,-1.0692,-1.0692,-1.0692,-1.0692,0.0,-1.0692,-1.0692,-1.0692,-1.0692,-1.0846,-1.1029,-1.12,-1.1382,-1.1569,-1.1756,-1.1776,-1.1776,-1.1776,-1.1776,-1.1776,-1.1776,-1.1671,-1.1573,-1.1504,-1.139,-1.1216,-1.1033,-1.1024,-1.0879,-1.0692,-1.0692,-1.0692,-1.0692,-1.0911,-1.1021,-1.1076,-1.1236,-1.135,-1.135,-1.135,-1.1568,-1.1896,-1.1896,-1.2114,-1.2387,-1.2387,-1.2387,-1.2387,-1.2387,-1.2387,-1.2436,-1.2659,-1.2767,-1.2767,-1.2989,-1.293,-1.2767,-1.2985,-1.3207,-1.3369,-1.3591,-1.3921,-1.4196,-1.4196,-1.4196,-1.4196,-1.4196,-1.4196,-1.4196,-1.4196,-1.4196,-1.4196,-1.4196,-1.4196,-1.4196,-1.4196,-1.4196,-1.4196,-1.4196,-1.4196,-1.4196,-1.4196,-1.4196,-1.4196,-1.4196,-1.4196,-1.4196,-1.4196,-1.411,-1.4051,-1.4051,-1.369,-1.3437,-1.334,-1.3335,-1.3297,-1.3261,-1.3055,-1.2974,-1.2974,-1.2878,-1.2813,-1.2813,-1.2813,-1.2813,-1.0692,-1.0692,-1.0692,-1.0692,-1.0692,-1.0692,-1.0692,-1.0692,-1.0692,-1.0692,-1.0692,-1.0692,-1.0692,-1.0692,-1.0692,-1.0692,-1.0891,-1.109,-1.1204,-1.1435,-1.1634,-1.176,-1.1776,-1.1776,-1.1776,-1.1776,-1.1752,-1.1695,-1.1573,-1.1451,-1.1338,-1.1212,-1.1062,-1.0887,-1.0939,-1.0822,-1.0692,-1.0692,-1.0692,-1.0692,-1.0692,-1.0692,-1.0692,-1.0692,-1.0692,-1.0692,-1.0692,-1.0911,-1.1295,-1.1295,-1.1514,-1.1841,-1.1841,-1.1841,-1.1841,-1.1841,-1.1841,-1.1891,-1.206,-1.2169,-1.2169,-1.2327,-1.2278,-1.2169,-1.2327,-1.255,-1.2827,-1.2989,-1.3315,-1.3699,-1.3862,-1.4083,-1.4196,-1.4196,-1.4196,-1.4196,-1.4196,-1.4196,-1.4196,-1.4196,-1.4196,-1.4196,-1.4196,-1.4196,-1.4196,-1.4196,-1.4196,-1.4196,-1.4196,-1.4196,-1.4196,-1.4196,-1.4196,-1.4196,-1.4196,-1.4196,-1.4196,-1.4196,-1.3884,-1.3669,-1.3588,-1.3588,-1.355,-1.348,-1.3308,-1.3179,-1.3104,-1.2947,-1.2883,-1.2813,-1.2813,-1.2813,-1.0692,-1.0692,-1.0692,-1.0692,-1.0692,-1.0692,-1.0692,-1.0692,-1.0692,-1.0692,-1.0692,-1.0692,-1.0692,-1.0692,-1.0692,-1.0692,-1.0988,-1.122,-1.1224,-1.1541,-1.1776,-1.1776,-1.1776,-1.1776,-1.1776,-1.1776,-1.1699,-1.1512,-1.1496,-1.1342,-1.1045,-1.1024,-1.0939,-1.07,-1.0692,-1.0692,-1.0692,-1.0692,-1.0692,-1.0692,-1.0692,-1.0692,-1.0692,-1.0692,-1.0692,-1.0692,-1.0692,-1.0692,-1.0692,-1.0692,-1.0692,-1.0692,-1.0692,-1.0692,-1.0692,-1.0692,-1.0692,-1.0802,-1.1404,-1.1568,-1.1678,-1.2223,-1.2001,-1.1678,-1.2219,-1.2005,-1.1732,-1.2223,-1.2387,-1.255,-1.3152,-1.3753,-1.4191,-1.4196,-1.4196,-1.4196,-1.4196,-1.4196,-1.4196,-1.4196,-1.4196,-1.4196,-1.4196,-1.4196,-1.4196,-1.4196,-1.4196,-1.4196,-1.4196,-1.4196,-1.4196,-1.4196,-1.4196,-1.4196,-1.4196,-1.4196,-1.4196,-1.4196,-1.4196,-1.4083,-1.3836,-1.382,-1.3717,-1.3491,-1.3486,-1.3362,-1.3109,-1.3109,-1.299,-1.2813,-1.2813,-1.2813,-1.0692,-1.0692,-1.0692,-1.0692,-1.0692,-1.0692,-1.0692,-1.0692,0.0,0.0,-1.0692,-1.0692,-1.0692,-1.0692,-1.0692,-1.0692,-1.0891,-1.1086,-1.1204,-1.1427,-1.163,-1.176,-1.1776,-1.1776,-1.1776,-1.1658,-1.1557,-1.1504,-1.1269,-1.1078,-1.1033,-1.0846,-1.0749,-1.0692,-1.0692,-1.0692,-1.0692,-1.0692,-1.0692,-1.0692,-1.0692,-1.0692,-1.0692,-1.0692,-1.0692,-1.0692,-1.0692,-1.0692,-1.0692,-1.0692,-1.0692,-1.0692,-1.0692,-1.0692,-1.0692,-1.0692,-1.0692,-1.0747,-1.0911,-1.0966,-1.0966,-1.1126,-1.1076,-1.1021,-1.1181,-1.1404,-1.1623,-1.1787,-1.2114,-1.2441,-1.2604,-1.2822,-1.3152,-1.3975,-1.4196,-1.4196,-1.4196,-1.4196,-1.4196,-1.4196,-1.4196,-1.4196,-1.4196,-1.4196,-1.4196,-1.4196,-1.4196,-1.4196,-1.4196,-1.4196,-1.4196,-1.4196,-1.4196,-1.4196,-1.4196,-1.4196,-1.4196,-1.4196,-1.4196,-1.4159,-1.4089,-1.4083,-1.4051,-1.3981,-1.3809,-1.3685,-1.361,-1.3448,-1.3243,-1.3001,-1.3001,-1.2915,-1.0692,-1.0692,-1.0692,-1.0692,-1.0692,-1.0692,-1.0692,-1.0692,-1.0692,-1.0692,-1.0692,-1.0692,-1.0692,-1.0692,-1.0692,-1.0692,-1.0846,-1.1005,-1.111,-1.1277,-1.1431,-1.1541,-1.1557,-1.1557,-1.1557,-1.1455,-1.1362,-1.1293,-1.109,-1.0992,-1.0863,-1.0753,-1.0692,-1.0692,-1.0692,-1.0692,-1.0692,-1.0692,-1.0692,-1.0692,-1.0692,-1.0692,-1.0692,-1.0692,-1.0692,-1.0692,-1.0692,-1.0692,-1.0692,-1.0692,-1.0692,-1.0692,-1.0692,-1.0692,-1.0692,-1.0692,-1.0692,-1.0692,-1.0692,-1.0692,-1.0692,-1.0692,-1.0692,-1.0692,-1.0692,-1.0966,-1.124,-1.124,-1.1459,-1.1787,-1.2001,-1.206,-1.2332,-1.3261,-1.3483,-1.3537,-1.3807,-1.3867,-1.3921,-1.4137,-1.4196,-1.4196,-1.4196,-1.4196,-1.4196,-1.4196,-1.4196,-1.4196,-1.4196,-1.4196,-1.4196,-1.4196,-1.4196,-1.4196,-1.4196,-1.4196,-1.4196,-1.4196,-1.4196,-1.4196,-1.4196,-1.4196,-1.4196,-1.4196,-1.4046,-1.3922,-1.382,-1.368,-1.3491,-1.3249,-1.3152,-1.3028,-1.0692,-1.0692,-1.0692,-1.0692,-1.0692,-1.0692,-1.0692,-1.0802,-1.0852,-1.0747,-1.0692,-1.0692,-1.0692,-1.0692,-1.0692,-1.0692,-1.0834,-1.1008,-1.1024,-1.1102,-1.1204,-1.122,-1.1224,-1.1224,-1.1224,-1.1208,-1.1135,-1.098,-1.0956,-1.0871,-1.07,-1.0692,-1.0692,-1.0692,-1.0692,-1.0692,-1.0692,-1.0692,-1.0692,-1.0692,-1.0692,-1.0692,-1.0692,-1.0692,-1.0692,-1.0692,-1.0692,-1.0692,-1.0692,-1.0692,-1.0692,-1.0692,-1.0692,-1.0692,-1.0692,-1.0692,-1.0692,-1.0692,-1.0692,-1.0692,-1.0692,-1.0692,-1.0692,-1.0692,-1.0692,-1.0692,-1.0692,-1.0692,-1.0692,-1.0857,-1.1404,-1.1514,-1.1623,-1.2114,-1.2332,-1.2604,-1.3261,-1.3315,-1.3423,-1.4137,-1.4245,-1.4245,-1.4299,-1.4299,-1.4299,-1.4196,-1.4196,-1.4196,-1.4196,-1.4196,-1.4196,-1.4196,-1.4196,-1.4196,-1.4196,-1.4196,-1.4196,-1.4196,-1.4196,-1.4196,-1.4196,-1.4196,-1.4196,-1.4196,-1.4196,-1.4083,-1.3852,-1.3852,-1.3733,-1.3502,-1.3276,-1.3157,-1.0692,-1.0692,-1.0692,-1.0692,-1.0692,-1.0692,-1.0692,-1.1396,-1.1769,-1.0852,-1.0692,-1.0692,-1.0692,-1.0692,-1.0692,-1.0692,-1.0724,-1.0802,-1.1004,-1.1001,-1.1074,-1.1204,-1.1224,-1.1224,-1.1224,-1.1102,-1.1009,-1.1028,-1.0834,-1.0737,-1.0692,-1.0692,-1.0692,-1.0692,-1.0692,-1.0692,-1.0692,-1.0692,-1.0692,-1.0692,-1.0692,-1.0692,-1.0692,-1.0692,-1.0692,-1.0692,-1.0692,-1.0692,-1.0692,-1.0692,-1.0692,-1.0692,-1.0692,-1.0692,-1.0692,-1.0692,-1.0692,-1.0692,-1.0692,-1.0692,-1.0692,-1.0692,-1.0692,-1.0692,-1.0692,-1.0692,-1.0692,-1.0692,-1.0692,-1.0747,-1.0857,-1.0911,-1.0911,-1.1021,-1.1728,-1.2708,-1.3792,-1.3251,-1.3039,-1.4557,-1.4648,-1.4643,-1.5137,-1.5244,-1.4982,-1.4299,-1.4196,-1.4196,-1.4196,-1.4196,-1.4196,-1.4196,-1.4196,-1.4196,-1.4196,-1.4196,-1.4196,-1.4196,-1.4196,-1.4196,-1.4196,-1.4196,-1.4196,-1.4196,-1.4196,-1.4169,-1.4116,-1.4116,-1.3986,-1.3744,-1.369,-1.3566,-1.0692,-1.0692,-1.0852,-1.1391,-1.15,-1.1664,-1.22,-1.2363,-1.2413,-1.2363,-1.2309,-1.2309,-1.2309,-1.2309,-1.2146,-1.1605,-1.15,-1.1375,-1.0933,-1.0838,-1.0867,-1.0956,-1.0968,-1.0968,-1.0968,-1.0887,-1.0838,-1.0838,-1.0749,-1.0692,-1.0692,-1.0692,-1.0692,-1.0692,-1.0692,-1.0692,-1.0692,-1.0692,-1.0692,-1.0692,-1.0692,-1.0692,-1.0692,-1.0692,-1.0692,-1.0692,-1.0692,-1.0692,-1.0692,-1.0692,-1.0692,-1.0692,-1.0692,-1.0692,-1.0692,-1.0692,-1.0692,-1.0692,-1.0692,-1.0692,-1.0692,-1.0692,-1.0692,-1.0692,-1.0692,-1.0692,-1.0692,-1.0692,-1.0692,-1.0692,-1.0692,-1.1122,-1.15,-1.15,-1.1559,-1.2001,-1.3457,-1.3295,-1.3192,-1.4385,-1.4917,-1.5179,-1.5066,-1.5286,-1.5351,-1.4874,-1.4461,-1.4196,-1.4196,-1.4196,-1.4196,-1.4196,-1.4196,-1.4196,-1.4196,-1.4196,-1.4196,-1.4196,-1.4196,-1.4196,-1.4196,-1.4196,-1.4196,-1.4196,-1.4196,-1.4196,-1.4196,-1.4196,-1.4126,-1.3997,-1.3873,-1.3755,-1.0692,-1.0852,-1.1232,-1.2146,-1.2521,-1.2955,-1.3863,-1.3545,-1.3275,-1.4245,-1.4245,-1.4078,-1.4078,-1.4078,-1.3706,-1.2575,-1.2417,-1.1987,-1.0852,-1.0692,-1.0692,-1.0692,-1.0692,-1.0692,-1.0692,-1.0692,-1.0692,-1.0692,-1.0692,-1.0692,-1.0692,-1.0692,-1.0692,-1.0692,-1.0692,-1.0692,-1.0692,-1.0692,-1.0692,-1.0692,-1.0692,-1.0692,-1.0692,-1.0692,-1.0692,-1.0692,-1.0692,-1.0692,-1.0692,-1.0692,-1.0692,-1.0692,-1.0692,-1.0692,-1.0692,-1.0692,-1.0692,-1.0692,-1.0692,-1.0692,-1.0692,-1.0692,-1.0692,-1.0692,-1.0692,-1.0692,-1.0692,-1.0692,-1.0692,-1.0747,-1.0962,-1.1719,-1.2472,-1.263,-1.1987,-1.1719,-1.3393,-1.3614,-1.3668,-1.4487,-1.5458,-1.5885,-1.5221,-1.5547,-1.5826,-1.5719,-1.5089,-1.4563,-1.4461,-1.4401,-1.4353,-1.4191,-1.4196,-1.4196,-1.4196,-1.4196,-1.4196,-1.4196,-1.4196,-1.4196,-1.4196,-1.4196,-1.4196,-1.4196,-1.4196,-1.4196,-1.4196,-1.4196,-1.4196,-1.4186,-1.3981,-1.3884,-1.0692,-1.1391,-1.22,-1.2363,-1.3112,-1.3922,-1.4078,-1.4781,-1.5482,-1.5642,-1.4835,-1.4078,-1.4078,-1.4078,-1.3706,-1.2575,-1.2417,-1.1987,-1.0852,-1.0692,-1.0692,-1.0692,-1.0692,-1.0692,-1.0692,-1.0692,-1.0692,-1.0692,-1.0692,-1.0692,-1.0692,-1.0692,-1.0692,-1.0692,-1.0692,-1.0692,-1.0692,-1.0692,-1.0692,-1.0692,-1.0692,-1.0692,-1.0692,-1.0692,-1.0692,-1.0692,-1.0692,-1.0692,-1.0692,-1.0692,-1.0692,-1.0692,-1.0692,-1.0692,-1.0692,-1.0692,-1.0692,-1.0692,-1.0692,-1.0692,-1.0692,-1.0692,-1.0692,-1.0692,-1.0692,-1.0692,-1.0692,-1.0692,-1.0692,-1.0907,-1.1932,-1.2309,-1.263,-1.3652,-1.376,-1.3976,-1.5269,-1.4733,-1.446,-1.6086,-1.6736,-1.7067,-1.7153,-1.7265,-1.7153,-1.6624,-1.6465,-1.6092,-1.5405,-1.5351,-1.5035,-1.4299,-1.4196,-1.4196,-1.4196,-1.4196,-1.4196,-1.4196,-1.4196,-1.4196,-1.4196,-1.4196,-1.4196,-1.4196,-1.4196,-1.4196,-1.4196,-1.4196,-1.4196,-1.4196,-1.4159,-1.4148,-1.15,-1.2472,-1.3491,-1.4191,-1.4728,-1.5263,-1.5908,-1.5968,-1.6074,-1.6723,-1.6452,-1.6068,-1.6068,-1.6068,-1.5695,-1.4567,-1.4352,-1.3706,-1.1932,-1.1664,-1.1391,-1.0802,-1.0692,-1.0692,-1.0692,-1.0692,-1.0692,-1.0692,-1.0692,-1.0692,-1.0692,-1.0692,-1.0692,-1.0692,-1.0692,-1.0692,-1.0692,-1.0692,-1.0692,-1.0692,-1.0692,-1.0692,-1.0692,-1.0692,-1.0692,-1.0692,-1.0692,-1.0692,-1.0692,-1.0692,-1.0692,-1.0692,-1.0692,-1.0692,-1.0692,-1.0692,-1.0692,-1.0692,-1.0692,-1.0692,-1.0692,-1.0692,-1.0692,-1.0692,-1.0692,-1.1122,-1.1664,-1.1664,-1.2091,-1.2738,-1.3221,-1.3868,-1.4513,-1.4995,-1.5589,-1.6234,-1.6717,-1.5908,-1.5535,-1.6942,-1.6948,-1.6948,-1.7694,-1.7589,-1.7272,-1.7008,-1.6677,-1.6352,-1.598,-1.6092,-1.5826,-1.5035,-1.4928,-1.4719,-1.4245,-1.4196,-1.4196,-1.4196,-1.4196,-1.4196,-1.4196,-1.4196,-1.4196,-1.4196,-1.4196,-1.4196,-1.4196,-1.4196,-1.4196,-1.4196,-1.4196,-1.4196,-1.1714,-1.3004,-1.4298,-1.5215,-1.5914,-1.6558,-1.7424,-1.6935,-1.6558,-1.7417,-1.7582,-1.7582,-1.7582,-1.7582,-1.7206,-1.6074,-1.5914,-1.5102,-1.2738,-1.2417,-1.1982,-1.0852,-1.0692,-1.0692,-1.0692,-1.0692,-1.0692,-1.0692,-1.0692,-1.0692,-1.0692,-1.0692,-1.0692,-1.0692,-1.0692,-1.0692,-1.0692,-1.0692,-1.0692,-1.0692,-1.0692,-1.0692,-1.0692,-1.0692,-1.0692,-1.0692,-1.0692,-1.0692,-1.0692,-1.0692,-1.0692,-1.0692,-1.0692,-1.0692,-1.0692,-1.0692,-1.0692,-1.0692,-1.0692,-1.0692,-1.0692,-1.0692,-1.0692,-1.0747,-1.1017,-1.1719,-1.2467,-1.2738,-1.3437,-1.4186,-1.446,-1.5215,-1.5968,-1.6234,-1.6988,-1.7582,-1.7582,-1.6935,-1.6558,-1.7417,-1.71,-1.6935,-1.7859,-1.7648,-1.7437,-1.749,-1.71,-1.6776,-1.6571,-1.6683,-1.6471,-1.5458,-1.5351,-1.5035,-1.4245,-1.4196,-1.4196,-1.4196,-1.4196,-1.4196,-1.4196,-1.4196,-1.4196,-1.4196,-1.4196,-1.4196,-1.4196,-1.4196,-1.4196,-1.4196,-1.4196,-1.4196,-1.0747,-1.2417,-1.4137,-1.4191,-1.5855,-1.7529,-1.7582,-1.7529,-1.7529,-1.7582,-1.7582,-1.7582,-1.7582,-1.7582,-1.7206,-1.6074,-1.5914,-1.5102,-1.2738,-1.2417,-1.1982,-1.0852,-1.0692,-1.0692,-1.0692,-1.0692,-1.0692,-1.0692,-1.0692,-1.0692,-1.0692,-1.0692,-1.0692,-1.0692,-1.0692,-1.0692,-1.0692,-1.0692,-1.0692,-1.0692,-1.0692,-1.0692,-1.0692,-1.0692,-1.0692,-1.0692,-1.0692,-1.0692,-1.0692,-1.0692,-1.0692,-1.0692,-1.0692,-1.0692,-1.0692,-1.0692,-1.0692,-1.0692,-1.0692,-1.0692,-1.0692,-1.0692,-1.0692,-1.0907,-1.1982,-1.2358,-1.263,-1.3706,-1.4024,-1.4352,-1.5535,-1.5861,-1.618,-1.7259,-1.7582,-1.7582,-1.7582,-1.7529,-1.7529,-1.7582,-1.7582,-1.7641,-1.7964,-1.7964,-1.8069,-1.8325,-1.8318,-1.8003,-1.7226,-1.7179,-1.6643,-1.5196,-1.5035,-1.4826,-1.4245,-1.4196,-1.4196,-1.4196,-1.4196,-1.4196,-1.4196,-1.4196,-1.4196,-1.4196,-1.4196,-1.4196,-1.4196,-1.4196,-1.4196,-1.4196,-1.4196,-1.4196,-1.161,-1.2413,-1.3383,-1.4888,-1.5914,-1.6717,-1.7417,-1.7582,-1.7582,-1.7582,-1.7582,-1.7582,-1.7582,-1.7582,-1.7477,-1.7041,-1.6988,-1.6452,-1.4888,-1.3976,-1.3058,-1.1932,-1.1122,-1.0692,-1.0692,-1.0692,-1.0692,-1.0692,-1.0692,-1.0692,-1.0692,-1.0692,-1.0692,-1.0692,-1.0692,-1.0692,-1.0692,-1.0692,-1.0692,-1.0692,-1.0692,-1.0692,-1.0692,-1.0692,-1.0692,-1.0692,-1.0692,-1.0692,-1.0692,-1.0692,-1.0692,-1.0692,-1.0692,-1.0692,-1.0692,-1.0692,-1.0692,-1.0692,-1.0692,-1.0692,-1.0798,-1.1555,-1.1769,-1.1987,-1.3166,-1.403,-1.4728,-1.5156,-1.5802,-1.6446,-1.6882,-1.6988,-1.7094,-1.7477,-1.7582,-1.7582,-1.7582,-1.7582,-1.7582,-1.7582,-1.7582,-1.7635,-1.7747,-1.7747,-1.7799,-1.7845,-1.801,-1.8069,-1.7753,-1.7852,-1.7635,-1.6736,-1.6683,-1.6418,-1.5832,-1.5357,-1.5035,-1.5035,-1.5035,-1.5035,-1.5035,-1.5035,-1.5035,-1.5035,-1.4455,-1.4196,-1.4196,-1.4196,-1.4196,-1.4196,-1.4196,-1.4196,-1.161,0.0,0.0,-1.4352,-1.4995,-1.5589,-1.677,-1.7041,-1.7153,-1.7529,-1.7582,-1.7582,-1.7582,-1.7582,-1.7582,-1.7582,-1.7582,-1.7206,-1.6074,-1.4835,-1.3701,-1.2521,-1.1396,-1.0692,-1.0692,-1.0692,-1.0692,-1.0692,-1.0692,-1.0692,-1.0692,-1.0692,-1.0692,-1.0692,-1.0692,-1.0692,-1.0692,-1.0692,-1.0692,-1.0692,-1.0692,-1.0692,-1.0692,-1.0692,-1.0692,-1.0692,-1.0692,-1.0692,-1.0692,-1.0692,-1.0692,-1.0692,-1.0692,-1.0692,-1.0692,-1.0692,-1.0692,-1.0692,-1.0692,-1.0692,-1.0907,-1.2041,-1.2417,-1.2684,-1.4245,-1.5269,-1.5968,-1.634,-1.7041,-1.7582,-1.7582,-1.7582,-1.7582,-1.7582,-1.7582,-1.7582,-1.7582,-1.7582,-1.7582,-1.7582,-1.7582,-1.7582,-1.7582,-1.7582,-1.7582,-1.7582,-1.7747,-1.7852,-1.7852,-1.801,-1.795,-1.7536,-1.7483,-1.7265,-1.673,-1.6199,-1.5773,-1.5506,-1.5506,-1.5506,-1.5506,-1.5506,-1.5613,-1.5879,-1.5357,-1.5041,-1.5041,-1.4461,-1.4196,-1.4196,-1.4196,-1.4196,0.0,0.0,0.0,-1.2413,-1.3221,-1.4352,-1.5589,-1.5861,-1.618,-1.7312,-1.7529,-1.7529,-1.7529,-1.7529,-1.7477,-1.7477,-1.7529,-1.7206,-1.6074,-1.4835,-1.3701,-1.2521,-1.1396,-1.0692,-1.0692,-1.0692,-1.0692,-1.0692,-1.0692,-1.0692,-1.0692,-1.0692,-1.0692,-1.0692,-1.0692,-1.0692,-1.0692,-1.0692,-1.0692,-1.0692,-1.0692,-1.0692,-1.0692,-1.0692,-1.0692,-1.0692,-1.0692,-1.0692,-1.0692,-1.0692,-1.0692,-1.0692,-1.0692,-1.0692,-1.0692,-1.0692,-1.0692,-1.0692,-1.0692,-1.0747,-1.0962,-1.2091,-1.2467,-1.2955,-1.5269,-1.5968,-1.618,-1.7312,-1.7582,-1.7582,-1.7582,-1.7582,-1.7582,-1.7582,-1.7582,-1.7582,-1.7582,-1.7582,-1.7582,-1.7582,-1.7582,-1.7582,-1.7582,-1.7582,-1.7582,-1.7582,-1.7635,-1.7635,-1.7635,-1.7635,-1.7536,-1.7285,-1.7232,-1.712,-1.6783,-1.673,-1.6411,-1.5613,-1.5559,-1.5559,-1.5559,-1.5559,-1.5933,-1.673,-1.673,-1.6677,-1.6677,-1.5041,-1.425,-1.425,-1.425,-1.4245,-1.0692,0.0,0.0,0.0,0.0,0.0,-1.4352,-1.462,-1.4942,-1.6127,-1.5695,-1.5316,-1.6234,-1.5642,-1.5049,-1.5049,-1.6505,-1.7206,-1.6074,-1.4835,-1.3701,-1.2521,-1.1396,-1.0692,-1.0692,-1.0692,-1.0692,-1.0692,-1.0692,-1.0692,-1.0692,-1.0692,-1.0692,-1.0692,-1.0692,-1.0692,-1.0692,-1.0692,-1.0692,-1.0692,-1.0692,-1.0692,-1.0692,-1.0692,-1.0692,-1.0692,-1.0692,-1.0692,-1.0692,-1.0692,-1.0692,-1.0692,-1.0692,-1.0692,-1.0692,-1.0692,-1.0692,-1.0692,-1.0692,-1.1232,-1.2146,-1.3275,-1.4245,-1.5215,-1.6664,-1.7153,-1.7206,-1.7529,-1.7582,-1.7582,-1.7582,-1.7582,-1.7582,-1.7582,-1.7582,-1.7582,-1.7582,-1.7582,-1.7582,-1.7582,-1.7582,-1.7582,-1.7582,-1.7582,-1.7582,-1.7582,-1.7747,-1.7911,-1.7911,-1.8062,-1.822,-1.8398,-1.845,-1.8496,-1.8586,-1.7996,-1.7569,-1.7298,-1.7298,-1.7298,-1.7298,-1.7298,-1.7404,-1.7621,-1.7047,-1.6677,-1.6677,-1.5672,-1.5143,-1.5143,-1.5143,-1.5458,0.0,0.0,0.0,0.0,0.0,0.0,-1.3112,-1.3383,-1.3868,-1.5535,-1.5322,-1.5049,-1.5755,-1.5322,-1.4674,-1.4191,-1.5263,-1.5914,-1.5263,-1.4137,-1.3112,-1.2472,-1.1396,-1.0692,-1.0692,-1.0692,-1.0692,-1.0692,-1.0692,-1.0692,-1.0692,-1.0692,-1.0692,-1.0692,-1.0692,-1.0692,-1.0692,-1.0692,-1.0692,-1.0692,-1.0692,-1.0692,-1.0692,-1.0692,-1.0692,-1.0692,-1.0692,-1.0692,-1.0692,-1.0692,-1.0692,-1.0692,-1.0692,-1.0692,-1.0692,-1.0692,-1.0692,-1.0747,-1.1232,-1.1823,-1.2684,-1.4298,-1.5322,-1.6127,-1.7259,-1.7582,-1.7582,-1.7582,-1.7582,-1.7582,-1.7582,-1.7582,-1.7582,-1.7582,-1.7582,-1.7582,-1.7582,-1.7582,-1.7582,-1.7582,-1.7582,-1.7582,-1.7582,-1.7582,-1.7582,-1.7582,-1.7852,-1.8016,-1.8016,-1.822,-1.8534,-1.8869,-1.8921,-1.9026,-1.9279,-1.884,-1.8415,-1.8035,-1.7989,-1.7989,-1.7989,-1.7989,-1.8146,-1.8527,-1.8048,-1.7628,-1.7252,-1.6411,-1.5986,-1.5986,-1.5986,-1.6252,0.0,0.0,0.0,0.0,-1.0692,0.0,-1.1982,-1.22,-1.2847,-1.5055,-1.5429,-1.5375,-1.5482,-1.5429,-1.4995,-1.3922,-1.3706,-1.376,-1.3863,-1.3058,-1.2358,-1.2254,-1.1341,-1.0692,-1.0692,-1.0692,-1.0692,-1.0692,-1.0692,-1.0692,-1.0692,-1.0692,-1.0692,-1.0692,-1.0692,-1.0692,-1.0692,-1.0692,-1.0692,-1.0692,-1.0692,-1.0692,-1.0692,-1.0692,-1.0692,-1.0692,-1.0692,-1.0692,-1.0692,-1.0692,-1.0692,-1.0692,-1.0692,-1.0692,-1.0692,-1.0852,-1.0907,-1.1072,-1.22,-1.2684,-1.3112,-1.5215,-1.5968,-1.6293,-1.7312,-1.7582,-1.7582,-1.7582,-1.7582,-1.7582,-1.7582,-1.7582,-1.7582,-1.7582,-1.7582,-1.7582,-1.7582,-1.7582,-1.7582,-1.7582,-1.7582,-1.7582,-1.7582,-1.7582,-1.7582,-1.7582,-1.7852,-1.8016,-1.8016,-1.8272,-1.8593,-1.8869,-1.8928,-1.9026,-1.9279,-1.9279,-1.8952,-1.8199,-1.8146,-1.8146,-1.8146,-1.8146,-1.852,-1.9272,-1.9279,-1.89,-1.8146,-1.7252,-1.6836,-1.6836,-1.6836,-1.6889,0.0,0.0,0.0,0.0,-1.0692,0.0,-1.0962,-1.1017,-1.1391,-1.2792,-1.2363,-1.1987,-1.2901,-1.2309,-1.1664,-1.1391,-1.1337,-1.166,-1.2575,-1.2521,-1.2037,-1.1122,-1.0852,-1.0692,-1.0692,-1.0692,-1.0692,-1.0692,-1.0692,-1.0692,-1.0692,-1.0692,-1.0692,-1.0692,-1.0692,-1.0692,-1.0692,-1.0692,-1.0692,-1.0692,-1.0692,-1.0692,-1.0692,-1.0692,-1.0692,-1.0692,-1.0692,-1.0692,-1.0692,-1.0692,-1.0692,-1.0692,-1.0692,-1.0692,-1.0802,-1.1719,-1.2096,-1.2254,-1.3383,-1.4406,-1.5269,-1.5749,-1.6505,-1.7312,-1.7529,-1.7582,-1.7582,-1.7582,-1.7582,-1.7582,-1.7582,-1.7582,-1.7582,-1.7582,-1.7582,-1.7582,-1.7582,-1.7582,-1.7582,-1.7582,-1.7582,-1.7582,-1.7582,-1.7582,-1.7582,-1.7582,-1.7852,-1.8016,-1.8016,-1.8443,-1.8817,-1.8869,-1.9071,-1.9227,-1.9279,-1.9279,-1.922,-1.9056,-1.9063,-1.9063,-1.9063,-1.9063,-1.9116,-1.9279,-1.9279,-1.922,-1.9056,-1.8153,-1.7726,-1.7726,-1.7726,-1.8101,0.0,0.0,0.0,-1.0692,0.0,0.0,0.0,-1.0692,-1.1013,-1.2146,-1.1932,-1.1714,-1.2309,-1.1932,-1.1341,-1.0798,-1.0692,-1.0907,-1.1446,-1.1555,-1.1341,-1.0747,-1.0692,-1.0692,-1.0692,-1.0692,-1.0692,-1.0692,-1.0692,-1.0692,-1.0692,-1.0692,-1.0692,-1.0692,-1.0692,-1.0692,-1.0692,-1.0692,-1.0692,-1.0692,-1.0692,-1.0692,-1.0692,-1.0692,-1.0692,-1.0692,-1.0692,-1.0692,-1.0692,-1.0692,-1.0692,-1.0692,-1.0692,-1.0692,-1.0747,-1.1341,-1.1932,-1.2575,-1.3706,-1.4888,-1.5968,-1.6558,-1.7153,-1.7582,-1.7582,-1.7582,-1.7582,-1.7582,-1.7582,-1.7582,-1.7582,-1.7582,-1.7582,-1.7582,-1.7582,-1.7582,-1.7582,-1.7582,-1.7582,-1.7582,-1.7582,-1.7582,-1.7582,-1.7582,-1.7582,-1.7582,-1.7852,-1.8016,-1.8016,-1.8384,-1.8705,-1.8869,-1.9026,-1.9175,-1.9279,-1.9279,-1.9279,-1.9279,-1.9279,-1.9279,-1.9279,-1.9279,-1.9279,-1.9279,-1.9279,-1.9279,-1.9279,-1.884,-1.8632,-1.8632,-1.8632,-1.89,0.0,0.0,0.0,0.0,0.0,-1.0692,0.0,0.0,0.0,-1.1878,-1.2096,-1.2096,-1.2096,-1.2096,-1.1769,-1.0857,-1.0692,-1.0692,-1.0692,-1.0692,-1.0692,-1.0692,-1.0692,-1.0692,-1.0692,-1.0692,-1.0692,-1.0692,-1.0692,-1.0692,-1.0692,-1.0692,-1.0692,-1.0692,-1.0692,-1.0692,-1.0692,-1.0692,-1.0692,-1.0692,-1.0692,-1.0692,-1.0692,-1.0692,-1.0692,-1.0692,-1.0692,-1.0692,-1.0692,-1.0692,-1.0692,-1.0692,-1.0692,-1.0692,-1.0747,-1.0962,-1.161,-1.2575,-1.3976,-1.5102,-1.6074,-1.7206,-1.7582,-1.7582,-1.7582,-1.7582,-1.7582,-1.7582,-1.7582,-1.7582,-1.7582,-1.7582,-1.7582,-1.7582,-1.7582,-1.7582,-1.7582,-1.7582,-1.7582,-1.7582,-1.7582,-1.7582,-1.7582,-1.7582,-1.7582,-1.7582,-1.7799,-1.7911,-1.7911,-1.8167,-1.8429,-1.8712,-1.8817,-1.8974,-1.9175,-1.9272,-1.9279,-1.9279,-1.9279,-1.9279,-1.9279,-1.9279,-1.9279,-1.9279,-1.9279,-1.9279,-1.9279,-1.9279,-1.9279,-1.9279,-1.9279,-1.9279,0.0,0.0,0.0,0.0,-1.0692,-1.0692,-1.0692,0.0,-1.0747,-1.0852,0.0,-1.0907,-1.0907,0.0,0.0,-1.0747,-1.0692,-1.0692,-1.0692,-1.0692,-1.0692,-1.0692,-1.0692,-1.0692,-1.0692,-1.0692,-1.0692,-1.0692,-1.0692,-1.0692,-1.0692,-1.0692,-1.0692,-1.0692,-1.0692,-1.0692,-1.0692,-1.0692,-1.0692,-1.0692,-1.0692,-1.0692,-1.0692,-1.0692,-1.0692,-1.0692,-1.0692,-1.0692,-1.0692,-1.0692,-1.0692,-1.0692,-1.0692,-1.0692,-1.0798,-1.1823,-1.2309,-1.2738,-1.4948,-1.5808,-1.6074,-1.7206,-1.7582,-1.7582,-1.7582,-1.7582,-1.7582,-1.7582,-1.7582,-1.7582,-1.7582,-1.7582,-1.7582,-1.7582,-1.7582,-1.7582,-1.7582,-1.7582,-1.7582,-1.7582,-1.7582,-1.7582,-1.7582,-1.7582,-1.7582,-1.7582,-1.7635,-1.7635,-1.7635,-1.7905,-1.8069,-1.8128,-1.8608,-1.8921,-1.8921,-1.9175,-1.9279,-1.9279,-1.9279,-1.9279,-1.9279,-1.9279,-1.9279,-1.9279,-1.9279,-1.9279,-1.9279,-1.9279,-1.9279,-1.9279,-1.9279,-1.9279,0.0,0.0,0.0,0.0,0.0,-1.15,-1.0857,-1.0692,-1.0692,-1.0692,0.0,0.0,0.0,0.0,0.0,0.0,-1.0692,-1.0692,-1.0692,-1.0692,-1.0692,-1.0692,-1.0692,-1.0692,-1.0692,-1.0692,-1.0692,-1.0692,-1.0692,-1.0692,-1.0692,-1.0692,-1.0692,-1.0692,-1.0692,-1.0692,-1.0692,-1.0692,-1.0692,-1.0692,-1.0692,-1.0692,-1.0692,-1.0692,-1.0692,-1.0692,-1.0692,-1.0692,-1.0692,-1.0692,-1.0692,-1.0692,-1.0692,-1.0692,-1.0747,-1.1232,-1.2254,-1.3545,-1.4513,-1.5749,-1.6988,-1.7424,-1.7582,-1.7582,-1.7582,-1.7582,-1.7582,-1.7582,-1.7582,-1.7582,-1.7582,-1.7582,-1.7582,-1.7582,-1.7582,-1.7582,-1.7582,-1.7582,-1.7582,-1.7582,-1.7582,-1.7582,-1.7582,-1.7582,-1.7582,-1.7582,-1.7582,-1.7641,-1.7799,-1.7911,-1.8128,-1.8496,-1.8764,-1.8974,-1.9123,-1.9227,-1.9279,-1.9279,-1.9279,-1.9279,-1.9279,-1.9279,-1.9279,-1.9279,-1.9279,-1.9279,-1.9279,-1.9279,-1.9279,-1.9279,-1.9279,-1.9279,-1.1341,-1.1769,-1.2146,-1.0962,-1.1341,-1.1714,-1.0907,-1.0692,-1.0692,-1.0692,-1.0692,0.0,0.0,0.0,-1.0692,0.0,0.0,-1.0692,-1.0692,-1.0692,-1.0692,-1.0692,-1.0692,-1.0692,-1.0692,-1.0692,-1.0692,-1.0692,-1.0692,-1.0692,-1.0692,-1.0692,-1.0692,-1.0692,-1.0692,-1.0692,-1.0692,-1.0692,-1.0692,-1.0692,-1.0692,-1.0692,-1.0692,-1.0692,-1.0692,-1.0692,-1.0692,-1.0692,-1.0692,-1.0692,-1.0692,-1.0692,-1.0692,-1.0907,-1.1177,-1.1177,-1.22,-1.3706,-1.4352,-1.5908,-1.7582,-1.7582,-1.7582,-1.7582,-1.7582,-1.7582,-1.7582,-1.7582,-1.7582,-1.7582,-1.7582,-1.7582,-1.7582,-1.7582,-1.7582,-1.7582,-1.7582,-1.7582,-1.7582,-1.7582,-1.7582,-1.7582,-1.7582,-1.7582,-1.7582,-1.7582,-1.7582,-1.7694,-1.7964,-1.8016,-1.8181,-1.8705,-1.8869,-1.8974,-1.9175,-1.9279,-1.9279,-1.9279,-1.9279,-1.9279,-1.9279,-1.9279,-1.9279,-1.9279,-1.9279,-1.9279,-1.9279,-1.9279,-1.9279,-1.9279,-1.9279,-1.9279,-1.2955,-1.2363,-1.2146,-1.0962,-1.0747,-1.0747,-1.0692,-1.0692,-1.0692,-1.0692,-1.0692,-1.0692,-1.0692,-1.0692,-1.0692,0.0,0.0,0.0,0.0,-1.0692,-1.0692,-1.0692,-1.0692,-1.0692,-1.0692,-1.0692,-1.0692,-1.0692,-1.0692,-1.0692,-1.0692,-1.0692,-1.0692,-1.0692,-1.0692,-1.0692,-1.0692,-1.0692,-1.0692,-1.0692,-1.0692,-1.0692,-1.0692,-1.0692,-1.0692,-1.0692,-1.0692,-1.0692,-1.0692,-1.0692,-1.0692,-1.0692,-1.0692,-1.1391,-1.2363,-1.2363,-1.2413,-1.2792,-1.5049,-1.6611,-1.7582,-1.7582,-1.7582,-1.7582,-1.7582,-1.7582,-1.7582,-1.7582,-1.7582,-1.7582,-1.7582,-1.7582,-1.7582,-1.7582,-1.7582,-1.7582,-1.7582,-1.7582,-1.7582,-1.7582,-1.7582,-1.7582,-1.7582,-1.7582,-1.7582,-1.7582,-1.7582,-1.7694,-1.7964,-1.8016,-1.8122,-1.837,-1.8705,-1.8921,-1.8921,-1.9175,-1.9279,-1.9279,-1.9279,-1.9279,-1.9279,-1.9279,-1.9279,-1.9279,-1.9279,-1.9279,-1.9279,-1.9279,-1.9279,-1.9279,-1.9279,-1.9279,-1.4341,-1.4561,-1.4519,-1.258,-1.2526,-1.2575,-1.1017,-1.0692,-1.0692,-1.0692,-1.0692,-1.0692,-1.0692,0.0,0.0,0.0,0.0,0.0,0.0,-1.0692,-1.0692,-1.0692,-1.0692,-1.0692,-1.0692,-1.0692,-1.0692,-1.0692,-1.0692,-1.0692,-1.0692,-1.0692,-1.0692,-1.0692,-1.0692,-1.0692,-1.0692,-1.0692,-1.0692,-1.0692,-1.0692,-1.0692,-1.0692,-1.0692,-1.0692,-1.0692,-1.0692,-1.0692,-1.0692,-1.0692,-1.0692,-1.0747,-1.1555,-1.2037,-1.2417,-1.2417,-1.3383,-1.4942,-1.6505,-1.7259,-1.7582,-1.7582,-1.7582,-1.7582,-1.7582,-1.7582,-1.7582,-1.7582,-1.7582,-1.7582,-1.7582,-1.7582,-1.7582,-1.7582,-1.7582,-1.7582,-1.7582,-1.7582,-1.7582,-1.7582,-1.7582,-1.7582,-1.7582,-1.7582,-1.7582,-1.7582,-1.7582,-1.774,-1.822,-1.8272,-1.8429,-1.8952,-1.9123,-1.9175,-1.9175,-1.9227,-1.9279,-1.9279,-1.9279,-1.9279,-1.9279,-1.9279,-1.9279,-1.9279,-1.9279,-1.9279,-1.9279,-1.9279,-1.9279,-1.9279,-1.9279,-1.9279,-1.591,-1.6174,-1.6161,-1.4261,-1.4088,-1.3917,-1.1878,-1.145,-1.145,-1.145,-1.1072,0.0,0.0,0.0,0.0,0.0,0.0,0.0,0.0,-1.1185,-1.1295,-1.1295,-1.0966,-1.0692,-1.0692,-1.0911,-1.0911,-1.0692,-1.0911,-1.0911,-1.0692,-1.0692,-1.0692,-1.0692,-1.0692,-1.0692,-1.0692,-1.0692,-1.0692,-1.0692,-1.0692,-1.0692,-1.0692,-1.0692,-1.0692,-1.0692,-1.0692,-1.0692,-1.0692,-1.0692,-1.0692,-1.0802,-1.1932,-1.263,-1.3063,-1.3491,-1.484,-1.6611,-1.7364,-1.7582,-1.7582,-1.7582,-1.7582,-1.7582,-1.7582,-1.7582,-1.7582,-1.7582,-1.7582,-1.7582,-1.7582,-1.7582,-1.7582,-1.7582,-1.7582,-1.7582,-1.7582,-1.7582,-1.7582,-1.7582,-1.7582,-1.7582,-1.7582,-1.7582,-1.7582,-1.7582,-1.7582,-1.7793,-1.8318,-1.8422,-1.8632,-1.922,-1.9279,-1.9279,-1.9279,-1.9279,-1.9279,-1.9279,-1.9279,-1.9279,-1.9279,-1.9279,-1.9382,-1.95,-1.9338,-1.9382,-1.95,-1.9382,-1.9279,-1.9279,-1.9279,-1.9279]},{"header":{"parameterUnit":"m.s-1","parameterCategory":1,"la1":30.6,"la2":29.2853,"lo1":-89.7004,"lo2":-87.6739,"dy":0.0162,"dx":0.0183,"nx":112,"ny":82,"refTime":"2023-05-28T06:00:00:Z","depth":0,"parameterNumber":3,"parameterNumberName":"V-component_of_WINDS"},"data":[0.0,0.0,0.0,0.0,0.0,0.0,0.0,0.0,0.0,0.0,0.0,0.0,0.0,0.0,0.0,0.0,0.0,0.0,0.0,0.0,0.0,0.0,0.0,0.0,0.0,0.0,0.0,0.0,0.0,0.0,0.0,0.0,0.0,0.0,0.0,0.0,0.0,0.0,0.0,0.0,0.0,0.0,0.0,0.0,0.0,0.0,0.0,0.0,0.0,0.0,0.0,0.0,0.0,0.0,0.0,0.0,0.0,0.0,0.0,0.0,0.0,0.0,0.0,0.0,0.0,0.0,0.0,0.0,0.0,0.0,0.0,0.0,0.0,0.0,0.0,0.0,0.0,0.0,0.0,0.0,0.0,0.0,0.0,0.0,0.0,0.0,0.0,0.0,0.0,0.0,2.5357,2.5501,2.5526,2.5877,2.6731,2.6642,2.6893,2.7756,0.0,0.0,0.0,0.0,0.0,0.0,0.0,0.0,0.0,0.0,0.0,0.0,0.0,0.0,0.0,0.0,0.0,0.0,0.0,0.0,0.0,0.0,0.0,0.0,0.0,0.0,0.0,0.0,0.0,0.0,0.0,0.0,0.0,0.0,0.0,0.0,0.0,0.0,0.0,0.0,0.0,0.0,0.0,0.0,0.0,0.0,0.0,0.0,0.0,0.0,0.0,0.0,0.0,0.0,0.0,0.0,0.0,0.0,0.0,0.0,0.0,0.0,0.0,0.0,0.0,0.0,0.0,0.0,0.0,0.0,0.0,0.0,0.0,0.0,0.0,0.0,0.0,0.0,0.0,0.0,0.0,0.0,0.0,0.0,0.0,0.0,0.0,0.0,0.0,0.0,0.0,0.0,0.0,0.0,0.0,0.0,0.0,0.0,0.0,0.0,0.0,0.0,0.0,0.0,2.6473,2.7377,2.7472,2.754,2.7684,2.761,2.7633,2.7781,0.0,0.0,0.0,0.0,0.0,0.0,0.0,0.0,0.0,0.0,0.0,0.0,0.0,0.0,0.0,0.0,0.0,0.0,0.0,0.0,0.0,0.0,0.0,0.0,0.0,0.0,0.0,0.0,0.0,0.0,0.0,0.0,0.0,0.0,0.0,0.0,0.0,0.0,0.0,0.0,0.0,0.0,0.0,0.0,0.0,0.0,0.0,0.0,0.0,0.0,0.0,0.0,0.0,0.0,0.0,0.0,0.0,0.0,0.0,0.0,0.0,0.0,0.0,0.0,0.0,0.0,0.0,0.0,0.0,0.0,0.0,0.0,0.0,0.0,0.0,0.0,0.0,0.0,0.0,0.0,0.0,0.0,0.0,0.0,0.0,0.0,0.0,0.0,0.0,0.0,0.0,0.0,0.0,0.0,0.0,0.0,0.0,0.0,0.0,0.0,0.0,0.0,0.0,2.5529,2.6008,2.6482,2.6535,2.6718,2.716,2.7133,2.7292,2.7766,2.8096,0.0,0.0,0.0,0.0,0.0,0.0,0.0,0.0,0.0,0.0,0.0,0.0,0.0,0.0,0.0,0.0,0.0,0.0,0.0,0.0,0.0,0.0,0.0,0.0,0.0,0.0,0.0,0.0,0.0,0.0,0.0,0.0,0.0,0.0,0.0,0.0,0.0,0.0,0.0,0.0,0.0,0.0,0.0,0.0,0.0,0.0,0.0,0.0,0.0,0.0,0.0,0.0,0.0,0.0,0.0,0.0,0.0,0.0,0.0,0.0,0.0,0.0,0.0,0.0,0.0,0.0,0.0,0.0,0.0,0.0,0.0,0.0,0.0,0.0,0.0,0.0,0.0,0.0,0.0,0.0,0.0,0.0,0.0,0.0,0.0,0.0,0.0,0.0,0.0,0.0,0.0,0.0,0.0,0.0,0.0,0.0,0.0,0.0,0.0,0.0,0.0,0.0,2.5654,2.5781,2.5965,2.599,2.6246,2.6848,2.685,2.7086,2.7758,2.8357,0.0,0.0,0.0,0.0,0.0,0.0,0.0,0.0,0.0,0.0,0.0,0.0,0.0,0.0,0.0,0.0,0.0,0.0,0.0,0.0,0.0,0.0,0.0,0.0,0.0,0.0,0.0,0.0,0.0,0.0,0.0,0.0,0.0,0.0,0.0,0.0,0.0,0.0,0.0,0.0,0.0,0.0,0.0,0.0,0.0,0.0,0.0,0.0,0.0,0.0,0.0,0.0,0.0,0.0,0.0,0.0,0.0,0.0,0.0,0.0,0.0,0.0,0.0,0.0,0.0,0.0,0.0,0.0,0.0,0.0,0.0,0.0,0.0,0.0,0.0,0.0,0.0,0.0,0.0,0.0,0.0,0.0,0.0,0.0,0.0,0.0,0.0,0.0,0.0,0.0,0.0,0.0,0.0,0.0,0.0,0.0,0.0,0.0,0.0,0.0,0.0,0.0,2.6526,2.6895,2.7634,2.7716,2.775,2.7792,2.7758,2.772,2.7802,2.7795,0.0,0.0,0.0,0.0,0.0,0.0,0.0,0.0,0.0,0.0,0.0,0.0,0.0,0.0,0.0,0.0,0.0,0.0,0.0,0.0,0.0,0.0,0.0,0.0,0.0,0.0,0.0,0.0,0.0,0.0,0.0,0.0,0.0,0.0,0.0,0.0,0.0,0.0,0.0,0.0,0.0,0.0,0.0,0.0,0.0,0.0,0.0,0.0,0.0,0.0,0.0,0.0,0.0,0.0,0.0,0.0,0.0,0.0,0.0,0.0,0.0,0.0,0.0,0.0,0.0,0.0,0.0,0.0,0.0,0.0,0.0,0.0,0.0,0.0,0.0,0.0,0.0,0.0,0.0,0.0,0.0,0.0,0.0,0.0,0.0,0.0,0.0,0.0,0.0,0.0,0.0,0.0,0.0,0.0,0.0,0.0,0.0,0.0,0.0,0.0,0.0,0.0,2.5862,2.6072,2.6376,2.6397,2.6393,2.6401,2.6339,2.6308,2.6308,0.0,0.0,0.0,0.0,0.0,0.0,0.0,0.0,0.0,0.0,0.0,0.0,0.0,0.0,0.0,0.0,0.0,0.0,0.0,0.0,0.0,0.0,0.0,0.0,0.0,0.0,0.0,0.0,0.0,0.0,0.0,0.0,0.0,0.0,0.0,0.0,0.0,0.0,0.0,0.0,0.0,0.0,0.0,0.0,0.0,0.0,0.0,0.0,0.0,0.0,0.0,0.0,0.0,0.0,0.0,0.0,0.0,0.0,0.0,0.0,0.0,0.0,0.0,0.0,0.0,0.0,0.0,0.0,0.0,0.0,0.0,0.0,0.0,0.0,0.0,0.0,0.0,0.0,0.0,0.0,0.0,0.0,0.0,0.0,0.0,0.0,0.0,0.0,0.0,0.0,0.0,0.0,0.0,0.0,0.0,0.0,0.0,0.0,0.0,0.0,0.0,0.0,2.5418,2.5454,2.5535,2.5528,2.5525,2.5537,2.5537,2.546,2.5429,2.5406,0.0,0.0,0.0,0.0,0.0,0.0,0.0,0.0,0.0,0.0,0.0,0.0,0.0,0.0,0.0,0.0,0.0,0.0,0.0,0.0,0.0,0.0,0.0,0.0,0.0,0.0,0.0,0.0,0.0,0.0,0.0,0.0,0.0,0.0,0.0,0.0,0.0,0.0,0.0,0.0,0.0,0.0,0.0,0.0,0.0,0.0,0.0,0.0,0.0,0.0,0.0,0.0,0.0,0.0,0.0,0.0,0.0,0.0,0.0,0.0,0.0,0.0,0.0,0.0,0.0,0.0,0.0,0.0,0.0,0.0,0.0,0.0,0.0,0.0,0.0,0.0,0.0,0.0,0.0,0.0,0.0,0.0,0.0,0.0,0.0,0.0,0.0,0.0,0.0,0.0,0.0,0.0,0.0,0.0,0.0,0.0,0.0,0.0,0.0,0.0,0.0,0.0,2.5618,2.5552,2.5601,2.5601,2.5593,2.5607,2.5607,2.5542,2.5462,0.0,0.0,0.0,0.0,0.0,0.0,0.0,0.0,0.0,0.0,0.0,0.0,0.0,0.0,0.0,0.0,0.0,0.0,0.0,0.0,0.0,0.0,0.0,0.0,0.0,0.0,0.0,0.0,0.0,0.0,0.0,0.0,0.0,0.0,0.0,0.0,0.0,0.0,0.0,0.0,0.0,0.0,0.0,0.0,0.0,0.0,0.0,0.0,0.0,0.0,0.0,0.0,0.0,0.0,0.0,0.0,0.0,0.0,0.0,0.0,0.0,0.0,0.0,0.0,0.0,0.0,0.0,0.0,0.0,0.0,0.0,0.0,0.0,0.0,0.0,0.0,0.0,0.0,0.0,0.0,0.0,0.0,0.0,0.0,0.0,0.0,0.0,0.0,0.0,0.0,0.0,0.0,0.0,0.0,0.0,0.0,0.0,0.0,0.0,0.0,0.0,0.0,0.0,2.552,2.5601,2.565,2.5603,2.5598,2.5627,2.5666,2.5618,2.555,2.5465,0.0,0.0,0.0,0.0,0.0,0.0,0.0,0.0,0.0,0.0,0.0,0.0,0.0,0.0,0.0,0.0,0.0,0.0,0.0,0.0,0.0,0.0,0.0,0.0,0.0,0.0,0.0,0.0,0.0,0.0,0.0,0.0,0.0,0.0,0.0,0.0,0.0,0.0,0.0,0.0,0.0,0.0,0.0,0.0,0.0,0.0,0.0,0.0,0.0,0.0,0.0,0.0,0.0,0.0,0.0,0.0,0.0,0.0,0.0,0.0,0.0,0.0,0.0,0.0,0.0,0.0,0.0,0.0,0.0,0.0,0.0,0.0,0.0,0.0,0.0,0.0,0.0,0.0,0.0,0.0,0.0,0.0,0.0,0.0,0.0,0.0,0.0,0.0,0.0,0.0,0.0,0.0,0.0,0.0,0.0,0.0,0.0,0.0,0.0,0.0,0.0,0.0,2.5535,2.5636,2.5675,2.5643,2.5631,2.5655,2.5694,2.5652,2.5616,2.5548,0.0,0.0,0.0,0.0,0.0,0.0,0.0,0.0,0.0,0.0,0.0,0.0,0.0,0.0,0.0,0.0,0.0,0.0,0.0,0.0,0.0,0.0,0.0,0.0,0.0,0.0,0.0,0.0,0.0,0.0,0.0,0.0,0.0,0.0,0.0,0.0,0.0,0.0,0.0,0.0,0.0,0.0,0.0,0.0,0.0,0.0,0.0,0.0,0.0,0.0,0.0,0.0,0.0,0.0,0.0,0.0,0.0,0.0,0.0,0.0,0.0,0.0,0.0,0.0,0.0,0.0,0.0,0.0,0.0,0.0,0.0,0.0,0.0,0.0,0.0,0.0,0.0,0.0,0.0,0.0,0.0,0.0,0.0,0.0,0.0,0.0,0.0,0.0,0.0,0.0,0.0,0.0,0.0,0.0,0.0,0.0,0.0,0.0,0.0,0.0,0.0,0.0,2.5849,2.5893,2.5937,2.5937,2.5879,2.582,2.582,2.5742,2.5679,2.5595,0.0,0.0,0.0,0.0,0.0,0.0,0.0,0.0,0.0,0.0,0.0,0.0,0.0,0.0,0.0,0.0,0.0,0.0,0.0,0.0,0.0,0.0,0.0,0.0,0.0,0.0,0.0,0.0,0.0,0.0,0.0,0.0,0.0,0.0,0.0,0.0,0.0,0.0,0.0,0.0,0.0,0.0,0.0,0.0,0.0,0.0,0.0,0.0,0.0,0.0,0.0,0.0,0.0,0.0,0.0,0.0,0.0,0.0,0.0,0.0,2.7938,2.762,0.0,0.0,0.0,0.0,0.0,0.0,0.0,0.0,0.0,0.0,0.0,0.0,0.0,0.0,0.0,0.0,0.0,0.0,0.0,0.0,0.0,0.0,0.0,0.0,0.0,0.0,0.0,0.0,0.0,0.0,0.0,0.0,0.0,0.0,0.0,0.0,0.0,0.0,0.0,0.0,2.7645,2.7695,2.7753,2.7754,2.7129,2.6719,2.6719,2.6094,2.5661,2.5602,2.5593,0.0,0.0,0.0,0.0,0.0,0.0,0.0,0.0,0.0,0.0,0.0,0.0,0.0,0.0,0.0,0.0,0.0,0.0,0.0,0.0,0.0,0.0,0.0,0.0,0.0,0.0,0.0,0.0,0.0,0.0,0.0,0.0,0.0,0.0,0.0,0.0,0.0,0.0,0.0,0.0,0.0,0.0,0.0,0.0,0.0,0.0,0.0,0.0,0.0,0.0,0.0,0.0,0.0,0.0,0.0,0.0,0.0,0.0,0.0,2.8796,2.8128,0.0,0.0,0.0,0.0,0.0,0.0,0.0,0.0,0.0,0.0,0.0,0.0,0.0,0.0,0.0,0.0,0.0,0.0,0.0,0.0,0.0,0.0,0.0,0.0,0.0,0.0,0.0,0.0,0.0,0.0,0.0,0.0,0.0,0.0,0.0,0.0,0.0,0.0,0.0,0.0,2.8258,2.8281,2.83,2.8301,2.7891,2.7617,2.7617,2.6836,2.6308,2.6262,2.5888,0.0,0.0,0.0,0.0,0.0,0.0,0.0,0.0,0.0,0.0,0.0,0.0,0.0,0.0,0.0,0.0,0.0,0.0,0.0,0.0,0.0,0.0,0.0,0.0,0.0,0.0,0.0,0.0,0.0,0.0,0.0,0.0,0.0,0.0,0.0,0.0,0.0,0.0,0.0,0.0,0.0,0.0,0.0,0.0,0.0,0.0,0.0,0.0,0.0,0.0,0.0,0.0,0.0,3.4708,3.4303,3.4264,3.3432,3.267,3.1888,2.9848,2.8815,2.8534,2.8543,0.0,0.0,0.0,0.0,0.0,0.0,0.0,0.0,0.0,0.0,0.0,0.0,0.0,0.0,0.0,0.0,0.0,0.0,0.0,0.0,0.0,0.0,2.8517,2.8513,2.8517,2.849,2.8441,0.0,0.0,0.0,0.0,0.0,0.0,0.0,0.0,0.0,0.0,0.0,2.875,2.8749,2.8748,2.875,2.8613,2.8535,2.8535,2.7734,2.7226,2.7226,2.6406,2.5936,0.0,0.0,0.0,0.0,0.0,0.0,0.0,0.0,0.0,0.0,0.0,0.0,0.0,0.0,0.0,0.0,0.0,0.0,0.0,0.0,0.0,0.0,0.0,0.0,0.0,0.0,0.0,0.0,0.0,0.0,0.0,0.0,3.2821,3.3689,0.0,0.0,0.0,0.0,0.0,0.0,0.0,0.0,0.0,0.0,0.0,0.0,0.0,3.6129,3.6014,3.5433,3.5155,3.516,3.43,3.388,3.385,3.3223,3.2865,3.2737,3.2526,0.0,3.0263,3.0273,0.0,0.0,0.0,0.0,0.0,0.0,0.0,0.0,0.0,0.0,0.0,0.0,0.0,0.0,0.0,0.0,0.0,0.0,0.0,0.0,0.0,0.0,3.0178,3.0182,3.0178,3.0182,3.0168,2.9074,2.809,2.8098,2.8043,2.8275,0.0,0.0,0.0,0.0,0.0,0.0,3.054,3.0558,3.056,3.0565,2.9882,2.9433,2.9434,2.8633,2.8125,2.8125,2.7304,2.6835,2.6835,2.6108,0.0,0.0,0.0,0.0,0.0,0.0,0.0,0.0,0.0,0.0,0.0,0.0,0.0,0.0,0.0,0.0,0.0,0.0,0.0,0.0,0.0,0.0,0.0,0.0,0.0,0.0,0.0,0.0,0.0,3.4,3.4479,3.5315,3.5408,3.5718,0.0,0.0,0.0,0.0,0.0,0.0,0.0,0.0,0.0,3.7424,3.7053,3.6853,3.6853,3.6549,3.6434,3.6495,3.6087,3.5879,3.5869,3.5577,3.5155,3.4697,3.4749,3.4134,3.3013,3.2295,3.2029,3.2015,0.0,0.0,0.0,0.0,3.018,3.0104,2.9625,2.9472,2.9509,2.9509,0.0,0.0,0.0,0.0,0.0,0.0,0.0,2.9973,3.0014,3.024,3.0444,3.0499,3.0469,3.0439,3.0439,2.9892,2.9404,2.9493,2.9485,2.9593,3.0055,3.0096,0.0,0.0,0.0,3.07,3.0737,3.0762,3.0799,3.0788,3.0478,3.0265,3.0267,2.9437,2.8922,2.8922,2.8102,2.7617,2.7619,2.6825,2.638,0.0,0.0,0.0,0.0,0.0,0.0,0.0,0.0,0.0,0.0,0.0,0.0,0.0,0.0,0.0,0.0,0.0,0.0,0.0,0.0,0.0,0.0,0.0,0.0,0.0,0.0,0.0,0.0,3.5451,3.6061,3.6665,3.6665,3.687,0.0,0.0,0.0,0.0,0.0,0.0,3.7775,3.8004,3.8048,3.7891,3.787,3.787,3.7891,3.7918,3.7982,3.8088,3.7821,3.7687,3.7677,3.746,3.6994,3.6378,3.6407,3.6122,3.5529,3.3921,3.3298,3.3346,3.3131,3.3034,3.2946,3.235,3.2116,3.2005,3.1351,3.1173,3.1213,3.1213,3.1183,3.1144,3.1196,0.0,0.0,0.0,0.0,3.1138,3.1183,3.1107,3.1047,3.1108,3.1077,3.1041,3.1041,3.0883,3.0708,3.0569,3.055,3.058,3.0649,3.0603,0.0,3.0661,3.063,3.06,3.0597,3.0647,3.0661,3.0673,3.0721,3.0765,3.0767,3.0139,2.973,2.973,2.8909,2.8422,2.8429,2.7636,2.7115,2.6908,0.0,0.0,0.0,0.0,0.0,0.0,0.0,0.0,0.0,0.0,0.0,0.0,0.0,0.0,0.0,0.0,0.0,0.0,0.0,0.0,0.0,0.0,0.0,0.0,0.0,0.0,0.0,0.0,0.0,3.7062,3.7181,0.0,0.0,0.0,0.0,3.7323,3.7905,3.8249,3.8249,3.905,3.9494,3.9482,3.9427,3.9427,3.947,3.9427,3.9389,3.9402,3.8638,3.8225,3.8139,3.7502,3.7184,3.7156,3.7279,3.7348,3.7176,3.4681,3.3827,3.3968,3.3205,3.2985,3.3098,3.3045,3.299,3.2924,3.2885,3.2885,3.2871,3.2871,3.2885,3.2879,3.2887,3.2881,0.0,0.0,3.2769,3.2788,3.2788,3.2782,3.2776,3.2782,3.2782,3.2776,3.2776,3.2179,3.1391,3.0569,3.0416,3.0436,3.0496,0.0,3.0522,3.059,3.0597,3.0597,3.0597,3.06,3.061,3.061,3.0664,3.0714,3.0711,3.0665,3.0631,3.0631,2.9829,2.934,2.934,2.8507,2.7675,2.6919,2.6869,0.0,0.0,0.0,0.0,0.0,0.0,0.0,0.0,0.0,0.0,0.0,0.0,0.0,0.0,0.0,0.0,0.0,0.0,0.0,0.0,0.0,0.0,0.0,0.0,0.0,0.0,0.0,0.0,3.801,3.7992,0.0,3.8731,3.8806,3.8806,3.8787,3.8987,3.9138,3.9138,3.9927,4.0353,4.032,4.0782,4.1036,4.1023,4.0996,4.0969,4.0982,4.0167,3.9748,3.965,3.8845,3.8446,3.844,3.8471,3.8533,3.8481,3.7061,3.641,3.626,3.5921,3.5825,3.5804,3.5283,3.4713,3.4154,3.3632,3.3104,3.2672,3.2626,3.2577,3.2565,3.2592,3.2576,3.2542,3.2526,3.2499,3.2499,3.2499,3.2499,3.2549,3.2682,3.2704,3.2732,3.2872,3.2679,3.2372,3.2064,3.1135,3.0425,3.0482,3.0462,3.0451,3.0537,3.0496,3.0472,3.0472,3.0509,3.0544,3.0603,3.0621,3.0642,3.0643,3.0644,3.0638,3.0638,3.0343,3.0168,3.0168,2.9338,2.8736,2.8449,2.7883,2.7218,0.0,0.0,0.0,0.0,0.0,0.0,0.0,0.0,0.0,0.0,0.0,0.0,0.0,0.0,0.0,0.0,0.0,0.0,0.0,0.0,0.0,0.0,0.0,0.0,0.0,3.8016,3.8293,3.8878,3.906,3.937,3.9946,4.0221,4.039,4.0403,4.039,4.039,4.0403,4.0884,4.1145,4.1124,4.1576,4.1829,4.1801,4.1792,4.1777,4.1759,4.1245,4.0975,4.0891,4.0314,4.0007,3.9946,3.9672,3.9589,3.9569,3.8718,3.8253,3.8018,3.7503,3.7344,3.7345,3.6786,3.6217,3.5628,3.5097,3.4575,3.4101,3.4063,3.4026,3.3942,3.3733,3.3629,3.3535,3.3251,3.3175,3.3175,3.3175,3.3175,3.3211,3.3342,3.3367,3.3399,3.3555,3.3348,3.3152,3.3208,3.2161,3.1261,3.13,3.127,3.1261,3.13,3.1264,3.1154,3.0865,3.0879,3.0806,3.055,3.0548,3.0574,3.0571,3.0586,3.0598,3.0598,3.0598,3.0598,3.0598,3.0056,2.9592,2.9306,2.8433,2.7773,2.7294,0.0,0.0,0.0,0.0,0.0,0.0,0.0,0.0,0.0,0.0,0.0,0.0,0.0,0.0,0.0,0.0,0.0,0.0,0.0,0.0,0.0,0.0,0.0,3.8756,3.9232,3.9646,3.9664,4.0347,4.0835,4.0835,4.1483,4.1919,4.2004,4.1932,4.1919,4.2004,4.197,4.193,4.193,4.1833,4.181,4.1862,4.181,4.1767,4.1767,4.1801,4.1801,4.1729,4.1711,4.1692,4.164,4.0802,4.0463,4.0463,3.9556,3.9217,3.9131,3.7711,3.7284,3.7457,3.7457,3.7408,3.7329,3.7291,3.7291,3.7291,3.7291,3.7291,3.7139,3.6355,3.6119,3.5967,3.5192,3.4965,3.4946,3.4927,3.4927,3.4908,3.4898,3.4898,3.4879,3.4908,3.4245,3.3693,3.389,3.3417,3.2955,3.291,3.2891,3.2891,3.2891,3.2891,0.0,3.1833,3.1737,3.141,3.0577,3.0543,3.0562,3.0543,3.0608,3.0636,3.0598,3.0598,3.0598,3.0598,3.0598,3.0192,2.9364,2.8496,2.8078,2.8142,0.0,0.0,0.0,0.0,0.0,0.0,0.0,0.0,0.0,0.0,0.0,0.0,0.0,0.0,0.0,0.0,0.0,0.0,0.0,0.0,0.0,4.0957,4.125,4.0326,4.0347,4.0685,4.1272,4.1535,4.1667,4.1667,4.186,4.1991,4.2004,4.1991,4.1991,4.2004,4.2573,4.2883,4.2828,4.3343,4.3569,4.3524,4.3431,4.3367,4.3367,4.2847,4.2552,4.2474,4.1942,4.1663,4.1601,4.1363,4.127,4.1285,4.1029,4.0917,4.0779,3.9187,3.8581,3.8633,3.8702,3.8309,3.7729,3.7149,3.6919,3.6864,3.6864,3.6864,3.6826,3.6602,3.6546,3.649,3.6266,3.621,3.606,3.5493,3.5343,3.5221,3.4787,3.4678,3.472,3.4879,3.4718,3.4557,3.4613,3.4476,3.4034,3.3064,3.2891,3.2891,3.2891,3.2891,3.2814,3.2602,3.2564,3.2499,3.2312,3.2289,3.2072,3.149,3.1463,3.1217,3.0636,3.0598,3.0598,3.0598,3.0598,3.0482,3.025,2.9435,2.902,0.0,0.0,0.0,0.0,0.0,0.0,0.0,0.0,0.0,0.0,0.0,0.0,0.0,0.0,0.0,0.0,0.0,0.0,0.0,0.0,0.0,0.0,4.2109,4.263,4.2369,4.2055,4.2018,4.2492,4.3131,4.3543,4.3543,4.3854,4.4046,4.4008,4.3985,4.3971,4.3971,4.441,4.4662,4.4636,4.5009,4.5208,4.5161,4.4761,4.4544,4.4544,4.3754,4.3345,4.328,4.2861,4.2638,4.2593,4.224,4.2092,4.2073,4.1739,4.159,4.1497,0.0,0.0,0.0,0.0,3.8858,3.8393,3.7942,3.7748,3.7708,3.7708,3.7708,3.7634,3.7299,3.7188,3.7145,3.6792,3.6699,3.6588,3.6123,3.6012,3.5919,3.5562,3.5224,3.5015,3.513,3.4862,3.463,3.4742,3.4781,0.0,3.3856,3.381,3.3853,3.3853,3.3947,3.3853,3.3487,3.343,3.3327,3.2999,3.2972,3.2802,3.2331,3.1983,0.0,0.0,0.0,3.0598,3.0598,3.0598,0.0,0.0,0.0,2.9897,2.9908,2.9071,0.0,0.0,2.6702,2.6134,0.0,0.0,0.0,0.0,0.0,0.0,0.0,0.0,0.0,0.0,0.0,0.0,0.0,0.0,0.0,0.0,4.3088,4.397,4.467,4.4252,4.382,4.3726,4.4984,4.5848,4.5848,4.6487,4.6889,4.6817,4.6775,4.6729,4.6729,4.6685,0.0,0.0,0.0,4.6543,4.6527,4.582,4.5451,4.5417,4.4562,4.4153,4.4135,4.4042,4.4005,4.3968,4.3243,4.2946,4.2872,4.2166,4.1869,4.185,4.1664,4.1144,4.0438,3.9658,3.938,3.938,3.938,0.0,0.0,3.925,3.9175,3.8971,3.8247,3.8042,3.7894,3.7169,3.6965,3.6959,3.6866,3.6835,3.6798,3.6705,3.616,3.564,3.564,3.4971,3.4418,3.4656,3.4625,3.4615,3.4792,3.5,3.5176,3.5176,3.5324,3.5151,3.4403,3.4314,3.4032,3.3276,3.3249,0.0,3.3158,3.2497,3.2041,3.195,3.1183,3.0694,3.0598,3.0598,3.0598,3.0598,3.0598,3.0598,3.0602,2.9827,2.9481,2.9489,2.782,2.7046,0.0,0.0,0.0,0.0,0.0,0.0,0.0,0.0,0.0,0.0,0.0,0.0,0.0,0.0,0.0,4.4026,4.5303,4.6354,4.649,4.6936,4.7012,4.6373,4.6561,4.6749,4.6749,4.6903,4.6982,4.6963,4.6948,4.6948,4.6948,4.6934,4.6919,4.6919,4.6862,4.6766,4.6666,4.6438,4.6318,4.6252,4.5435,0.0,4.5026,4.4321,4.4005,4.3986,4.3838,4.3763,4.3763,4.3596,4.354,4.341,4.211,4.1497,4.1349,4.1181,4.1126,4.1126,4.1126,4.068,4.0155,4.0155,3.9658,3.9064,3.8915,3.8859,0.0,3.8674,3.8637,3.8488,3.7838,3.7671,3.7503,3.6848,3.6588,3.6476,3.6476,3.5826,3.5262,3.5311,3.4765,3.4293,3.4321,3.4682,3.4964,3.4964,3.5001,3.5015,3.5012,3.5009,3.4998,3.5006,3.5001,3.4744,3.4107,3.3917,3.3545,3.2884,3.2038,3.1275,3.0636,3.0598,3.0598,3.0598,3.0598,3.0607,3.0591,3.0421,3.0356,3.0334,2.8644,2.787,0.0,0.0,0.0,0.0,0.0,0.0,0.0,0.0,0.0,0.0,0.0,4.3478,4.3796,0.0,4.5739,4.5739,4.6786,4.7594,4.7594,4.8326,4.8532,4.7706,4.7988,4.8251,4.8251,4.8251,4.8236,4.8152,4.8152,4.8137,4.8091,4.8109,4.8109,4.8109,4.8078,4.7999,4.79,4.7441,4.7171,4.7088,4.6271,4.59,4.5862,4.5026,4.4655,4.4618,4.4191,4.4005,4.4005,4.4005,4.4005,4.3912,4.3113,4.2556,4.2147,4.1739,4.159,4.159,4.159,4.133,4.0996,4.0996,4.0698,4.0346,4.0346,4.0346,4.0271,3.9863,3.9751,3.9547,3.8711,3.8488,3.8395,3.7986,3.7578,3.7299,3.7299,3.6681,3.5974,3.5584,3.5157,3.4699,3.4271,3.439,3.462,3.486,3.5072,3.5234,3.5339,3.5346,3.5395,3.5493,3.5501,3.5348,3.4931,3.4518,3.3953,3.314,3.2681,3.2063,3.1236,3.1197,3.1004,3.0617,3.0598,3.0602,3.0597,3.0597,3.0591,3.0574,2.9734,2.9133,0.0,0.0,0.0,0.0,0.0,0.0,0.0,0.0,4.2962,4.3839,4.4533,4.5176,4.5829,4.6655,4.7237,4.7237,4.7913,4.8438,4.8438,4.9058,4.9246,4.8532,4.9077,4.9509,4.9509,4.9509,4.9459,4.9358,4.934,4.9327,4.9262,4.9262,4.9262,4.9262,4.9262,4.9214,4.9133,4.8443,4.8058,4.7975,4.714,4.675,4.6731,4.5916,4.5528,4.5491,4.4618,4.4153,4.4005,4.4005,4.402,4.4039,4.4005,4.363,4.2995,4.2311,4.2073,4.2073,4.2073,4.1962,4.1832,4.1832,4.172,4.159,4.159,4.159,4.146,4.081,4.0624,4.0457,3.977,3.9584,3.9547,3.938,3.8859,3.8339,3.8172,3.7503,3.6736,3.6086,3.5714,3.5287,3.4581,3.4357,3.4397,3.4703,3.5044,3.5273,3.5324,3.5354,3.5403,3.5432,3.5474,3.552,3.5515,3.493,3.4218,3.3397,3.3358,3.2952,3.2082,3.2043,3.1676,3.0849,3.083,3.0752,3.0598,3.0598,3.0607,3.0591,3.0591,3.0244,4.2316,4.2346,4.2186,4.2233,4.2787,4.3473,0.0,0.0,4.5528,4.6411,4.6674,4.6749,4.6843,4.7519,4.8063,4.8063,4.8795,4.9358,4.9358,4.9434,4.9471,4.9377,4.9434,4.9509,4.9509,4.9509,4.949,4.9474,4.9474,4.9474,4.9459,4.9459,4.9459,4.9459,4.9459,4.9409,4.9276,4.9182,4.9094,4.9031,4.8093,4.7651,4.7632,4.675,4.6364,4.6308,4.5509,4.4711,4.4005,4.4005,4.407,4.4169,4.4055,4.4014,4.402,4.3813,4.3726,4.3726,4.3726,4.3262,4.2667,4.2667,4.2184,4.159,4.159,4.159,4.1571,4.1479,4.146,4.1441,4.1349,4.1311,4.1126,4.042,4.0193,3.99,3.912,3.8321,3.7745,3.7652,3.6495,3.5473,3.538,3.4909,3.4495,3.4316,3.4309,3.4435,3.4678,3.487,3.5037,3.5218,3.5381,3.5528,3.5583,3.556,3.5176,3.4316,3.4258,3.3866,3.2991,3.2952,3.2546,3.1676,3.1676,3.1308,3.0598,3.0598,3.0598,3.0602,3.0602,3.0548,4.3006,4.3808,4.4443,4.4366,4.4982,4.5658,4.5895,4.6223,4.6561,4.6918,4.7368,4.7706,4.7706,4.8382,4.8964,0.0,4.9265,4.9509,4.9509,4.9509,4.9509,4.9509,4.9509,4.9509,4.9509,4.9509,4.9509,4.9509,4.9509,4.9509,4.9509,4.9509,4.9509,4.9509,4.9509,4.9443,4.9308,4.9308,4.9276,4.9214,4.8791,4.8607,4.8588,4.7669,4.6989,4.6475,4.6141,4.5788,4.5417,4.4952,4.4798,4.4792,4.4225,4.407,4.4184,4.4055,4.4005,4.4005,4.4005,4.3782,4.3503,4.3503,4.3262,4.3002,4.3002,4.3002,4.289,4.2426,4.2296,4.2184,4.172,4.159,4.1516,4.1181,4.1089,4.0996,4.0624,3.9918,3.9194,3.8692,3.7671,3.6742,3.629,3.5988,3.5621,3.5039,3.4761,3.466,3.4771,3.486,3.4936,3.5016,3.51,3.5189,3.5292,3.5333,3.5194,3.4831,3.4812,3.4421,3.3607,3.3569,3.3166,3.2276,3.2276,3.1872,3.1072,3.1151,3.0921,3.043,3.043,3.0422,4.4137,4.5281,4.6339,4.6272,4.6722,4.7179,4.7289,4.7331,4.7406,4.765,4.8157,4.8551,4.8551,4.9077,4.9509,4.9509,4.9509,4.9509,4.9509,4.9509,4.9509,4.9509,4.9509,4.9509,4.9509,4.9509,4.9509,4.9509,4.9509,4.9509,4.9509,4.9509,4.9509,4.9509,4.9509,4.944,4.9358,4.9358,4.9327,4.9279,4.9262,4.9228,4.9209,4.8513,4.7688,4.6861,4.6861,4.6715,4.6438,4.5862,4.5637,4.5579,4.495,4.4609,4.4519,4.4389,4.4225,4.4055,4.402,4.4005,4.4005,4.4005,4.4005,4.4005,4.4005,4.4005,4.3875,4.328,4.3132,4.3002,4.2407,4.2259,4.2203,4.198,4.1924,4.1869,4.1646,4.1126,4.0531,3.99,3.8952,3.8042,3.7448,3.6983,3.6513,3.5919,3.5585,3.5239,3.4768,3.4772,3.4851,3.4925,3.4925,3.4961,3.5094,3.5102,3.5092,3.5106,3.5106,3.4838,3.4257,3.4238,3.3829,3.2981,3.2962,3.2542,3.1722,3.1837,3.1431,3.0605,3.0605,3.0471,4.5889,4.644,4.6999,4.7137,4.7071,4.7199,4.7988,4.8157,4.8401,4.9246,4.9434,4.9471,4.9471,4.9471,4.9509,4.9509,4.9509,4.9509,4.9509,4.9509,4.9509,4.9509,4.9509,4.9509,0.0,4.9509,4.9509,4.9509,4.9509,4.9509,4.9509,4.9509,4.9509,4.9509,4.9509,4.9509,4.949,4.949,4.949,4.9493,4.9358,4.9308,4.9289,4.9209,4.8644,4.7762,4.7762,4.7283,4.6494,4.6475,4.6506,4.6552,4.6452,4.5985,4.5357,4.5281,4.4811,4.4184,4.4055,4.4005,4.4005,4.4005,4.4005,4.4005,4.4005,4.4005,4.3986,4.3968,4.3968,4.3968,4.3931,4.3931,4.3726,4.2946,4.276,4.2556,4.1757,4.1571,4.1553,4.1534,4.0178,3.9064,3.9027,3.7726,3.6686,3.6681,3.6656,3.6061,3.4426,3.445,3.4701,3.4962,3.4988,3.5024,3.5098,3.5106,3.5106,3.5106,3.5106,3.5087,3.5068,3.5068,3.4677,3.3875,3.3848,3.3428,3.2554,3.2562,3.2168,3.1374,3.1374,3.0904,4.6544,4.7278,4.7928,4.787,4.8258,4.8739,4.9002,4.9058,4.9152,4.9434,4.9509,4.9509,4.9509,4.9509,4.9509,4.9509,4.9509,4.9509,4.9509,4.9509,4.9509,4.9509,4.9509,0.0,0.0,0.0,0.0,4.9509,4.9509,4.9509,4.9509,4.9509,4.9509,4.9509,4.9509,4.9509,4.9509,4.9509,4.9509,4.9509,4.944,4.9374,4.9308,4.9276,4.9078,4.8735,4.8735,4.8539,4.8176,4.7599,4.7374,4.7334,4.6731,4.639,4.624,4.6134,4.5983,4.5637,4.4507,4.4135,4.4135,4.4135,4.407,4.4005,4.4005,4.4005,4.4005,4.4005,4.4005,4.4005,4.4005,4.4005,4.3931,4.3652,4.3596,4.3522,4.3243,4.276,4.2389,4.2389,4.1516,4.0754,4.0754,4.0308,3.9565,3.8451,3.6967,3.5764,3.5138,3.4689,3.4454,3.4588,3.4609,3.4651,3.4763,3.4773,3.4773,3.4773,3.4773,3.4773,3.4773,3.4773,3.4631,3.4366,3.4366,3.396,3.3138,3.3221,3.2847,3.2049,3.2049,3.1897,4.7377,4.8144,4.878,4.875,4.9123,4.9509,4.9509,4.9509,4.9509,4.9509,4.9509,4.9509,4.9509,4.9509,4.9509,4.9509,4.9509,4.9509,4.9509,4.9509,4.9509,4.9509,4.9509,4.9509,0.0,0.0,0.0,4.9509,4.9509,4.9509,4.9509,4.9509,4.9509,4.9509,4.9509,4.9509,4.9509,4.9509,4.9509,4.9509,4.9509,4.944,4.9374,4.9374,4.9327,4.9228,4.9228,4.9197,4.9096,4.8536,4.8294,4.824,4.7655,4.7313,4.7146,4.7001,4.6834,4.6432,4.5062,4.46,4.4544,4.4228,4.407,4.4005,4.4005,4.4005,4.4005,4.4005,4.4005,4.4005,4.4005,4.4005,4.4005,4.4005,4.4005,4.4005,4.4005,4.3596,4.3225,4.3225,4.2575,4.2017,4.2017,4.1776,4.1219,4.016,3.8234,3.669,3.605,3.5256,3.4782,3.4853,3.4614,3.4473,3.455,3.4591,3.4612,3.4612,3.4612,3.4612,3.4612,3.4612,3.4612,3.4612,3.4612,3.4339,3.3832,3.3918,3.3544,3.2751,3.2751,3.2581,4.8409,4.8972,4.9536,4.9667,4.9593,4.9509,4.9509,4.9509,4.9509,4.9509,4.9509,4.9509,4.9509,0.0,4.9509,4.9509,4.9509,4.9509,4.9509,4.9509,4.9509,0.0,0.0,0.0,0.0,0.0,0.0,4.9509,4.9509,4.9509,4.9509,4.9509,4.9509,4.9509,4.9509,4.9509,4.9509,4.9509,4.9509,4.9509,4.9509,4.9509,4.9509,4.9509,4.9424,4.9308,4.9308,4.9276,4.9214,4.9195,4.9195,4.9179,4.9116,4.8684,4.8055,4.7923,4.7418,4.6701,4.5741,4.5395,4.5228,4.4355,4.4076,4.4061,4.4005,4.4005,4.4005,4.4005,4.4005,4.4005,4.4005,4.4005,4.4005,4.4005,4.4005,4.4005,4.4005,4.4005,4.4005,4.4005,4.3373,4.2853,4.2853,4.2184,4.1664,4.1664,4.0384,3.8829,3.7124,3.6187,3.5689,3.5749,3.5041,3.457,3.4581,3.4599,3.4612,3.4612,3.4612,3.4612,3.4612,3.4612,3.4612,3.4612,3.4612,3.4612,3.4612,3.4612,3.4207,3.3446,3.3446,3.3025,4.9089,4.9424,4.9638,4.9567,4.9539,4.9509,4.9509,4.9509,4.9509,4.9509,4.9509,4.9509,4.9509,4.9509,0.0,4.9509,4.9509,0.0,4.9509,4.9509,0.0,4.9509,0.0,4.9509,4.9509,4.9509,0.0,0.0,4.9509,4.9509,4.9509,4.9509,4.9509,4.9509,4.9509,4.9509,4.9509,4.9509,4.9509,4.9509,4.9509,4.9509,4.9509,4.9509,4.9474,4.9459,4.9459,4.9361,4.9195,4.926,4.9244,4.9214,4.9181,4.9099,4.8942,4.8816,4.8652,4.8354,4.7483,4.6778,4.6142,4.5367,4.5075,4.4917,4.4321,4.4135,4.4135,4.4135,4.407,4.402,4.4119,4.407,4.4005,4.4005,4.4005,4.4005,4.4005,4.4005,4.4005,4.4005,4.3838,4.3689,4.3689,4.302,4.2482,4.2482,4.1696,4.0458,3.8752,3.7411,3.6638,3.659,3.5921,3.5492,3.5537,3.4958,3.4612,3.4612,3.4612,3.4612,3.4612,3.4612,3.4612,3.4612,3.4612,3.4612,3.4612,3.4612,3.4489,3.4282,3.4282,3.417,4.9495,4.9593,4.9593,4.9505,4.9509,4.9509,4.9509,4.9509,4.9509,4.9509,4.9509,0.0,4.9509,4.9509,4.9509,0.0,0.0,0.0,4.9509,4.9509,4.9509,0.0,4.9809,0.0,5.0034,5.0353,5.056,0.0,4.9903,4.9509,4.9509,4.9509,4.9509,4.9509,4.9509,4.9509,4.9509,4.9509,4.9509,4.9509,4.9509,4.9509,4.9509,4.9509,4.9509,4.9509,4.9509,4.9443,4.9345,4.9358,4.9377,4.9329,4.9279,4.9292,4.9358,4.9249,4.92,4.9125,4.8639,4.8156,4.7546,4.6371,4.5932,4.5738,4.4966,4.4709,4.4619,4.4296,4.4153,4.4085,4.4119,4.4104,4.4085,4.4085,4.4085,4.4085,4.4085,4.4116,4.4131,4.4085,4.4085,4.407,4.4005,4.3633,4.3351,4.3416,4.275,4.1917,4.0943,3.9231,3.8091,3.8053,3.7035,3.6358,3.6388,3.5961,3.5551,3.5184,3.5165,3.4996,3.4631,3.4612,3.4612,3.4612,3.4612,3.4612,3.4612,3.4612,3.4612,3.4612,3.4612,3.4612,4.9682,4.9593,4.9509,4.9509,4.9509,4.9509,4.9509,4.9509,4.9509,4.9509,0.0,4.9509,4.9509,4.9509,4.9509,4.9509,0.0,4.9509,4.9509,4.9509,4.9509,4.9509,5.0203,5.0707,5.0707,5.1424,5.1912,5.1912,5.0616,4.9828,4.9828,4.9715,4.9602,4.9509,4.9509,4.9509,4.9509,4.9509,4.9509,4.9509,4.9509,4.9509,4.9509,4.9509,4.9509,4.9509,4.9509,4.949,4.9474,4.949,4.949,4.9474,4.9374,4.9409,4.9474,4.9358,4.9308,4.9308,4.9308,4.926,4.8936,4.7324,4.6759,4.6562,4.5789,4.5441,4.5186,4.4538,4.4307,4.4199,4.4067,4.4135,4.4199,4.4199,4.4199,4.4199,4.4214,4.4274,4.427,4.4229,4.4199,4.4169,4.407,4.402,4.4055,4.4184,4.3517,4.3001,4.3011,4.114,3.9826,3.982,3.8389,3.7406,3.7359,3.7188,3.681,3.6104,3.6066,3.5672,3.4808,3.4771,3.4714,3.4602,3.4612,3.4612,3.4612,3.4612,3.4612,3.4612,3.4612,3.4612,4.9692,4.9593,4.9509,4.9509,4.9509,4.9509,4.9509,4.9509,0.0,0.0,4.9509,4.9509,4.9509,4.9509,4.9509,4.9509,4.9509,4.9509,4.9509,4.9509,4.9509,0.0,5.0203,5.0707,5.0707,5.1424,0.0,0.0,5.1649,5.148,5.148,5.0842,5.0185,4.9527,4.9509,4.9509,4.9509,4.9509,4.9509,4.9509,4.9509,4.9509,4.9509,4.9509,4.9509,4.9509,4.9509,4.9443,4.934,4.944,4.9424,4.934,4.9424,4.9474,4.9474,4.9358,4.9308,4.9308,4.9308,4.926,4.9029,4.8079,4.7746,4.7564,4.6677,4.5963,4.545,4.5316,4.4793,4.4285,4.4325,4.427,4.4214,4.4255,4.4244,4.4214,4.4255,4.4285,4.43,4.4285,4.4244,4.4214,4.424,4.4116,4.4055,4.4184,4.3517,4.3001,4.3001,4.2173,4.1552,4.1493,4.0096,3.9157,3.9145,3.7899,3.7035,3.6904,3.6885,3.6528,3.5709,3.5672,3.5334,3.4602,3.4612,3.4612,3.4612,3.4612,3.4612,3.4612,3.4612,3.4612,4.9843,4.9726,4.9505,4.9597,4.9551,4.9509,4.9509,0.0,0.0,0.0,4.9509,4.9509,4.9509,4.9509,0.0,4.9509,4.9509,4.9509,4.9509,4.9509,0.0,4.9509,0.0,5.1311,0.0,5.2456,5.3207,5.3207,5.3207,5.2832,5.1949,5.1142,5.0316,4.9527,4.9509,4.9509,4.9509,4.9509,4.9509,4.9509,4.9509,4.9509,4.9509,4.9509,4.9509,4.9509,4.9509,4.9474,4.9409,4.9474,4.9459,4.9409,4.9474,4.9509,4.949,4.9424,4.939,4.939,4.939,4.9393,4.927,4.8811,4.8651,4.8469,4.7599,4.7074,4.671,4.6246,4.5567,4.4976,4.4961,4.4647,4.4314,4.4325,4.4329,4.4314,4.4387,4.4387,4.434,4.434,4.4329,4.43,4.43,4.4207,4.4046,4.3725,4.3343,4.2955,4.2534,4.2208,4.1991,4.1965,4.0916,4.0215,4.0215,3.9495,3.8638,3.7774,3.7718,3.7361,3.6554,3.6517,3.6329,3.5908,3.5484,3.5277,3.5277,3.4808,3.4612,3.4612,3.4612,3.4612,4.9925,4.9792,4.9567,4.9638,4.9593,4.9536,4.9509,4.9509,0.0,4.9509,4.9509,4.9509,4.9509,4.9509,4.9509,0.0,4.9509,4.9509,4.9509,4.9509,4.9509,0.0,0.0,0.0,5.1912,5.3414,0.0,5.4409,5.4409,5.3752,5.2268,5.1386,5.0579,4.9771,4.9584,4.9509,4.9509,4.9509,4.9509,4.9509,4.9509,4.9509,4.9509,4.9509,4.9509,4.9509,4.9509,4.9509,4.9509,4.9509,4.9509,4.9509,4.9509,4.9509,4.9509,4.9509,4.9509,4.9509,4.9509,4.9509,4.9474,4.9374,4.9276,4.9099,4.845,4.8149,4.7866,4.7193,4.6472,4.584,4.5612,4.5103,4.4603,4.4435,4.4411,4.4444,4.4501,4.4473,4.4411,4.4411,4.4411,4.4383,4.4358,4.4314,4.4109,4.3526,4.3147,4.2692,4.2053,4.1691,4.1554,4.1723,4.1191,4.0797,4.0797,4.0797,4.0159,3.8676,3.8751,3.8394,3.7411,3.7373,3.7279,3.711,3.6479,3.616,3.616,3.5465,3.5052,3.4883,3.4883,3.4771,4.9721,4.9707,4.9667,4.9551,4.9593,4.9653,4.9521,0.0,4.9509,4.9509,4.9509,4.9509,4.9509,4.9509,4.9509,0.0,0.0,4.9509,4.9509,4.9509,4.9509,0.0,0.0,0.0,5.1912,5.3414,5.4409,5.4409,5.4409,5.4015,5.313,5.225,5.1424,5.0632,4.9884,4.9509,4.9509,4.9509,4.9509,4.9509,4.9509,4.9509,4.9509,4.9509,4.9509,4.9509,4.9509,4.9509,4.9509,4.9509,4.9509,4.9509,4.9509,4.9509,4.9509,4.9509,4.9509,4.9509,4.9509,4.9509,4.9509,4.9493,4.9409,4.9273,4.9137,4.8611,4.8075,4.7985,4.7443,4.6697,4.589,4.5588,4.53,4.4566,4.4458,4.4501,4.4501,4.4501,4.4501,4.4501,4.4426,4.4411,4.4473,4.4387,4.431,4.4289,4.2978,4.1986,4.1924,4.0684,4.0096,4.0835,4.0835,4.0797,4.0797,4.0797,4.0422,3.9533,4.0159,3.9858,3.8263,3.8188,3.785,3.711,3.7035,3.6998,3.6998,3.6904,3.649,3.5784,3.5784,3.5353,4.9871,4.9816,4.9707,4.9736,4.9721,4.9678,4.9638,0.0,4.9509,4.9509,4.9509,4.9509,4.9509,4.9509,4.9521,0.0,0.0,0.0,4.9608,4.9551,4.9509,4.9509,5.0917,0.0,0.0,0.0,5.4409,5.4409,5.4409,5.4259,5.3939,5.3132,5.2078,5.0745,5.0391,4.9978,4.9509,4.9509,4.9509,4.9509,4.9509,4.9509,4.9509,4.9509,4.9509,4.9509,4.9509,4.9509,4.9509,4.9509,4.9509,4.9509,4.9509,4.9509,4.9509,4.9509,4.9509,4.9509,4.9509,4.9509,4.9509,4.9509,4.9474,4.9409,4.9292,4.9102,4.894,4.8856,4.8302,4.7631,4.7293,4.6453,4.5467,4.466,4.4487,4.4501,4.4501,4.4501,4.4501,4.4501,4.4487,4.4473,4.4501,4.4458,4.4261,4.3816,4.316,4.2372,4.1378,4.0709,4.0265,4.0096,4.0497,4.0797,4.0797,4.0797,4.0666,4.0328,4.0609,4.0722,4.0522,4.0522,4.0372,4.0065,3.9577,3.9333,3.9333,3.8838,3.8444,3.8124,3.8124,3.7662,4.9876,4.9857,4.9816,4.983,4.9802,4.975,0.0,0.0,4.9551,4.9524,4.9521,4.9551,4.9509,4.9536,4.9578,4.9678,0.0,4.9578,4.9678,4.9578,4.9509,0.0,0.0,5.1912,5.1912,5.3414,5.4409,5.4409,5.4409,5.4409,5.4409,5.3846,5.2792,5.1104,5.082,5.0297,4.9509,4.9509,4.9509,4.9509,4.9509,4.9509,4.9509,4.9509,4.9509,4.9509,4.9509,4.9509,4.9509,4.9509,4.9509,4.9509,4.9509,4.9509,4.9509,4.9509,4.9509,4.9509,4.9509,4.9509,4.9509,4.9509,4.9509,4.9474,4.939,4.9424,4.9474,4.9374,4.8787,4.8194,4.8194,4.6955,4.5566,4.5003,4.467,4.4501,4.4501,4.4501,4.4501,4.4501,4.4501,4.4501,4.4501,4.4501,4.4313,4.3745,4.3444,4.2862,4.168,4.1323,4.0854,4.004,4.0459,4.0703,4.0459,4.0666,4.0703,4.0459,4.0891,4.1291,4.1629,4.1873,4.2004,4.2004,4.1441,4.1154,4.1154,4.0591,4.019,3.9946,3.9946,3.9514,4.9582,4.9792,5.0031,4.9778,4.9802,4.9871,0.0,0.0,4.9667,4.9521,4.9612,4.9667,4.9521,4.9608,4.9692,4.9692,4.9692,0.0,4.9692,4.9578,4.9509,0.0,5.0917,5.1912,5.1912,5.3414,5.4409,5.4409,5.4409,5.4409,5.4409,5.439,5.362,5.1949,5.1123,5.0297,4.9509,4.9509,4.9509,4.9509,4.9509,4.9509,4.9509,4.9509,4.9509,4.9509,4.9509,4.9509,4.9509,4.9509,4.9509,4.9509,4.9509,4.9509,4.9509,4.9509,4.9509,4.9509,4.9509,4.9509,4.9509,4.9509,4.9509,4.9509,4.9509,4.9509,4.9509,4.9509,4.887,4.8194,4.8194,4.6955,4.5697,4.5697,4.5078,4.4501,4.4501,4.4501,4.4501,4.4501,4.4501,4.4501,4.4501,4.4501,4.4501,4.4482,4.382,4.3294,4.3275,4.2511,4.1685,4.0872,4.0797,4.0478,3.9683,4.0328,4.0459,3.9664,4.1116,4.1629,4.0854,4.1573,4.2004,4.2004,4.1986,4.1986,4.1986,4.1986,4.1573,4.0797,4.0797,4.0347,4.9862,4.9939,4.9933,4.9857,4.9871,4.9871,4.9736,4.9692,4.9678,4.9653,4.9663,4.9721,4.9759,4.9736,4.9764,4.9939,4.9835,0.0,0.0,0.0,0.0,4.9623,5.098,5.2362,5.3508,5.409,5.4409,5.4409,5.4409,5.4409,5.4409,5.4409,5.3639,5.1949,5.1649,5.0879,4.9509,4.9509,4.9509,4.9509,4.9509,4.9509,4.9509,4.9509,4.9509,4.9509,4.9509,4.9509,4.9509,4.9509,4.9509,4.9509,4.9509,4.9509,4.9509,4.9509,4.9509,4.9509,4.9509,4.9509,4.9509,4.9509,4.9509,4.9509,4.9509,4.9509,4.9509,4.9509,4.9302,4.8945,4.8345,4.78,4.7124,4.596,4.551,4.5172,4.4613,4.4501,4.4501,4.4501,4.4501,4.4501,4.4501,4.4501,4.4501,4.4501,4.4275,4.3933,4.3369,4.305,4.2562,4.1704,4.161,4.1079,3.9721,3.9833,4.0115,4.0403,4.1404,4.2155,4.2487,4.3281,4.3712,4.3712,4.3712,4.3712,4.3712,4.3712,4.3581,4.3318,4.2769,4.2055,0.0,4.9965,4.9965,4.9906,4.9939,0.0,0.0,4.9843,4.9848,4.9792,4.9821,4.9857,4.9879,4.9871,4.9898,5.007,4.9952,4.9912,0.0,0.0,4.9853,5.056,5.1403,5.2618,5.4404,5.4474,5.4424,5.4472,5.4424,5.4409,5.4409,5.4409,5.377,5.2437,5.2081,5.1273,4.9959,4.9659,4.9509,4.9509,4.9509,4.9509,4.9509,4.9509,4.9509,4.9509,4.9509,4.9509,0.0,4.9509,4.9509,4.9509,4.9509,4.9509,4.9509,4.9509,4.9509,4.9509,4.9509,4.9509,4.9509,4.9509,4.9509,4.9509,4.9509,4.9509,4.9509,4.9509,4.9509,4.9377,4.8833,4.8438,4.7932,4.688,4.6167,4.5566,4.5059,4.4707,4.4501,4.4501,4.4501,4.4501,4.4501,4.4501,4.4501,4.4501,4.4501,4.4313,4.382,4.3745,4.3426,4.2567,4.2492,4.1961,4.0609,4.0228,4.0403,4.121,4.1723,4.238,4.3257,4.4083,4.4501,4.4501,4.4501,4.4501,4.4501,4.4501,4.4501,4.4482,4.3989,4.3463,0.0,4.9912,5.007,4.992,0.0,0.0,0.0,0.0,0.0,4.9952,5.0018,5.007,4.9952,5.0031,5.0108,5.012,5.0108,5.0108,5.012,4.9941,5.0415,5.2005,5.2112,5.2768,5.472,5.4622,5.4491,5.4613,5.4489,5.4407,5.4407,5.4409,5.4069,5.3316,5.2397,5.1534,5.0707,4.9903,4.9509,4.9509,4.9509,4.9509,4.9509,4.9509,4.9509,4.9509,4.9509,4.9509,4.9509,4.9509,4.9509,4.9509,4.9509,4.9509,4.9509,4.9509,4.9509,4.9509,4.9509,4.9509,4.9509,4.9509,4.9509,4.9509,4.9509,4.9509,4.9509,4.9509,4.9509,4.9509,4.9509,4.8908,4.8269,4.8194,4.7012,4.5848,4.5735,4.5115,4.4576,4.4501,4.4501,4.4501,4.4501,4.4501,4.4501,4.4501,4.4501,4.4501,4.4501,4.4501,4.4214,4.3463,4.3388,4.3069,4.2248,4.1366,4.121,4.1948,4.2061,4.2455,4.3257,4.4083,4.4501,4.4501,4.4501,4.4501,4.4501,4.4501,4.4501,4.4501,4.4501,4.4501,5.0018,0.0,5.007,4.992,5.0005,5.007,0.0,0.0,0.0,0.0,0.0,5.012,5.0175,5.0158,5.0133,5.0243,5.017,5.0133,5.0243,5.0672,5.1345,5.2243,5.2843,5.3652,5.4791,5.4826,5.4795,5.4822,5.4648,5.4549,5.4549,5.4474,5.4364,5.4285,5.2837,5.1607,5.0707,4.9903,4.9509,4.9509,4.9509,4.9509,4.9509,4.9509,4.9509,4.9509,4.9509,4.9509,4.9509,4.9509,4.9509,4.9509,4.9509,4.9509,4.9509,4.9509,4.9509,4.9509,4.9509,4.9509,4.9509,4.9509,4.9509,4.9509,4.9509,4.9509,4.9509,4.9509,4.9509,4.9509,4.9509,4.9358,4.902,4.8363,4.7894,4.7256,4.5979,4.5547,4.5247,4.4613,4.4501,4.4501,4.4501,4.4501,4.4501,4.4501,4.4501,4.4501,4.4501,4.4501,4.4426,4.4252,4.4219,4.4144,4.3919,4.2567,4.1798,4.1986,4.2637,4.3088,4.3294,4.4083,4.4501,4.4501,4.4501,4.4501,4.4501,4.4501,4.4501,4.4501,4.4501,4.4501,5.012,5.0095,5.0082,5.0018,5.0095,5.0182,5.0089,0.0,0.0,0.0,0.0,5.0219,5.029,5.0243,5.0219,5.029,5.0243,5.0194,5.0207,5.0901,5.1674,5.2398,5.3158,5.4007,5.5028,5.499,5.4931,5.4985,5.4818,5.4726,5.4726,5.4667,5.4651,5.4726,5.312,5.1949,5.1396,5.0252,4.9623,4.9509,4.9567,4.9567,4.9509,4.9509,4.9509,4.9509,4.9509,4.9509,4.9509,4.9509,4.9509,4.9509,4.9509,4.9509,4.9509,4.9509,4.9509,4.9509,4.9509,4.9509,4.9509,4.9509,4.9509,4.9509,4.9509,4.9509,4.9509,4.9509,4.9509,4.9509,4.9509,4.9509,4.9377,4.8908,4.8495,4.795,4.703,4.6242,4.5566,4.5153,4.4745,4.4613,4.5003,4.5059,4.519,4.5589,4.5646,4.5646,4.5646,4.5303,4.5059,4.5059,4.4707,4.4501,4.4501,4.3675,4.3149,4.3149,4.3238,4.3463,4.3839,4.4271,4.4501,4.4501,4.4501,4.4501,4.4501,4.4501,4.4501,4.4501,4.4501,4.4501,5.017,5.0133,5.0133,5.0108,5.0207,5.0302,5.0302,0.0,0.0,0.0,0.0,5.0302,5.0302,5.0302,5.0302,5.0302,5.0302,5.0324,5.0336,5.1078,5.1916,5.2735,5.3446,5.4291,5.5301,5.5137,5.5033,5.514,5.5014,5.4931,5.4931,5.4916,5.4859,5.4741,5.3243,5.2314,5.2084,5.0633,4.9792,4.9567,4.9667,4.9638,4.9521,4.9524,4.9509,4.9509,4.9509,4.9509,4.9509,4.9509,4.9509,4.9509,4.9509,4.9509,4.9509,4.9509,4.9509,4.9509,4.9509,4.9509,4.9509,4.9509,4.9509,4.9509,4.9509,4.9509,4.9509,4.9509,4.9509,4.9509,4.9509,4.9509,4.9509,4.9509,4.8945,4.8363,4.8232,4.7068,4.6054,4.5923,4.5359,4.5101,4.5772,4.5904,4.6148,4.6899,4.7012,4.7012,4.7012,4.6354,4.5904,4.5904,4.5303,4.4876,4.4876,4.4876,4.482,4.4688,4.3933,4.3782,4.4463,4.4501,4.4501,4.4501,4.4501,4.4501,4.4501,4.4501,4.4501,4.4501,4.4501,4.4501,5.0278,5.0267,5.0243,5.0133,5.0207,5.0302,5.0302,0.0,0.0,0.0,0.0,0.0,0.0,5.0302,5.0302,5.0302,5.0302,5.0538,5.1259,5.2073,5.2895,5.3773,5.4606,5.5198,5.5371,5.5364,5.5319,5.5345,5.5187,5.5066,5.5066,5.4956,5.4638,5.4068,5.3093,5.2224,5.1521,5.044,4.9885,4.9843,4.975,4.9678,4.9667,4.9551,4.9509,4.9509,4.9509,4.9509,4.9509,4.9509,4.9509,4.9509,4.9509,4.9509,4.9509,4.9509,4.9509,4.9509,4.9509,4.9509,4.9509,4.9509,4.9509,4.9509,4.9509,4.9509,4.9509,4.9509,4.9509,4.9509,4.9509,4.9509,4.9509,4.9509,4.9396,4.9096,4.8363,4.7988,4.7612,4.6936,4.6711,4.6674,4.6786,4.6805,4.6861,4.6993,4.7012,4.7012,4.7012,4.688,4.6805,4.6805,4.6692,4.6617,4.6617,4.6617,4.6298,4.5566,4.4759,4.4369,4.4482,4.4501,4.4501,4.4501,4.4501,4.4501,4.4501,4.4501,4.4501,4.4501,4.4501,4.4501,5.0302,5.0302,5.029,5.0231,5.0255,5.0302,5.0302,0.0,0.0,0.0,0.0,0.0,0.0,5.0302,5.0302,5.0302,5.0302,5.0608,5.1486,5.2289,5.311,5.4008,5.4868,5.5403,5.5403,5.5403,5.5403,5.5403,5.53,5.5273,5.5273,5.5206,5.4811,5.402,5.3162,5.2323,5.1516,5.0577,5.0038,4.9912,4.9912,4.9871,4.9802,4.975,4.9721,4.9721,4.9721,4.9682,4.9608,4.9608,4.9567,4.9509,4.9509,4.9509,4.9509,4.9509,4.9509,4.9509,4.9509,4.9509,4.9509,4.9509,4.9509,4.9509,4.9509,4.9509,4.9509,4.9509,4.9509,4.9509,4.9509,4.9509,4.9509,4.9509,4.9509,4.9396,4.8983,4.8532,4.8082,4.7725,4.7293,4.7143,4.7575,4.765,4.7819,4.8288,4.8363,4.8363,4.8363,4.7932,4.765,4.765,4.7256,4.7012,4.7012,4.7012,4.6636,4.5754,4.4946,4.4501,4.4501,4.4501,4.4501,4.4501,4.4501,4.4501,4.4501,4.4501,4.4501,4.4501,4.4501,4.4501,5.0302,5.0302,5.0302,5.0302,5.0302,5.0302,5.0302,5.0302,5.0302,0.0,0.0,0.0,5.0302,5.0302,5.0302,5.0302,5.0474,5.0913,5.1773,5.2594,5.3435,5.4295,5.5002,5.5403,5.5403,5.5403,5.5403,5.5403,5.5403,5.5307,5.5116,5.5097,5.4619,5.355,5.2862,5.2136,5.1314,5.0627,5.0207,4.9986,5.007,5.0044,4.9952,4.9906,4.9912,4.9912,4.9912,4.9843,4.975,4.975,4.9678,4.9593,4.9593,4.9593,4.9593,4.9593,4.9593,4.9578,4.9567,4.9551,4.9536,4.9505,4.9521,4.9536,4.9524,4.9521,4.9536,4.9524,4.9509,4.9509,4.9509,4.9509,4.9509,4.9509,4.9509,4.9509,4.9509,4.8983,4.8495,4.8495,4.8007,4.7781,4.8401,4.8495,4.872,4.9396,4.9509,4.9509,4.9509,4.8927,4.8495,4.8495,4.795,4.7594,4.7594,4.7406,4.6993,4.6336,4.5528,4.4989,4.4782,4.4782,4.4688,4.4501,4.4501,4.4501,4.4501,4.4501,4.4501,4.4501,4.4501,4.4501,5.0302,5.0302,5.0302,5.0302,5.0302,5.0302,5.0302,5.0302,5.0302,5.0302,0.0,0.0,5.0302,5.0302,5.0302,5.0302,5.099,5.1792,5.2594,5.3454,5.4333,5.5212,5.5365,5.5403,5.5403,5.5403,5.5403,5.5403,5.5403,5.5059,5.4237,5.4199,5.3454,5.1818,5.1735,5.1276,5.0397,5.034,5.029,5.0267,5.0158,5.0095,5.0082,4.9965,4.9912,4.9912,4.9912,4.9879,4.9898,4.9898,4.9885,4.9871,4.9871,4.9871,4.9871,4.9871,4.9871,4.9857,4.9736,4.9678,4.9667,4.9536,4.9578,4.9648,4.9536,4.9597,4.9667,4.9536,4.9509,4.9509,4.9509,4.9509,4.9509,4.9509,4.9509,4.9509,4.9509,4.9452,4.9415,4.9415,4.9358,4.934,4.9396,4.9415,4.9434,4.949,4.9509,4.9509,4.9509,4.9452,4.9415,4.9415,4.9358,4.9321,4.9321,4.857,4.8082,4.8007,4.7274,4.6467,4.5641,4.5604,4.5266,4.4501,4.4501,4.4501,4.4501,4.4501,4.4501,4.4501,4.4501,4.4501,5.0302,5.0302,5.0302,5.0302,5.0302,5.0302,5.0302,5.0302,5.0302,5.0302,5.0302,0.0,5.0302,5.0302,5.0302,5.0302,5.1028,5.1888,5.269,5.355,5.4428,5.5307,5.5403,5.5403,5.5403,5.5403,5.5403,5.5403,5.4906,5.4448,5.4123,5.3588,5.2766,5.1627,5.1589,5.1181,5.0302,5.0302,5.0302,5.0302,5.0255,5.0231,5.0219,5.0163,5.0158,5.0158,5.0158,5.0108,5.0031,5.0031,4.9978,4.9912,4.9912,4.9912,4.9912,4.9912,4.9912,4.9879,4.9843,4.9816,4.9816,4.9778,4.9774,4.9816,4.9759,4.9721,4.9678,4.9638,4.9567,4.9509,4.9509,4.9509,4.9509,4.9509,4.9509,4.9509,4.9509,4.9509,4.9509,4.9509,4.9509,4.9509,4.9509,4.9509,4.9509,4.9509,4.9509,4.9509,4.9509,4.9509,4.9509,4.9509,4.9509,4.9509,4.9509,4.9208,4.9002,4.9002,4.7744,4.6861,4.6523,4.6505,4.6373,4.6058,4.5528,4.5247,4.5247,4.4726,4.4501,4.4501,4.4501,4.4501,5.0302,5.0302,5.0302,5.0302,5.0302,5.0302,5.0302,5.0302,5.0302,5.0302,5.0302,5.0302,5.0302,5.0302,5.0302,5.0302,5.1238,5.2174,5.2709,5.3798,5.4734,5.5326,5.5403,5.5403,5.5403,5.5403,5.5288,5.5021,5.4448,5.3874,5.3339,5.2747,5.204,5.1219,5.1188,5.0913,5.0302,5.0302,5.0302,5.0302,5.0302,5.0302,5.0302,5.0302,5.0302,5.0302,5.0302,5.0255,5.017,5.017,5.012,5.0044,5.0044,5.0044,5.0044,5.0044,5.0044,5.0012,4.9992,4.9965,4.9965,4.9906,4.9939,4.9965,4.9906,4.9871,4.9821,4.9778,4.9692,4.9608,4.9563,4.9521,4.9509,4.9509,4.9509,4.9509,4.9509,4.9509,4.9509,4.9509,4.9509,4.9509,4.9509,4.9509,4.9509,4.9509,4.9509,4.9509,4.9509,4.9509,4.9509,4.9509,4.9509,4.9509,4.9509,4.9509,4.9509,4.9509,4.842,4.7669,4.7387,4.7387,4.7256,4.7012,4.6411,4.596,4.5697,4.5153,4.4745,4.4501,4.4501,4.4501,5.0302,5.0302,5.0302,5.0302,5.0302,5.0302,5.0302,5.0302,5.0302,5.0302,5.0302,5.0302,5.0302,5.0302,5.0302,5.0302,5.1697,5.2785,5.2805,5.4295,5.5403,5.5403,5.5403,5.5403,5.5403,5.5403,5.504,5.4161,5.4085,5.3359,5.1684,5.1589,5.1188,5.034,5.0302,5.0302,5.0302,5.0302,5.0302,5.0302,5.0302,5.0302,5.0302,5.0302,5.0302,5.0302,5.0302,5.0302,5.0302,5.0302,5.0302,5.0302,5.0302,5.0302,5.0302,5.0302,5.0302,5.0278,5.0145,5.0108,5.0082,4.9952,4.9986,5.0082,4.9933,5.0005,5.007,4.9952,4.9912,4.9871,4.9736,4.9593,4.949,4.9509,4.9509,4.9509,4.9509,4.9509,4.9509,4.9509,4.9509,4.9509,4.9509,4.9509,4.9509,4.9509,4.9509,4.9509,4.9509,4.9509,4.9509,4.9509,4.9509,4.9509,4.9509,4.9509,4.9509,4.9509,4.9509,4.9114,4.8251,4.8194,4.7838,4.7049,4.703,4.6599,4.5716,4.5716,4.5303,4.4501,4.4501,4.4501,5.0302,5.0302,5.0302,5.0302,5.0302,5.0302,5.0302,5.0302,0.0,0.0,5.0302,5.0302,5.0302,5.0302,5.0302,5.0302,5.1238,5.2155,5.2709,5.376,5.4715,5.5326,5.5403,5.5403,5.5403,5.4849,5.4371,5.4123,5.3015,5.2117,5.1627,5.1028,5.0569,5.0302,5.0302,5.0302,5.0302,5.0302,5.0302,5.0302,5.0302,5.0302,5.0302,5.0302,5.0302,5.0302,5.0302,5.0302,5.0302,5.0302,5.0302,5.0302,5.0302,5.0302,5.0302,5.0302,5.0302,5.029,5.0255,5.0243,5.0243,5.0188,5.0219,5.0231,5.0175,5.0145,5.0095,5.0057,4.9978,4.9898,4.9857,4.9802,4.9736,4.9551,4.9509,4.9509,4.9509,4.9509,4.9509,4.9509,4.9509,4.9509,4.9509,4.9509,4.9509,4.9509,4.9509,4.9509,4.9509,4.9509,4.9509,4.9509,4.9509,4.9509,4.9509,4.9509,4.9509,4.9509,4.9509,4.9377,4.9133,4.9114,4.9002,4.8758,4.8157,4.7725,4.7462,4.6899,4.6186,4.5341,4.5341,4.504,5.0302,5.0302,5.0302,5.0302,5.0302,5.0302,5.0302,5.0302,5.0302,5.0302,5.0302,5.0302,5.0302,5.0302,5.0302,5.0302,5.1028,5.1773,5.227,5.3053,5.3779,5.4295,5.4371,5.4371,5.4371,5.3894,5.3454,5.3129,5.2174,5.1436,5.1104,5.0588,5.0302,5.0302,5.0302,5.0302,5.0302,5.0302,5.0302,5.0302,5.0302,5.0302,5.0302,5.0302,5.0302,5.0302,5.0302,5.0302,5.0302,5.0302,5.0302,5.0302,5.0302,5.0302,5.0302,5.0302,5.0302,5.0302,5.0302,5.0302,5.0302,5.0302,5.0302,5.0302,5.0302,5.0243,5.0182,5.0182,5.0133,5.0057,4.9986,4.9992,4.9925,4.9707,4.9667,4.9653,4.9578,4.9582,4.9567,4.9505,4.9509,4.9509,4.9509,4.9509,4.9509,4.9509,4.9509,4.9509,4.9509,4.9509,4.9509,4.9509,4.9509,4.9509,4.9509,4.9509,4.9509,4.9509,4.9509,4.9509,4.9509,4.9509,4.9509,4.9509,4.8983,4.8551,4.8194,4.7706,4.7049,4.6204,4.5866,4.5435,5.0302,5.0302,5.0302,5.0302,5.0302,5.0302,5.0302,5.0278,5.0248,5.029,5.0302,5.0302,5.0302,5.0302,5.0302,5.0302,5.0971,5.1513,5.1589,5.2231,5.2709,5.2785,5.2805,5.2805,5.2805,5.2728,5.2384,5.1658,5.1544,5.1142,5.034,5.0302,5.0302,5.0302,5.0302,5.0302,5.0302,5.0302,5.0302,5.0302,5.0302,5.0302,5.0302,5.0302,5.0302,5.0302,5.0302,5.0302,5.0302,5.0302,5.0302,5.0302,5.0302,5.0302,5.0302,5.0302,5.0302,5.0302,5.0302,5.0302,5.0302,5.0302,5.0302,5.0302,5.0302,5.0302,5.0302,5.0302,5.0302,5.0267,5.0145,5.012,5.0095,4.9978,4.9925,4.9857,4.9707,4.9692,4.9663,4.9505,4.9474,4.9474,4.9459,4.9459,4.9459,4.9509,4.9509,4.9509,4.9509,4.9509,4.9509,4.9509,4.9509,4.9509,4.9509,4.9509,4.9509,4.9509,4.9509,4.9509,4.9509,4.9509,4.9509,4.9509,4.9509,4.9114,4.8307,4.8307,4.7894,4.7087,4.6298,4.5885,5.0302,5.0302,5.0302,5.0302,5.0302,5.0302,5.0302,5.0107,4.9981,5.0248,5.0302,5.0302,5.0302,5.0302,5.0302,5.0302,5.0455,5.0818,5.1493,5.1754,5.2098,5.2709,5.2805,5.2805,5.2805,5.2231,5.1792,5.1608,5.0971,5.0512,5.0302,5.0302,5.0302,5.0302,5.0302,5.0302,5.0302,5.0302,5.0302,5.0302,5.0302,5.0302,5.0302,5.0302,5.0302,5.0302,5.0302,5.0302,5.0302,5.0302,5.0302,5.0302,5.0302,5.0302,5.0302,5.0302,5.0302,5.0302,5.0302,5.0302,5.0302,5.0302,5.0302,5.0302,5.0302,5.0302,5.0302,5.0302,5.0302,5.029,5.0267,5.0255,5.0255,5.0231,5.005,4.9811,4.9521,4.9669,4.9745,4.9343,4.9255,4.9236,4.9127,4.9094,4.9195,4.9459,4.9509,4.9509,4.9509,4.9509,4.9509,4.9509,4.9509,4.9509,4.9509,4.9509,4.9509,4.9509,4.9509,4.9509,4.9509,4.9509,4.9509,4.9509,4.9509,4.9415,4.9227,4.9227,4.8776,4.7932,4.7744,4.7312,5.0302,5.0302,5.0248,5.0088,5.0063,5.0025,4.9857,4.9817,4.9784,4.9817,4.983,4.983,4.983,4.983,4.987,5.0019,5.0063,5.0272,5.0889,5.099,5.1123,5.1544,5.1601,5.1601,5.1601,5.1219,5.099,5.099,5.0569,5.0302,5.0302,5.0302,5.0302,5.0302,5.0302,5.0302,5.0302,5.0302,5.0302,5.0302,5.0302,5.0302,5.0302,5.0302,5.0302,5.0302,5.0302,5.0302,5.0302,5.0302,5.0302,5.0302,5.0302,5.0302,5.0302,5.0302,5.0302,5.0302,5.0302,5.0302,5.0302,5.0302,5.0302,5.0302,5.0302,5.0302,5.0302,5.0302,5.0302,5.0302,5.0302,5.0169,5.0063,5.0063,5.007,4.9986,4.9573,4.9617,4.9665,4.9352,4.9174,4.9073,4.9087,4.904,4.9061,4.9228,4.9412,4.9509,4.9509,4.9509,4.9509,4.9509,4.9509,4.9509,4.9509,4.9509,4.9509,4.9509,4.9509,4.9509,4.9509,4.9509,4.9509,4.9509,4.9509,4.9509,4.9509,4.9509,4.9265,4.8814,4.8382,4.7969,5.0302,5.0248,5.0144,4.987,4.9757,4.9646,4.936,4.9468,4.9541,4.9271,4.9271,4.9299,4.9299,4.9299,4.9424,4.9744,4.9803,4.9929,5.0248,5.0302,5.0302,5.0302,5.0302,5.0302,5.0302,5.0302,5.0302,5.0302,5.0302,5.0302,5.0302,5.0302,5.0302,5.0302,5.0302,5.0302,5.0302,5.0302,5.0302,5.0302,5.0302,5.0302,5.0302,5.0302,5.0302,5.0302,5.0302,5.0302,5.0302,5.0302,5.0302,5.0302,5.0302,5.0302,5.0302,5.0302,5.0302,5.0302,5.0302,5.0302,5.0302,5.0302,5.0302,5.0302,5.0302,5.0302,5.0302,5.0302,5.0302,5.029,5.0224,5.0012,4.979,4.973,4.9929,5.0012,4.955,4.951,4.9495,4.9302,4.9027,4.889,4.9019,4.8937,4.8889,4.8923,4.9162,4.9361,4.9412,4.9409,4.9443,4.949,4.9509,4.9509,4.9509,4.9509,4.9509,4.9509,4.9509,4.9509,4.9509,4.9509,4.9509,4.9509,4.9509,4.9509,4.9509,4.9509,4.9509,4.9471,4.8758,4.842,5.0302,5.0088,4.9857,4.9817,4.9584,4.9363,4.9299,4.9113,4.8917,4.8866,4.9097,4.9299,4.9299,4.9299,4.9424,4.9744,4.9803,4.9929,5.0248,5.0302,5.0302,5.0302,5.0302,5.0302,5.0302,5.0302,5.0302,5.0302,5.0302,5.0302,5.0302,5.0302,5.0302,5.0302,5.0302,5.0302,5.0302,5.0302,5.0302,5.0302,5.0302,5.0302,5.0302,5.0302,5.0302,5.0302,5.0302,5.0302,5.0302,5.0302,5.0302,5.0302,5.0302,5.0302,5.0302,5.0302,5.0302,5.0302,5.0302,5.0302,5.0302,5.0302,5.0302,5.0302,5.0302,5.0302,5.0302,5.0302,5.0302,5.0236,4.9942,4.983,4.973,4.9439,4.9409,4.9348,4.8984,4.9148,4.9209,4.8783,4.8605,4.8532,4.8439,4.842,4.8439,4.8623,4.8678,4.8802,4.9044,4.9061,4.9179,4.9459,4.9509,4.9509,4.9509,4.9509,4.9509,4.9509,4.9509,4.9509,4.9509,4.9509,4.9509,4.9509,4.9509,4.9509,4.9509,4.9509,4.9509,4.9509,4.9377,4.934,5.0063,4.979,4.9483,4.9287,4.9129,4.8965,4.878,4.8781,4.8746,4.8569,4.8641,4.8728,4.8728,4.8728,4.8849,4.9177,4.924,4.9424,4.9942,5.0025,5.0088,5.0278,5.0302,5.0302,5.0302,5.0302,5.0302,5.0302,5.0302,5.0302,5.0302,5.0302,5.0302,5.0302,5.0302,5.0302,5.0302,5.0302,5.0302,5.0302,5.0302,5.0302,5.0302,5.0302,5.0302,5.0302,5.0302,5.0302,5.0302,5.0302,5.0302,5.0302,5.0302,5.0302,5.0302,5.0302,5.0302,5.0302,5.0302,5.0302,5.0302,5.0302,5.0302,5.0302,5.0302,5.0169,5.0025,5.0025,4.9884,4.9702,4.9556,4.9378,4.9193,4.9048,4.8883,4.8693,4.855,4.878,4.89,4.8514,4.8532,4.8532,4.8286,4.8324,4.8438,4.8532,4.8605,4.8695,4.8818,4.8802,4.8889,4.9179,4.9211,4.9295,4.9474,4.9509,4.9509,4.9509,4.9509,4.9509,4.9509,4.9509,4.9509,4.9509,4.9509,4.9509,4.9509,4.9509,4.9509,4.9509,4.9509,4.9509,4.9993,4.9613,4.9256,4.9001,4.8799,4.8604,4.8363,4.8495,4.8604,4.8345,4.8306,4.8306,4.8306,4.8306,4.842,4.8746,4.8799,4.9015,4.9702,4.9803,4.991,5.0248,5.0302,5.0302,5.0302,5.0302,5.0302,5.0302,5.0302,5.0302,5.0302,5.0302,5.0302,5.0302,5.0302,5.0302,5.0302,5.0302,5.0302,5.0302,5.0302,5.0302,5.0302,5.0302,5.0302,5.0302,5.0302,5.0302,5.0302,5.0302,5.0302,5.0302,5.0302,5.0302,5.0302,5.0302,5.0302,5.0302,5.0302,5.0302,5.0302,5.0302,5.0302,5.029,5.0212,5.0012,4.9771,4.9702,4.9498,4.9268,4.9209,4.9001,4.8781,4.8693,4.8477,4.8306,4.8306,4.8495,4.8604,4.8345,4.8458,4.8495,4.8246,4.8323,4.84,4.8381,4.8458,4.855,4.8641,4.8624,4.8696,4.9027,4.9061,4.9179,4.9474,4.9509,4.9509,4.9509,4.9509,4.9509,4.9509,4.9509,4.9509,4.9509,4.9509,4.9509,4.9509,4.9509,4.9509,4.9509,4.9509,4.9509,5.029,4.9803,4.9302,4.9287,4.8797,4.8325,4.8306,4.8325,4.8325,4.8306,4.8306,4.8306,4.8306,4.8306,4.842,4.8746,4.8799,4.9015,4.9702,4.9803,4.991,5.0248,5.0302,5.0302,5.0302,5.0302,5.0302,5.0302,5.0302,5.0302,5.0302,5.0302,5.0302,5.0302,5.0302,5.0302,5.0302,5.0302,5.0302,5.0302,5.0302,5.0302,5.0302,5.0302,5.0302,5.0302,5.0302,5.0302,5.0302,5.0302,5.0302,5.0302,5.0302,5.0302,5.0302,5.0302,5.0302,5.0302,5.0302,5.0302,5.0302,5.0302,5.0302,5.0236,4.991,4.9798,4.973,4.9424,4.9314,4.924,4.89,4.8816,4.8711,4.8402,4.8306,4.8306,4.8306,4.8325,4.8325,4.8306,4.8306,4.8305,4.8207,4.8207,4.8168,4.805,4.8032,4.8151,4.8476,4.8513,4.8679,4.9129,4.9179,4.9262,4.9474,4.9509,4.9509,4.9509,4.9509,4.9509,4.9509,4.9509,4.9509,4.9509,4.9509,4.9509,4.9509,4.9509,4.9509,4.9509,4.9509,4.9509,5.0038,4.9784,4.9512,4.908,4.8799,4.855,4.8345,4.8306,4.8306,4.8306,4.8306,4.8306,4.8306,4.8306,4.8344,4.8458,4.8477,4.8641,4.908,4.9348,4.9599,4.9942,5.0169,5.0302,5.0302,5.0302,5.0302,5.0302,5.0302,5.0302,5.0302,5.0302,5.0302,5.0302,5.0302,5.0302,5.0302,5.0302,5.0302,5.0302,5.0302,5.0302,5.0302,5.0302,5.0302,5.0302,5.0302,5.0302,5.0302,5.0302,5.0302,5.0302,5.0302,5.0302,5.0302,5.0302,5.0302,5.0302,5.0302,5.0302,5.0259,5.0051,4.9981,4.9929,4.957,4.9333,4.9129,4.8999,4.8815,4.8622,4.8514,4.8477,4.8439,4.8344,4.8306,4.8306,4.8306,4.8306,4.8306,4.8306,4.8306,4.8287,4.8267,4.8267,4.8247,4.8209,4.8169,4.8168,4.8285,4.8228,4.8287,4.8605,4.8624,4.8714,4.8907,4.9079,4.9179,4.9179,4.9179,4.9179,4.9179,4.9179,4.9179,4.9179,4.9393,4.9509,4.9509,4.9509,4.9509,4.9509,4.9509,4.9509,5.0038,0.0,0.0,4.924,4.9048,4.8883,4.8532,4.8458,4.8439,4.8325,4.8306,4.8306,4.8306,4.8306,4.8306,4.8306,4.8306,4.842,4.8746,4.9097,4.9405,4.9757,5.0107,5.0302,5.0302,5.0302,5.0302,5.0302,5.0302,5.0302,5.0302,5.0302,5.0302,5.0302,5.0302,5.0302,5.0302,5.0302,5.0302,5.0302,5.0302,5.0302,5.0302,5.0302,5.0302,5.0302,5.0302,5.0302,5.0302,5.0302,5.0302,5.0302,5.0302,5.0302,5.0302,5.0302,5.0302,5.0302,5.0302,5.0302,5.0236,4.9916,4.9803,4.9716,4.9271,4.8984,4.8781,4.8658,4.8458,4.8306,4.8306,4.8306,4.8306,4.8306,4.8306,4.8306,4.8306,4.8306,4.8306,4.8306,4.8306,4.8306,4.8306,4.8306,4.8306,4.8306,4.8267,4.8228,4.8228,4.8169,4.817,4.8343,4.8363,4.842,4.8587,4.8767,4.8906,4.8991,4.8991,4.8991,4.8991,4.8991,4.8957,4.8872,4.9079,4.9197,4.9197,4.9412,4.9509,4.9509,4.9509,4.9509,0.0,0.0,0.0,4.9784,4.9556,4.924,4.8883,4.8816,4.8711,4.8383,4.8325,4.8325,4.8325,4.8325,4.8344,4.8344,4.8325,4.842,4.8746,4.9097,4.9405,4.9757,5.0107,5.0302,5.0302,5.0302,5.0302,5.0302,5.0302,5.0302,5.0302,5.0302,5.0302,5.0302,5.0302,5.0302,5.0302,5.0302,5.0302,5.0302,5.0302,5.0302,5.0302,5.0302,5.0302,5.0302,5.0302,5.0302,5.0302,5.0302,5.0302,5.0302,5.0302,5.0302,5.0302,5.0302,5.0302,5.0302,5.0302,5.029,5.0224,4.9884,4.9771,4.9646,4.8984,4.8781,4.8711,4.8383,4.8306,4.8306,4.8306,4.8306,4.8306,4.8306,4.8306,4.8306,4.8306,4.8306,4.8306,4.8306,4.8306,4.8306,4.8306,4.8306,4.8306,4.8306,4.8287,4.8287,4.8287,4.8287,4.8343,4.8475,4.8494,4.8513,4.8569,4.8587,4.8695,4.8957,4.8974,4.8974,4.8974,4.8974,4.8854,4.8587,4.8587,4.8605,4.8605,4.9197,4.9493,4.9493,4.9493,4.9474,5.0302,0.0,0.0,0.0,0.0,0.0,4.924,4.9161,4.9064,4.8729,4.8849,4.8949,4.8693,4.8866,4.9031,4.9031,4.8623,4.842,4.8746,4.9097,4.9405,4.9757,5.0107,5.0302,5.0302,5.0302,5.0302,5.0302,5.0302,5.0302,5.0302,5.0302,5.0302,5.0302,5.0302,5.0302,5.0302,5.0302,5.0302,5.0302,5.0302,5.0302,5.0302,5.0302,5.0302,5.0302,5.0302,5.0302,5.0302,5.0302,5.0302,5.0302,5.0302,5.0302,5.0302,5.0302,5.0302,5.0302,5.0302,5.0144,4.987,4.9541,4.9271,4.9001,4.8568,4.8439,4.842,4.8325,4.8306,4.8306,4.8306,4.8306,4.8306,4.8306,4.8306,4.8306,4.8306,4.8306,4.8306,4.8306,4.8306,4.8306,4.8306,4.8306,4.8306,4.8306,4.8267,4.8226,4.8226,4.8149,4.809,4.8085,4.8065,4.8026,4.7949,4.8132,4.8269,4.8346,4.8346,4.8346,4.8346,4.8346,4.8308,4.825,4.8476,4.8605,4.8605,4.8959,4.9146,4.9146,4.9146,4.9027,0.0,0.0,0.0,0.0,0.0,0.0,4.9584,4.9512,4.9378,4.89,4.8967,4.9031,4.885,4.8967,4.9145,4.9287,4.8965,4.8799,4.8965,4.9302,4.9584,4.979,5.0107,5.0302,5.0302,5.0302,5.0302,5.0302,5.0302,5.0302,5.0302,5.0302,5.0302,5.0302,5.0302,5.0302,5.0302,5.0302,5.0302,5.0302,5.0302,5.0302,5.0302,5.0302,5.0302,5.0302,5.0302,5.0302,5.0302,5.0302,5.0302,5.0302,5.0302,5.0302,5.0302,5.0302,5.0302,5.029,5.0144,4.9968,4.9716,4.9256,4.8967,4.8729,4.8402,4.8306,4.8306,4.8306,4.8306,4.8306,4.8306,4.8306,4.8306,4.8306,4.8306,4.8306,4.8306,4.8306,4.8306,4.8306,4.8306,4.8306,4.8306,4.8306,4.8306,4.8306,4.8228,4.8187,4.8187,4.809,4.797,4.7902,4.7881,4.784,4.7717,4.7829,4.7974,4.8076,4.8114,4.8114,4.8114,4.8114,4.8055,4.7951,4.8113,4.8268,4.8383,4.8695,4.8837,4.8837,4.8837,4.8749,0.0,0.0,0.0,0.0,5.0302,0.0,4.991,4.9857,4.9674,4.905,4.8934,4.8951,4.8917,4.8934,4.9048,4.9363,4.9424,4.9409,4.936,4.9599,4.9798,4.9844,5.012,5.0302,5.0302,5.0302,5.0302,5.0302,5.0302,5.0302,5.0302,5.0302,5.0302,5.0302,5.0302,5.0302,5.0302,5.0302,5.0302,5.0302,5.0302,5.0302,5.0302,5.0302,5.0302,5.0302,5.0302,5.0302,5.0302,5.0302,5.0302,5.0302,5.0302,5.0302,5.0302,5.0248,5.0236,5.02,4.9857,4.9716,4.9584,4.9001,4.8781,4.8694,4.8383,4.8306,4.8306,4.8306,4.8306,4.8306,4.8306,4.8306,4.8306,4.8306,4.8306,4.8306,4.8306,4.8306,4.8306,4.8306,4.8306,4.8306,4.8306,4.8306,4.8306,4.8306,4.8228,4.8187,4.8187,4.807,4.7968,4.7902,4.7899,4.784,4.7717,4.7717,4.7806,4.8035,4.8055,4.8055,4.8055,4.8055,4.7933,4.7699,4.7717,4.7827,4.8055,4.8383,4.855,4.855,4.855,4.8532,0.0,0.0,0.0,0.0,5.0302,0.0,5.0224,5.0212,5.0088,4.9688,4.9817,4.9929,4.966,4.983,5.0025,5.0088,5.01,5.0006,4.9744,4.9757,4.9897,5.0169,5.0248,5.0302,5.0302,5.0302,5.0302,5.0302,5.0302,5.0302,5.0302,5.0302,5.0302,5.0302,5.0302,5.0302,5.0302,5.0302,5.0302,5.0302,5.0302,5.0302,5.0302,5.0302,5.0302,5.0302,5.0302,5.0302,5.0302,5.0302,5.0302,5.0302,5.0302,5.0302,5.0278,5.0012,4.9903,4.9844,4.9512,4.9224,4.8984,4.8832,4.8623,4.8383,4.8325,4.8306,4.8306,4.8306,4.8306,4.8306,4.8306,4.8306,4.8306,4.8306,4.8306,4.8306,4.8306,4.8306,4.8306,4.8306,4.8306,4.8306,4.8306,4.8306,4.8306,4.8306,4.8228,4.8187,4.8187,4.8046,4.7922,4.7902,4.7801,4.7738,4.7717,4.7717,4.772,4.7765,4.7783,4.7783,4.7783,4.7783,4.7762,4.7717,4.7717,4.772,4.7765,4.8073,4.8212,4.8212,4.8212,4.8093,0.0,0.0,0.0,5.0302,0.0,0.0,0.0,5.0302,5.0193,4.987,4.9942,4.9993,4.983,4.9942,5.012,5.0259,5.0302,5.0236,5.0076,5.0051,5.012,5.029,5.0302,5.0302,5.0302,5.0302,5.0302,5.0302,5.0302,5.0302,5.0302,5.0302,5.0302,5.0302,5.0302,5.0302,5.0302,5.0302,5.0302,5.0302,5.0302,5.0302,5.0302,5.0302,5.0302,5.0302,5.0302,5.0302,5.0302,5.0302,5.0302,5.0302,5.0302,5.0302,5.029,5.012,4.9942,4.9744,4.9424,4.908,4.8781,4.8604,4.8439,4.8306,4.8306,4.8306,4.8306,4.8306,4.8306,4.8306,4.8306,4.8306,4.8306,4.8306,4.8306,4.8306,4.8306,4.8306,4.8306,4.8306,4.8306,4.8306,4.8306,4.8306,4.8306,4.8306,4.8228,4.8187,4.8187,4.8048,4.7945,4.7902,4.784,4.7759,4.7717,4.7717,4.7717,4.7717,4.7717,4.7717,4.7717,4.7717,4.7717,4.7717,4.7717,4.7717,4.7717,4.7829,4.7911,4.7911,4.7911,4.7827,0.0,0.0,0.0,0.0,0.0,5.0302,0.0,0.0,0.0,4.9955,4.9903,4.9903,4.9903,4.9903,4.9981,5.0267,5.0302,5.0302,5.0302,5.0302,5.0302,5.0302,5.0302,5.0302,5.0302,5.0302,5.0302,5.0302,5.0302,5.0302,5.0302,5.0302,5.0302,5.0302,5.0302,5.0302,5.0302,5.0302,5.0302,5.0302,5.0302,5.0302,5.0302,5.0302,5.0302,5.0302,5.0302,5.0302,5.0302,5.0302,5.0302,5.0302,5.0302,5.0302,5.029,5.0224,5.0038,4.9744,4.9348,4.9015,4.8746,4.842,4.8306,4.8306,4.8306,4.8306,4.8306,4.8306,4.8306,4.8306,4.8306,4.8306,4.8306,4.8306,4.8306,4.8306,4.8306,4.8306,4.8306,4.8306,4.8306,4.8306,4.8306,4.8306,4.8306,4.8306,4.8247,4.8226,4.8226,4.811,4.801,4.7963,4.7922,4.7861,4.7759,4.7699,4.7717,4.7717,4.7717,4.7717,4.7717,4.7717,4.7717,4.7717,4.7717,4.7717,4.7717,4.7717,4.7717,4.7717,4.7717,4.7717,0.0,0.0,0.0,0.0,5.0302,5.0302,5.0302,0.0,5.029,5.0248,0.0,5.0236,5.0236,0.0,0.0,5.029,5.0302,5.0302,5.0302,5.0302,5.0302,5.0302,5.0302,5.0302,5.0302,5.0302,5.0302,5.0302,5.0302,5.0302,5.0302,5.0302,5.0302,5.0302,5.0302,5.0302,5.0302,5.0302,5.0302,5.0302,5.0302,5.0302,5.0302,5.0302,5.0302,5.0302,5.0302,5.0302,5.0302,5.0302,5.0302,5.0302,5.0302,5.0302,5.0259,4.9968,4.983,4.9702,4.9083,4.8833,4.8746,4.842,4.8306,4.8306,4.8306,4.8306,4.8306,4.8306,4.8306,4.8306,4.8306,4.8306,4.8306,4.8306,4.8306,4.8306,4.8306,4.8306,4.8306,4.8306,4.8306,4.8306,4.8306,4.8306,4.8306,4.8306,4.8287,4.8287,4.8287,4.8208,4.8168,4.8166,4.8004,4.7881,4.7881,4.7759,4.7717,4.7717,4.7717,4.7717,4.7717,4.7717,4.7717,4.7717,4.7717,4.7717,4.7717,4.7717,4.7717,4.7717,4.7717,4.7717,0.0,0.0,0.0,0.0,0.0,5.0063,5.0267,5.0302,5.0302,5.0302,0.0,0.0,0.0,0.0,0.0,0.0,5.0302,5.0302,5.0302,5.0302,5.0302,5.0302,5.0302,5.0302,5.0302,5.0302,5.0302,5.0302,5.0302,5.0302,5.0302,5.0302,5.0302,5.0302,5.0302,5.0302,5.0302,5.0302,5.0302,5.0302,5.0302,5.0302,5.0302,5.0302,5.0302,5.0302,5.0302,5.0302,5.0302,5.0302,5.0302,5.0302,5.0302,5.0302,5.029,5.0144,4.9844,4.9468,4.9193,4.8832,4.8477,4.8363,4.8306,4.8306,4.8306,4.8306,4.8306,4.8306,4.8306,4.8306,4.8306,4.8306,4.8306,4.8306,4.8306,4.8306,4.8306,4.8306,4.8306,4.8306,4.8306,4.8306,4.8306,4.8306,4.8306,4.8306,4.8306,4.8305,4.8247,4.8226,4.8166,4.8026,4.7943,4.7861,4.778,4.7738,4.7717,4.7717,4.7717,4.7717,4.7717,4.7717,4.7717,4.7717,4.7717,4.7717,4.7717,4.7717,4.7717,4.7717,4.7717,4.7717,5.012,4.9981,4.987,5.0224,5.012,4.9993,5.0236,5.0302,5.0302,5.0302,5.0302,0.0,0.0,0.0,5.0302,0.0,0.0,5.0302,5.0302,5.0302,5.0302,5.0302,5.0302,5.0302,5.0302,5.0302,5.0302,5.0302,5.0302,5.0302,5.0302,5.0302,5.0302,5.0302,5.0302,5.0302,5.0302,5.0302,5.0302,5.0302,5.0302,5.0302,5.0302,5.0302,5.0302,5.0302,5.0302,5.0302,5.0302,5.0302,5.0302,5.0302,5.0302,5.0236,5.0156,5.0156,4.9857,4.9424,4.924,4.878,4.8306,4.8306,4.8306,4.8306,4.8306,4.8306,4.8306,4.8306,4.8306,4.8306,4.8306,4.8306,4.8306,4.8306,4.8306,4.8306,4.8306,4.8306,4.8306,4.8306,4.8306,4.8306,4.8306,4.8306,4.8306,4.8306,4.8306,4.8286,4.8207,4.8187,4.8146,4.7945,4.7902,4.7861,4.7759,4.7717,4.7717,4.7717,4.7717,4.7717,4.7717,4.7717,4.7717,4.7717,4.7717,4.7717,4.7717,4.7717,4.7717,4.7717,4.7717,4.7717,4.9646,4.9817,4.987,5.0224,5.029,5.029,5.0302,5.0302,5.0302,5.0302,5.0302,5.0302,5.0302,5.0302,5.0302,0.0,0.0,0.0,0.0,5.0302,5.0302,5.0302,5.0302,5.0302,5.0302,5.0302,5.0302,5.0302,5.0302,5.0302,5.0302,5.0302,5.0302,5.0302,5.0302,5.0302,5.0302,5.0302,5.0302,5.0302,5.0302,5.0302,5.0302,5.0302,5.0302,5.0302,5.0302,5.0302,5.0302,5.0302,5.0302,5.0302,5.0302,5.0088,4.9817,4.9817,4.9784,4.9688,4.9031,4.8586,4.8306,4.8306,4.8306,4.8306,4.8306,4.8306,4.8306,4.8306,4.8306,4.8306,4.8306,4.8306,4.8306,4.8306,4.8306,4.8306,4.8306,4.8306,4.8306,4.8306,4.8306,4.8306,4.8306,4.8306,4.8306,4.8306,4.8306,4.8286,4.8207,4.8187,4.8148,4.8012,4.7945,4.7881,4.7881,4.7759,4.7717,4.7717,4.7717,4.7717,4.7717,4.7717,4.7717,4.7717,4.7717,4.7717,4.7717,4.7717,4.7717,4.7717,4.7717,4.7717,4.9202,4.9158,4.9211,4.9762,4.9776,4.9744,5.0212,5.0302,5.0302,5.0302,5.0302,5.0302,5.0302,0.0,0.0,0.0,0.0,0.0,0.0,5.0302,5.0302,5.0302,5.0302,5.0302,5.0302,5.0302,5.0302,5.0302,5.0302,5.0302,5.0302,5.0302,5.0302,5.0302,5.0302,5.0302,5.0302,5.0302,5.0302,5.0302,5.0302,5.0302,5.0302,5.0302,5.0302,5.0302,5.0302,5.0302,5.0302,5.0302,5.0302,5.029,5.0051,4.9897,4.9803,4.9803,4.9512,4.9064,4.8623,4.8402,4.8306,4.8306,4.8306,4.8306,4.8306,4.8306,4.8306,4.8306,4.8306,4.8306,4.8306,4.8306,4.8306,4.8306,4.8306,4.8306,4.8306,4.8306,4.8306,4.8306,4.8306,4.8306,4.8306,4.8306,4.8306,4.8306,4.8306,4.8248,4.809,4.807,4.801,4.7806,4.778,4.7759,4.7759,4.7738,4.7717,4.7717,4.7717,4.7717,4.7717,4.7717,4.7717,4.7717,4.7717,4.7717,4.7717,4.7717,4.7717,4.7717,4.7717,4.7717,4.9703,4.9412,4.919,4.9734,4.9539,4.9345,4.9955,5.0095,5.0095,5.0095,5.02,0.0,0.0,0.0,0.0,0.0,0.0,0.0,0.0,5.0194,5.017,5.017,5.0243,5.0302,5.0302,5.0255,5.0255,5.0302,5.0255,5.0255,5.0302,5.0302,5.0302,5.0302,5.0302,5.0302,5.0302,5.0302,5.0302,5.0302,5.0302,5.0302,5.0302,5.0302,5.0302,5.0302,5.0302,5.0302,5.0302,5.0302,5.0302,5.0278,4.9942,4.973,4.9618,4.9483,4.9115,4.8586,4.8364,4.8306,4.8306,4.8306,4.8306,4.8306,4.8306,4.8306,4.8306,4.8306,4.8306,4.8306,4.8306,4.8306,4.8306,4.8306,4.8306,4.8306,4.8306,4.8306,4.8306,4.8306,4.8306,4.8306,4.8306,4.8306,4.8306,4.8306,4.8306,4.8229,4.8032,4.7992,4.7911,4.772,4.7717,4.7717,4.7717,4.7717,4.7717,4.7717,4.7717,4.7717,4.7717,4.7717,4.7823,4.8113,4.7862,4.7823,4.8113,4.7823,4.7717,4.7717,4.7717,4.7717]}]]